<?xml version="1.0" encoding="UTF-8" standalone="no" ?>
<gpx xmlns="http://www.topografix.com/GPX/1/1" xmlns:xsi="http://www.w3.org/2001/XMLSchema-instance" xsi:schemaLocation="http://www.topografix.com/GPX/1/1 http://www.topografix.com/GPX/1/1/gpx.xsd" version="1.1" creator="VisuGPX - https://www.visugpx.com">
  <metadata>
    <name>Montfermy Chapdes-Beaufort</name>
    <desc><![CDATA[Randonnée de Montfermy à Chapdes-Beaufort Auvergne]]></desc>
  </metadata>
  <trk>
    <name><![CDATA[24-AVR-15 06:20:23 PM]]></name>
    <trkseg>
      <trkpt lat="45.88004" lon="2.80953">
        <ele>566.35</ele>
        <time>2015-04-24T08:33:19Z</time>
      </trkpt>
      <trkpt lat="45.88004" lon="2.80952">
        <ele>569.24</ele>
        <time>2015-04-24T08:33:29Z</time>
      </trkpt>
      <trkpt lat="45.88005" lon="2.80951">
        <ele>572.6</ele>
        <time>2015-04-24T08:33:48Z</time>
      </trkpt>
      <trkpt lat="45.88008" lon="2.80952">
        <ele>572.12</ele>
        <time>2015-04-24T08:34:12Z</time>
      </trkpt>
      <trkpt lat="45.88006" lon="2.80953">
        <ele>571.64</ele>
        <time>2015-04-24T08:34:25Z</time>
      </trkpt>
      <trkpt lat="45.88005" lon="2.80955">
        <ele>572.12</ele>
        <time>2015-04-24T08:34:41Z</time>
      </trkpt>
      <trkpt lat="45.88008" lon="2.80952">
        <ele>572.12</ele>
        <time>2015-04-24T08:35:00Z</time>
      </trkpt>
      <trkpt lat="45.88008" lon="2.80955">
        <ele>571.64</ele>
        <time>2015-04-24T08:35:21Z</time>
      </trkpt>
      <trkpt lat="45.88007" lon="2.80954">
        <ele>571.16</ele>
        <time>2015-04-24T08:35:40Z</time>
      </trkpt>
      <trkpt lat="45.88005" lon="2.80957">
        <ele>571.64</ele>
        <time>2015-04-24T08:35:43Z</time>
      </trkpt>
      <trkpt lat="45.87995" lon="2.80964">
        <ele>571.16</ele>
        <time>2015-04-24T08:35:58Z</time>
      </trkpt>
      <trkpt lat="45.87995" lon="2.80961">
        <ele>572.12</ele>
        <time>2015-04-24T08:36:15Z</time>
      </trkpt>
      <trkpt lat="45.87989" lon="2.80971">
        <ele>571.64</ele>
        <time>2015-04-24T08:36:28Z</time>
      </trkpt>
      <trkpt lat="45.87986" lon="2.80959">
        <ele>571.16</ele>
        <time>2015-04-24T08:36:34Z</time>
      </trkpt>
      <trkpt lat="45.87987" lon="2.80957">
        <ele>571.16</ele>
        <time>2015-04-24T08:36:48Z</time>
      </trkpt>
      <trkpt lat="45.8799" lon="2.8097">
        <ele>571.16</ele>
        <time>2015-04-24T08:36:57Z</time>
      </trkpt>
      <trkpt lat="45.8799" lon="2.80979">
        <ele>571.64</ele>
        <time>2015-04-24T08:37:01Z</time>
      </trkpt>
      <trkpt lat="45.87976" lon="2.81015">
        <ele>571.64</ele>
        <time>2015-04-24T08:37:23Z</time>
      </trkpt>
      <trkpt lat="45.87962" lon="2.81043">
        <ele>571.64</ele>
        <time>2015-04-24T08:37:41Z</time>
      </trkpt>
      <trkpt lat="45.8795" lon="2.81072">
        <ele>571.16</ele>
        <time>2015-04-24T08:37:58Z</time>
      </trkpt>
      <trkpt lat="45.87943" lon="2.81097">
        <ele>571.16</ele>
        <time>2015-04-24T08:38:14Z</time>
      </trkpt>
      <trkpt lat="45.8794" lon="2.81104">
        <ele>571.64</ele>
        <time>2015-04-24T08:38:23Z</time>
      </trkpt>
      <trkpt lat="45.87941" lon="2.8113">
        <ele>571.16</ele>
        <time>2015-04-24T08:38:39Z</time>
      </trkpt>
      <trkpt lat="45.87944" lon="2.81153">
        <ele>571.16</ele>
        <time>2015-04-24T08:38:54Z</time>
      </trkpt>
      <trkpt lat="45.87947" lon="2.81173">
        <ele>571.64</ele>
        <time>2015-04-24T08:39:08Z</time>
      </trkpt>
      <trkpt lat="45.87956" lon="2.81202">
        <ele>571.64</ele>
        <time>2015-04-24T08:39:26Z</time>
      </trkpt>
      <trkpt lat="45.87965" lon="2.81222">
        <ele>571.64</ele>
        <time>2015-04-24T08:39:39Z</time>
      </trkpt>
      <trkpt lat="45.87968" lon="2.8123">
        <ele>571.64</ele>
        <time>2015-04-24T08:39:44Z</time>
      </trkpt>
      <trkpt lat="45.87981" lon="2.81255">
        <ele>572.6</ele>
        <time>2015-04-24T08:40:01Z</time>
      </trkpt>
      <trkpt lat="45.87993" lon="2.81279">
        <ele>573.08</ele>
        <time>2015-04-24T08:40:17Z</time>
      </trkpt>
      <trkpt lat="45.88006" lon="2.81303">
        <ele>573.08</ele>
        <time>2015-04-24T08:40:33Z</time>
      </trkpt>
      <trkpt lat="45.88006" lon="2.81307">
        <ele>573.08</ele>
        <time>2015-04-24T08:40:37Z</time>
      </trkpt>
      <trkpt lat="45.88011" lon="2.81313">
        <ele>573.08</ele>
        <time>2015-04-24T08:40:42Z</time>
      </trkpt>
      <trkpt lat="45.88024" lon="2.81337">
        <ele>573.56</ele>
        <time>2015-04-24T08:40:59Z</time>
      </trkpt>
      <trkpt lat="45.88035" lon="2.81359">
        <ele>574.53</ele>
        <time>2015-04-24T08:41:13Z</time>
      </trkpt>
      <trkpt lat="45.8804" lon="2.81382">
        <ele>575.01</ele>
        <time>2015-04-24T08:41:25Z</time>
      </trkpt>
      <trkpt lat="45.88048" lon="2.81409">
        <ele>576.45</ele>
        <time>2015-04-24T08:41:40Z</time>
      </trkpt>
      <trkpt lat="45.88043" lon="2.81417">
        <ele>576.45</ele>
        <time>2015-04-24T08:41:54Z</time>
      </trkpt>
      <trkpt lat="45.88044" lon="2.81418">
        <ele>577.41</ele>
        <time>2015-04-24T08:41:56Z</time>
      </trkpt>
      <trkpt lat="45.88046" lon="2.81426">
        <ele>577.41</ele>
        <time>2015-04-24T08:42:03Z</time>
      </trkpt>
      <trkpt lat="45.88051" lon="2.81438">
        <ele>577.41</ele>
        <time>2015-04-24T08:42:11Z</time>
      </trkpt>
      <trkpt lat="45.88051" lon="2.81441">
        <ele>577.41</ele>
        <time>2015-04-24T08:42:13Z</time>
      </trkpt>
      <trkpt lat="45.88052" lon="2.81445">
        <ele>577.89</ele>
        <time>2015-04-24T08:42:15Z</time>
      </trkpt>
      <trkpt lat="45.88053" lon="2.81471">
        <ele>579.33</ele>
        <time>2015-04-24T08:42:31Z</time>
      </trkpt>
      <trkpt lat="45.88054" lon="2.81489">
        <ele>580.29</ele>
        <time>2015-04-24T08:42:43Z</time>
      </trkpt>
      <trkpt lat="45.88055" lon="2.81514">
        <ele>582.22</ele>
        <time>2015-04-24T08:42:57Z</time>
      </trkpt>
      <trkpt lat="45.88052" lon="2.81526">
        <ele>582.22</ele>
        <time>2015-04-24T08:43:10Z</time>
      </trkpt>
      <trkpt lat="45.88052" lon="2.81543">
        <ele>582.22</ele>
        <time>2015-04-24T08:43:22Z</time>
      </trkpt>
      <trkpt lat="45.88051" lon="2.81565">
        <ele>583.18</ele>
        <time>2015-04-24T08:43:38Z</time>
      </trkpt>
      <trkpt lat="45.88053" lon="2.81591">
        <ele>585.1</ele>
        <time>2015-04-24T08:43:54Z</time>
      </trkpt>
      <trkpt lat="45.88053" lon="2.81593">
        <ele>585.1</ele>
        <time>2015-04-24T08:43:55Z</time>
      </trkpt>
      <trkpt lat="45.88045" lon="2.81596">
        <ele>585.58</ele>
        <time>2015-04-24T08:44:09Z</time>
      </trkpt>
      <trkpt lat="45.88045" lon="2.81601">
        <ele>585.58</ele>
        <time>2015-04-24T08:44:15Z</time>
      </trkpt>
      <trkpt lat="45.88048" lon="2.8163">
        <ele>587.02</ele>
        <time>2015-04-24T08:44:32Z</time>
      </trkpt>
      <trkpt lat="45.88045" lon="2.81653">
        <ele>587.98</ele>
        <time>2015-04-24T08:44:48Z</time>
      </trkpt>
      <trkpt lat="45.88043" lon="2.81664">
        <ele>587.02</ele>
        <time>2015-04-24T08:45:06Z</time>
      </trkpt>
      <trkpt lat="45.88041" lon="2.81684">
        <ele>588.46</ele>
        <time>2015-04-24T08:45:21Z</time>
      </trkpt>
      <trkpt lat="45.88038" lon="2.81676">
        <ele>588.46</ele>
        <time>2015-04-24T08:45:27Z</time>
      </trkpt>
      <trkpt lat="45.88037" lon="2.81666">
        <ele>587.98</ele>
        <time>2015-04-24T08:45:33Z</time>
      </trkpt>
      <trkpt lat="45.88039" lon="2.81661">
        <ele>588.46</ele>
        <time>2015-04-24T08:45:52Z</time>
      </trkpt>
      <trkpt lat="45.88036" lon="2.81667">
        <ele>587.02</ele>
        <time>2015-04-24T08:46:06Z</time>
      </trkpt>
      <trkpt lat="45.88034" lon="2.81674">
        <ele>586.54</ele>
        <time>2015-04-24T08:46:11Z</time>
      </trkpt>
      <trkpt lat="45.88029" lon="2.81684">
        <ele>585.1</ele>
        <time>2015-04-24T08:46:26Z</time>
      </trkpt>
      <trkpt lat="45.88025" lon="2.81705">
        <ele>583.18</ele>
        <time>2015-04-24T08:46:45Z</time>
      </trkpt>
      <trkpt lat="45.88022" lon="2.81706">
        <ele>582.22</ele>
        <time>2015-04-24T08:47:03Z</time>
      </trkpt>
      <trkpt lat="45.88015" lon="2.81723">
        <ele>581.25</ele>
        <time>2015-04-24T08:47:19Z</time>
      </trkpt>
      <trkpt lat="45.88015" lon="2.81724">
        <ele>580.77</ele>
        <time>2015-04-24T08:47:20Z</time>
      </trkpt>
      <trkpt lat="45.88006" lon="2.81746">
        <ele>578.85</ele>
        <time>2015-04-24T08:47:37Z</time>
      </trkpt>
      <trkpt lat="45.87996" lon="2.81766">
        <ele>577.41</ele>
        <time>2015-04-24T08:47:52Z</time>
      </trkpt>
      <trkpt lat="45.87994" lon="2.8177">
        <ele>577.41</ele>
        <time>2015-04-24T08:47:55Z</time>
      </trkpt>
      <trkpt lat="45.87983" lon="2.81794">
        <ele>577.41</ele>
        <time>2015-04-24T08:48:11Z</time>
      </trkpt>
      <trkpt lat="45.87975" lon="2.81817">
        <ele>577.41</ele>
        <time>2015-04-24T08:48:27Z</time>
      </trkpt>
      <trkpt lat="45.87964" lon="2.81841">
        <ele>577.89</ele>
        <time>2015-04-24T08:48:43Z</time>
      </trkpt>
      <trkpt lat="45.87952" lon="2.81863">
        <ele>576.45</ele>
        <time>2015-04-24T08:48:59Z</time>
      </trkpt>
      <trkpt lat="45.87945" lon="2.81872">
        <ele>575.01</ele>
        <time>2015-04-24T08:49:14Z</time>
      </trkpt>
      <trkpt lat="45.87937" lon="2.81888">
        <ele>574.04</ele>
        <time>2015-04-24T08:49:30Z</time>
      </trkpt>
      <trkpt lat="45.8793" lon="2.81894">
        <ele>574.04</ele>
        <time>2015-04-24T08:49:52Z</time>
      </trkpt>
      <trkpt lat="45.87928" lon="2.819">
        <ele>574.04</ele>
        <time>2015-04-24T08:49:56Z</time>
      </trkpt>
      <trkpt lat="45.87923" lon="2.81924">
        <ele>574.53</ele>
        <time>2015-04-24T08:50:12Z</time>
      </trkpt>
      <trkpt lat="45.87915" lon="2.81947">
        <ele>574.53</ele>
        <time>2015-04-24T08:50:28Z</time>
      </trkpt>
      <trkpt lat="45.87904" lon="2.81965">
        <ele>573.56</ele>
        <time>2015-04-24T08:50:43Z</time>
      </trkpt>
      <trkpt lat="45.8789" lon="2.81985">
        <ele>572.12</ele>
        <time>2015-04-24T08:50:59Z</time>
      </trkpt>
      <trkpt lat="45.87876" lon="2.81998">
        <ele>571.64</ele>
        <time>2015-04-24T08:51:13Z</time>
      </trkpt>
      <trkpt lat="45.87864" lon="2.82011">
        <ele>571.16</ele>
        <time>2015-04-24T08:51:30Z</time>
      </trkpt>
      <trkpt lat="45.8786" lon="2.82015">
        <ele>571.16</ele>
        <time>2015-04-24T08:51:35Z</time>
      </trkpt>
      <trkpt lat="45.87853" lon="2.82027">
        <ele>570.2</ele>
        <time>2015-04-24T08:51:47Z</time>
      </trkpt>
      <trkpt lat="45.87842" lon="2.82047">
        <ele>570.2</ele>
        <time>2015-04-24T08:52:00Z</time>
      </trkpt>
      <trkpt lat="45.87831" lon="2.82067">
        <ele>570.68</ele>
        <time>2015-04-24T08:52:17Z</time>
      </trkpt>
      <trkpt lat="45.8782" lon="2.82087">
        <ele>570.68</ele>
        <time>2015-04-24T08:52:34Z</time>
      </trkpt>
      <trkpt lat="45.87821" lon="2.82087">
        <ele>570.68</ele>
        <time>2015-04-24T08:52:53Z</time>
      </trkpt>
      <trkpt lat="45.87812" lon="2.82078">
        <ele>570.2</ele>
        <time>2015-04-24T08:53:21Z</time>
      </trkpt>
      <trkpt lat="45.87807" lon="2.82075">
        <ele>569.72</ele>
        <time>2015-04-24T08:53:55Z</time>
      </trkpt>
      <trkpt lat="45.87806" lon="2.82081">
        <ele>570.2</ele>
        <time>2015-04-24T08:54:22Z</time>
      </trkpt>
      <trkpt lat="45.87806" lon="2.82085">
        <ele>570.68</ele>
        <time>2015-04-24T08:54:52Z</time>
      </trkpt>
      <trkpt lat="45.87811" lon="2.8208">
        <ele>570.68</ele>
        <time>2015-04-24T08:55:24Z</time>
      </trkpt>
      <trkpt lat="45.87811" lon="2.82078">
        <ele>570.68</ele>
        <time>2015-04-24T08:55:52Z</time>
      </trkpt>
      <trkpt lat="45.87815" lon="2.82094">
        <ele>570.68</ele>
        <time>2015-04-24T08:56:09Z</time>
      </trkpt>
      <trkpt lat="45.87814" lon="2.82097">
        <ele>571.16</ele>
        <time>2015-04-24T08:56:13Z</time>
      </trkpt>
      <trkpt lat="45.87798" lon="2.82105">
        <ele>570.68</ele>
        <time>2015-04-24T08:56:29Z</time>
      </trkpt>
      <trkpt lat="45.87789" lon="2.82112">
        <ele>570.68</ele>
        <time>2015-04-24T08:56:45Z</time>
      </trkpt>
      <trkpt lat="45.87777" lon="2.82123">
        <ele>571.64</ele>
        <time>2015-04-24T08:56:59Z</time>
      </trkpt>
      <trkpt lat="45.87761" lon="2.82127">
        <ele>571.64</ele>
        <time>2015-04-24T08:57:13Z</time>
      </trkpt>
      <trkpt lat="45.87742" lon="2.82123">
        <ele>570.2</ele>
        <time>2015-04-24T08:57:29Z</time>
      </trkpt>
      <trkpt lat="45.87739" lon="2.82115">
        <ele>570.68</ele>
        <time>2015-04-24T08:57:53Z</time>
      </trkpt>
      <trkpt lat="45.87738" lon="2.82115">
        <ele>571.16</ele>
        <time>2015-04-24T08:58:13Z</time>
      </trkpt>
      <trkpt lat="45.87733" lon="2.82125">
        <ele>571.64</ele>
        <time>2015-04-24T08:58:44Z</time>
      </trkpt>
      <trkpt lat="45.87733" lon="2.82119">
        <ele>571.64</ele>
        <time>2015-04-24T08:59:13Z</time>
      </trkpt>
      <trkpt lat="45.8775" lon="2.82117">
        <ele>572.12</ele>
        <time>2015-04-24T08:59:28Z</time>
      </trkpt>
      <trkpt lat="45.87756" lon="2.82115">
        <ele>572.12</ele>
        <time>2015-04-24T08:59:34Z</time>
      </trkpt>
      <trkpt lat="45.87767" lon="2.82123">
        <ele>574.04</ele>
        <time>2015-04-24T08:59:46Z</time>
      </trkpt>
      <trkpt lat="45.87776" lon="2.82144">
        <ele>577.41</ele>
        <time>2015-04-24T09:00:01Z</time>
      </trkpt>
      <trkpt lat="45.87776" lon="2.82154">
        <ele>580.29</ele>
        <time>2015-04-24T09:00:15Z</time>
      </trkpt>
      <trkpt lat="45.87775" lon="2.82173">
        <ele>583.66</ele>
        <time>2015-04-24T09:00:31Z</time>
      </trkpt>
      <trkpt lat="45.87777" lon="2.8218">
        <ele>584.62</ele>
        <time>2015-04-24T09:00:40Z</time>
      </trkpt>
      <trkpt lat="45.87773" lon="2.82185">
        <ele>586.06</ele>
        <time>2015-04-24T09:00:57Z</time>
      </trkpt>
      <trkpt lat="45.87775" lon="2.8219">
        <ele>585.58</ele>
        <time>2015-04-24T09:01:26Z</time>
      </trkpt>
      <trkpt lat="45.87776" lon="2.82191">
        <ele>587.5</ele>
        <time>2015-04-24T09:01:31Z</time>
      </trkpt>
      <trkpt lat="45.87773" lon="2.82201">
        <ele>589.43</ele>
        <time>2015-04-24T09:01:46Z</time>
      </trkpt>
      <trkpt lat="45.87771" lon="2.82213">
        <ele>591.83</ele>
        <time>2015-04-24T09:02:03Z</time>
      </trkpt>
      <trkpt lat="45.87773" lon="2.82222">
        <ele>594.23</ele>
        <time>2015-04-24T09:02:17Z</time>
      </trkpt>
      <trkpt lat="45.87772" lon="2.82227">
        <ele>596.64</ele>
        <time>2015-04-24T09:02:33Z</time>
      </trkpt>
      <trkpt lat="45.87778" lon="2.82243">
        <ele>598.08</ele>
        <time>2015-04-24T09:02:53Z</time>
      </trkpt>
      <trkpt lat="45.87777" lon="2.82258">
        <ele>600.48</ele>
        <time>2015-04-24T09:03:09Z</time>
      </trkpt>
      <trkpt lat="45.87768" lon="2.82269">
        <ele>601.44</ele>
        <time>2015-04-24T09:03:33Z</time>
      </trkpt>
      <trkpt lat="45.87766" lon="2.82277">
        <ele>602.88</ele>
        <time>2015-04-24T09:03:50Z</time>
      </trkpt>
      <trkpt lat="45.87768" lon="2.82286">
        <ele>605.29</ele>
        <time>2015-04-24T09:04:03Z</time>
      </trkpt>
      <trkpt lat="45.87751" lon="2.82287">
        <ele>607.69</ele>
        <time>2015-04-24T09:04:21Z</time>
      </trkpt>
      <trkpt lat="45.87742" lon="2.82279">
        <ele>608.17</ele>
        <time>2015-04-24T09:04:38Z</time>
      </trkpt>
      <trkpt lat="45.87737" lon="2.82274">
        <ele>608.17</ele>
        <time>2015-04-24T09:05:01Z</time>
      </trkpt>
      <trkpt lat="45.87729" lon="2.82273">
        <ele>609.13</ele>
        <time>2015-04-24T09:05:32Z</time>
      </trkpt>
      <trkpt lat="45.87719" lon="2.82269">
        <ele>612.5</ele>
        <time>2015-04-24T09:05:45Z</time>
      </trkpt>
      <trkpt lat="45.87712" lon="2.82264">
        <ele>614.9</ele>
        <time>2015-04-24T09:05:59Z</time>
      </trkpt>
      <trkpt lat="45.87705" lon="2.82255">
        <ele>616.82</ele>
        <time>2015-04-24T09:06:14Z</time>
      </trkpt>
      <trkpt lat="45.87704" lon="2.82248">
        <ele>620.19</ele>
        <time>2015-04-24T09:06:29Z</time>
      </trkpt>
      <trkpt lat="45.87711" lon="2.82249">
        <ele>622.59</ele>
        <time>2015-04-24T09:06:42Z</time>
      </trkpt>
      <trkpt lat="45.8771" lon="2.82257">
        <ele>624.99</ele>
        <time>2015-04-24T09:06:55Z</time>
      </trkpt>
      <trkpt lat="45.87706" lon="2.82267">
        <ele>626.44</ele>
        <time>2015-04-24T09:07:08Z</time>
      </trkpt>
      <trkpt lat="45.87707" lon="2.82268">
        <ele>626.44</ele>
        <time>2015-04-24T09:07:37Z</time>
      </trkpt>
      <trkpt lat="45.87698" lon="2.82269">
        <ele>626.44</ele>
        <time>2015-04-24T09:08:06Z</time>
      </trkpt>
      <trkpt lat="45.87702" lon="2.82279">
        <ele>627.88</ele>
        <time>2015-04-24T09:08:17Z</time>
      </trkpt>
      <trkpt lat="45.87705" lon="2.82285">
        <ele>629.32</ele>
        <time>2015-04-24T09:08:23Z</time>
      </trkpt>
      <trkpt lat="45.87707" lon="2.82288">
        <ele>629.8</ele>
        <time>2015-04-24T09:08:25Z</time>
      </trkpt>
      <trkpt lat="45.8771" lon="2.82298">
        <ele>632.2</ele>
        <time>2015-04-24T09:08:40Z</time>
      </trkpt>
      <trkpt lat="45.87712" lon="2.82316">
        <ele>634.61</ele>
        <time>2015-04-24T09:08:55Z</time>
      </trkpt>
      <trkpt lat="45.87719" lon="2.82335">
        <ele>637.49</ele>
        <time>2015-04-24T09:09:13Z</time>
      </trkpt>
      <trkpt lat="45.87727" lon="2.82356">
        <ele>639.41</ele>
        <time>2015-04-24T09:09:28Z</time>
      </trkpt>
      <trkpt lat="45.87728" lon="2.82373">
        <ele>641.82</ele>
        <time>2015-04-24T09:09:47Z</time>
      </trkpt>
      <trkpt lat="45.8773" lon="2.82385">
        <ele>644.22</ele>
        <time>2015-04-24T09:10:03Z</time>
      </trkpt>
      <trkpt lat="45.87734" lon="2.82387">
        <ele>644.7</ele>
        <time>2015-04-24T09:10:27Z</time>
      </trkpt>
      <trkpt lat="45.87729" lon="2.82397">
        <ele>645.18</ele>
        <time>2015-04-24T09:11:02Z</time>
      </trkpt>
      <trkpt lat="45.87732" lon="2.82398">
        <ele>646.14</ele>
        <time>2015-04-24T09:11:31Z</time>
      </trkpt>
      <trkpt lat="45.87718" lon="2.82383">
        <ele>649.51</ele>
        <time>2015-04-24T09:11:47Z</time>
      </trkpt>
      <trkpt lat="45.87691" lon="2.82373">
        <ele>651.43</ele>
        <time>2015-04-24T09:12:05Z</time>
      </trkpt>
      <trkpt lat="45.87682" lon="2.82363">
        <ele>655.28</ele>
        <time>2015-04-24T09:12:21Z</time>
      </trkpt>
      <trkpt lat="45.87671" lon="2.82355">
        <ele>656.72</ele>
        <time>2015-04-24T09:12:37Z</time>
      </trkpt>
      <trkpt lat="45.87668" lon="2.82353">
        <ele>658.16</ele>
        <time>2015-04-24T09:12:41Z</time>
      </trkpt>
      <trkpt lat="45.87655" lon="2.82341">
        <ele>660.56</ele>
        <time>2015-04-24T09:12:59Z</time>
      </trkpt>
      <trkpt lat="45.87655" lon="2.82334">
        <ele>661.52</ele>
        <time>2015-04-24T09:13:12Z</time>
      </trkpt>
      <trkpt lat="45.8766" lon="2.82332">
        <ele>661.52</ele>
        <time>2015-04-24T09:13:26Z</time>
      </trkpt>
      <trkpt lat="45.87659" lon="2.82332">
        <ele>662.01</ele>
        <time>2015-04-24T09:13:51Z</time>
      </trkpt>
      <trkpt lat="45.87653" lon="2.82329">
        <ele>662.01</ele>
        <time>2015-04-24T09:14:22Z</time>
      </trkpt>
      <trkpt lat="45.87639" lon="2.82321">
        <ele>662.97</ele>
        <time>2015-04-24T09:14:38Z</time>
      </trkpt>
      <trkpt lat="45.87631" lon="2.8231">
        <ele>663.93</ele>
        <time>2015-04-24T09:14:53Z</time>
      </trkpt>
      <trkpt lat="45.87627" lon="2.82303">
        <ele>664.41</ele>
        <time>2015-04-24T09:15:09Z</time>
      </trkpt>
      <trkpt lat="45.87619" lon="2.82298">
        <ele>666.81</ele>
        <time>2015-04-24T09:15:24Z</time>
      </trkpt>
      <trkpt lat="45.8761" lon="2.82294">
        <ele>669.22</ele>
        <time>2015-04-24T09:15:39Z</time>
      </trkpt>
      <trkpt lat="45.87597" lon="2.82294">
        <ele>672.58</ele>
        <time>2015-04-24T09:15:57Z</time>
      </trkpt>
      <trkpt lat="45.87588" lon="2.82286">
        <ele>672.58</ele>
        <time>2015-04-24T09:16:19Z</time>
      </trkpt>
      <trkpt lat="45.87585" lon="2.82296">
        <ele>674.02</ele>
        <time>2015-04-24T09:16:50Z</time>
      </trkpt>
      <trkpt lat="45.87582" lon="2.82304">
        <ele>677.39</ele>
        <time>2015-04-24T09:17:06Z</time>
      </trkpt>
      <trkpt lat="45.87586" lon="2.82304">
        <ele>679.31</ele>
        <time>2015-04-24T09:17:22Z</time>
      </trkpt>
      <trkpt lat="45.87596" lon="2.82317">
        <ele>682.67</ele>
        <time>2015-04-24T09:17:37Z</time>
      </trkpt>
      <trkpt lat="45.87604" lon="2.82335">
        <ele>684.12</ele>
        <time>2015-04-24T09:17:52Z</time>
      </trkpt>
      <trkpt lat="45.87594" lon="2.82347">
        <ele>687</ele>
        <time>2015-04-24T09:18:06Z</time>
      </trkpt>
      <trkpt lat="45.87591" lon="2.82349">
        <ele>687</ele>
        <time>2015-04-24T09:18:08Z</time>
      </trkpt>
      <trkpt lat="45.87588" lon="2.82345">
        <ele>687.48</ele>
        <time>2015-04-24T09:18:22Z</time>
      </trkpt>
      <trkpt lat="45.87586" lon="2.82348">
        <ele>687.48</ele>
        <time>2015-04-24T09:18:45Z</time>
      </trkpt>
      <trkpt lat="45.87583" lon="2.82352">
        <ele>687</ele>
        <time>2015-04-24T09:19:02Z</time>
      </trkpt>
      <trkpt lat="45.8758" lon="2.8235">
        <ele>687.48</ele>
        <time>2015-04-24T09:19:22Z</time>
      </trkpt>
      <trkpt lat="45.87585" lon="2.82342">
        <ele>687</ele>
        <time>2015-04-24T09:19:36Z</time>
      </trkpt>
      <trkpt lat="45.87583" lon="2.82356">
        <ele>687</ele>
        <time>2015-04-24T09:20:08Z</time>
      </trkpt>
      <trkpt lat="45.87581" lon="2.82356">
        <ele>687</ele>
        <time>2015-04-24T09:20:27Z</time>
      </trkpt>
      <trkpt lat="45.87582" lon="2.82352">
        <ele>687</ele>
        <time>2015-04-24T09:20:49Z</time>
      </trkpt>
      <trkpt lat="45.87581" lon="2.82352">
        <ele>687.48</ele>
        <time>2015-04-24T09:21:06Z</time>
      </trkpt>
      <trkpt lat="45.87581" lon="2.8235">
        <ele>687.48</ele>
        <time>2015-04-24T09:21:22Z</time>
      </trkpt>
      <trkpt lat="45.87579" lon="2.82348">
        <ele>685.56</ele>
        <time>2015-04-24T09:21:46Z</time>
      </trkpt>
      <trkpt lat="45.87578" lon="2.82347">
        <ele>688.92</ele>
        <time>2015-04-24T09:21:47Z</time>
      </trkpt>
      <trkpt lat="45.8758" lon="2.82354">
        <ele>687</ele>
        <time>2015-04-24T09:22:03Z</time>
      </trkpt>
      <trkpt lat="45.87575" lon="2.82364">
        <ele>687.96</ele>
        <time>2015-04-24T09:22:16Z</time>
      </trkpt>
      <trkpt lat="45.8757" lon="2.82366">
        <ele>687.96</ele>
        <time>2015-04-24T09:22:29Z</time>
      </trkpt>
      <trkpt lat="45.87562" lon="2.8238">
        <ele>688.92</ele>
        <time>2015-04-24T09:22:43Z</time>
      </trkpt>
      <trkpt lat="45.8755" lon="2.82398">
        <ele>689.4</ele>
        <time>2015-04-24T09:22:58Z</time>
      </trkpt>
      <trkpt lat="45.87547" lon="2.8241">
        <ele>688.92</ele>
        <time>2015-04-24T09:23:15Z</time>
      </trkpt>
      <trkpt lat="45.87541" lon="2.82415">
        <ele>688.92</ele>
        <time>2015-04-24T09:23:36Z</time>
      </trkpt>
      <trkpt lat="45.87534" lon="2.82426">
        <ele>688.92</ele>
        <time>2015-04-24T09:23:52Z</time>
      </trkpt>
      <trkpt lat="45.87523" lon="2.82445">
        <ele>688.92</ele>
        <time>2015-04-24T09:24:07Z</time>
      </trkpt>
      <trkpt lat="45.87508" lon="2.82467">
        <ele>689.88</ele>
        <time>2015-04-24T09:24:26Z</time>
      </trkpt>
      <trkpt lat="45.87498" lon="2.82489">
        <ele>690.84</ele>
        <time>2015-04-24T09:24:42Z</time>
      </trkpt>
      <trkpt lat="45.8749" lon="2.82509">
        <ele>691.81</ele>
        <time>2015-04-24T09:24:56Z</time>
      </trkpt>
      <trkpt lat="45.87486" lon="2.82541">
        <ele>694.21</ele>
        <time>2015-04-24T09:25:17Z</time>
      </trkpt>
      <trkpt lat="45.87478" lon="2.82565">
        <ele>696.13</ele>
        <time>2015-04-24T09:25:34Z</time>
      </trkpt>
      <trkpt lat="45.87474" lon="2.82581">
        <ele>696.61</ele>
        <time>2015-04-24T09:25:52Z</time>
      </trkpt>
      <trkpt lat="45.87472" lon="2.82604">
        <ele>697.57</ele>
        <time>2015-04-24T09:26:06Z</time>
      </trkpt>
      <trkpt lat="45.8747" lon="2.82628">
        <ele>697.57</ele>
        <time>2015-04-24T09:26:21Z</time>
      </trkpt>
      <trkpt lat="45.8747" lon="2.82644">
        <ele>697.57</ele>
        <time>2015-04-24T09:26:30Z</time>
      </trkpt>
      <trkpt lat="45.87469" lon="2.82666">
        <ele>696.13</ele>
        <time>2015-04-24T09:26:45Z</time>
      </trkpt>
      <trkpt lat="45.87466" lon="2.82672">
        <ele>696.13</ele>
        <time>2015-04-24T09:26:50Z</time>
      </trkpt>
      <trkpt lat="45.87462" lon="2.82687">
        <ele>699.02</ele>
        <time>2015-04-24T09:27:04Z</time>
      </trkpt>
      <trkpt lat="45.87461" lon="2.82699">
        <ele>700.46</ele>
        <time>2015-04-24T09:27:16Z</time>
      </trkpt>
      <trkpt lat="45.87461" lon="2.82715">
        <ele>700.94</ele>
        <time>2015-04-24T09:27:29Z</time>
      </trkpt>
      <trkpt lat="45.87458" lon="2.82718">
        <ele>701.9</ele>
        <time>2015-04-24T09:27:33Z</time>
      </trkpt>
      <trkpt lat="45.8746" lon="2.8274">
        <ele>701.9</ele>
        <time>2015-04-24T09:27:48Z</time>
      </trkpt>
      <trkpt lat="45.87459" lon="2.82767">
        <ele>702.38</ele>
        <time>2015-04-24T09:28:05Z</time>
      </trkpt>
      <trkpt lat="45.87456" lon="2.82775">
        <ele>702.86</ele>
        <time>2015-04-24T09:28:09Z</time>
      </trkpt>
      <trkpt lat="45.87453" lon="2.82781">
        <ele>703.82</ele>
        <time>2015-04-24T09:28:13Z</time>
      </trkpt>
      <trkpt lat="45.87447" lon="2.82788">
        <ele>703.34</ele>
        <time>2015-04-24T09:28:20Z</time>
      </trkpt>
      <trkpt lat="45.87439" lon="2.82804">
        <ele>704.78</ele>
        <time>2015-04-24T09:28:33Z</time>
      </trkpt>
      <trkpt lat="45.87435" lon="2.82804">
        <ele>705.26</ele>
        <time>2015-04-24T09:28:47Z</time>
      </trkpt>
      <trkpt lat="45.87435" lon="2.82804">
        <ele>704.78</ele>
        <time>2015-04-24T09:28:51Z</time>
      </trkpt>
      <trkpt lat="45.87426" lon="2.82826">
        <ele>705.75</ele>
        <time>2015-04-24T09:29:06Z</time>
      </trkpt>
      <trkpt lat="45.87415" lon="2.82847">
        <ele>707.67</ele>
        <time>2015-04-24T09:29:22Z</time>
      </trkpt>
      <trkpt lat="45.87406" lon="2.82866">
        <ele>709.59</ele>
        <time>2015-04-24T09:29:38Z</time>
      </trkpt>
      <trkpt lat="45.87404" lon="2.82873">
        <ele>711.03</ele>
        <time>2015-04-24T09:29:43Z</time>
      </trkpt>
      <trkpt lat="45.87405" lon="2.82878">
        <ele>711.51</ele>
        <time>2015-04-24T09:29:47Z</time>
      </trkpt>
      <trkpt lat="45.87403" lon="2.82884">
        <ele>712.47</ele>
        <time>2015-04-24T09:29:57Z</time>
      </trkpt>
      <trkpt lat="45.87404" lon="2.82902">
        <ele>712.47</ele>
        <time>2015-04-24T09:30:12Z</time>
      </trkpt>
      <trkpt lat="45.87405" lon="2.82906">
        <ele>712.95</ele>
        <time>2015-04-24T09:30:25Z</time>
      </trkpt>
      <trkpt lat="45.87403" lon="2.82907">
        <ele>712.95</ele>
        <time>2015-04-24T09:30:40Z</time>
      </trkpt>
      <trkpt lat="45.87404" lon="2.82908">
        <ele>712.95</ele>
        <time>2015-04-24T09:30:48Z</time>
      </trkpt>
      <trkpt lat="45.87406" lon="2.82932">
        <ele>713.92</ele>
        <time>2015-04-24T09:31:03Z</time>
      </trkpt>
      <trkpt lat="45.87401" lon="2.82955">
        <ele>712.95</ele>
        <time>2015-04-24T09:31:17Z</time>
      </trkpt>
      <trkpt lat="45.87394" lon="2.82978">
        <ele>713.44</ele>
        <time>2015-04-24T09:31:31Z</time>
      </trkpt>
      <trkpt lat="45.87387" lon="2.82996">
        <ele>713.92</ele>
        <time>2015-04-24T09:31:43Z</time>
      </trkpt>
      <trkpt lat="45.87382" lon="2.83009">
        <ele>713.44</ele>
        <time>2015-04-24T09:31:59Z</time>
      </trkpt>
      <trkpt lat="45.87381" lon="2.83018">
        <ele>713.92</ele>
        <time>2015-04-24T09:32:17Z</time>
      </trkpt>
      <trkpt lat="45.87378" lon="2.83042">
        <ele>714.4</ele>
        <time>2015-04-24T09:32:33Z</time>
      </trkpt>
      <trkpt lat="45.8737" lon="2.83054">
        <ele>714.88</ele>
        <time>2015-04-24T09:32:46Z</time>
      </trkpt>
      <trkpt lat="45.87371" lon="2.83058">
        <ele>714.88</ele>
        <time>2015-04-24T09:33:00Z</time>
      </trkpt>
      <trkpt lat="45.87369" lon="2.83069">
        <ele>715.36</ele>
        <time>2015-04-24T09:33:13Z</time>
      </trkpt>
      <trkpt lat="45.87369" lon="2.83071">
        <ele>714.88</ele>
        <time>2015-04-24T09:33:28Z</time>
      </trkpt>
      <trkpt lat="45.87368" lon="2.83082">
        <ele>714.88</ele>
        <time>2015-04-24T09:33:36Z</time>
      </trkpt>
      <trkpt lat="45.87365" lon="2.83105">
        <ele>715.36</ele>
        <time>2015-04-24T09:33:52Z</time>
      </trkpt>
      <trkpt lat="45.87364" lon="2.83108">
        <ele>715.36</ele>
        <time>2015-04-24T09:33:54Z</time>
      </trkpt>
      <trkpt lat="45.87357" lon="2.83128">
        <ele>715.84</ele>
        <time>2015-04-24T09:34:10Z</time>
      </trkpt>
      <trkpt lat="45.87349" lon="2.83153">
        <ele>717.28</ele>
        <time>2015-04-24T09:34:26Z</time>
      </trkpt>
      <trkpt lat="45.87346" lon="2.83162">
        <ele>716.32</ele>
        <time>2015-04-24T09:34:43Z</time>
      </trkpt>
      <trkpt lat="45.87342" lon="2.83177">
        <ele>716.8</ele>
        <time>2015-04-24T09:34:55Z</time>
      </trkpt>
      <trkpt lat="45.87339" lon="2.83204">
        <ele>718.24</ele>
        <time>2015-04-24T09:35:13Z</time>
      </trkpt>
      <trkpt lat="45.87337" lon="2.83209">
        <ele>718.72</ele>
        <time>2015-04-24T09:35:30Z</time>
      </trkpt>
      <trkpt lat="45.8734" lon="2.83215">
        <ele>718.24</ele>
        <time>2015-04-24T09:35:43Z</time>
      </trkpt>
      <trkpt lat="45.87346" lon="2.83238">
        <ele>718.24</ele>
        <time>2015-04-24T09:36:01Z</time>
      </trkpt>
      <trkpt lat="45.87345" lon="2.83242">
        <ele>718.72</ele>
        <time>2015-04-24T09:36:22Z</time>
      </trkpt>
      <trkpt lat="45.87353" lon="2.83261">
        <ele>719.2</ele>
        <time>2015-04-24T09:36:36Z</time>
      </trkpt>
      <trkpt lat="45.87357" lon="2.83266">
        <ele>719.68</ele>
        <time>2015-04-24T09:36:50Z</time>
      </trkpt>
      <trkpt lat="45.8736" lon="2.83266">
        <ele>720.16</ele>
        <time>2015-04-24T09:36:55Z</time>
      </trkpt>
      <trkpt lat="45.87371" lon="2.83271">
        <ele>720.65</ele>
        <time>2015-04-24T09:37:11Z</time>
      </trkpt>
      <trkpt lat="45.87379" lon="2.83266">
        <ele>720.16</ele>
        <time>2015-04-24T09:37:27Z</time>
      </trkpt>
      <trkpt lat="45.87388" lon="2.8327">
        <ele>721.13</ele>
        <time>2015-04-24T09:37:45Z</time>
      </trkpt>
      <trkpt lat="45.87393" lon="2.83266">
        <ele>721.13</ele>
        <time>2015-04-24T09:37:53Z</time>
      </trkpt>
      <trkpt lat="45.87403" lon="2.83277">
        <ele>721.61</ele>
        <time>2015-04-24T09:38:10Z</time>
      </trkpt>
      <trkpt lat="45.87414" lon="2.83277">
        <ele>722.09</ele>
        <time>2015-04-24T09:38:26Z</time>
      </trkpt>
      <trkpt lat="45.87422" lon="2.83277">
        <ele>720.65</ele>
        <time>2015-04-24T09:38:40Z</time>
      </trkpt>
      <trkpt lat="45.87423" lon="2.83278">
        <ele>721.61</ele>
        <time>2015-04-24T09:38:41Z</time>
      </trkpt>
      <trkpt lat="45.87439" lon="2.83289">
        <ele>720.16</ele>
        <time>2015-04-24T09:38:57Z</time>
      </trkpt>
      <trkpt lat="45.87456" lon="2.83302">
        <ele>719.2</ele>
        <time>2015-04-24T09:39:13Z</time>
      </trkpt>
      <trkpt lat="45.87457" lon="2.83301">
        <ele>719.2</ele>
        <time>2015-04-24T09:39:14Z</time>
      </trkpt>
      <trkpt lat="45.87461" lon="2.83295">
        <ele>718.72</ele>
        <time>2015-04-24T09:39:20Z</time>
      </trkpt>
      <trkpt lat="45.87479" lon="2.83306">
        <ele>716.8</ele>
        <time>2015-04-24T09:39:35Z</time>
      </trkpt>
      <trkpt lat="45.87497" lon="2.83315">
        <ele>715.84</ele>
        <time>2015-04-24T09:39:50Z</time>
      </trkpt>
      <trkpt lat="45.87518" lon="2.83323">
        <ele>716.32</ele>
        <time>2015-04-24T09:40:07Z</time>
      </trkpt>
      <trkpt lat="45.87535" lon="2.83336">
        <ele>717.28</ele>
        <time>2015-04-24T09:40:23Z</time>
      </trkpt>
      <trkpt lat="45.87555" lon="2.83353">
        <ele>719.2</ele>
        <time>2015-04-24T09:40:41Z</time>
      </trkpt>
      <trkpt lat="45.87569" lon="2.83369">
        <ele>720.65</ele>
        <time>2015-04-24T09:40:56Z</time>
      </trkpt>
      <trkpt lat="45.87586" lon="2.83388">
        <ele>722.09</ele>
        <time>2015-04-24T09:41:13Z</time>
      </trkpt>
      <trkpt lat="45.87584" lon="2.83395">
        <ele>722.57</ele>
        <time>2015-04-24T09:41:23Z</time>
      </trkpt>
      <trkpt lat="45.87587" lon="2.83396">
        <ele>723.05</ele>
        <time>2015-04-24T09:41:31Z</time>
      </trkpt>
      <trkpt lat="45.87603" lon="2.83402">
        <ele>724.49</ele>
        <time>2015-04-24T09:41:47Z</time>
      </trkpt>
      <trkpt lat="45.87615" lon="2.83404">
        <ele>726.41</ele>
        <time>2015-04-24T09:42:00Z</time>
      </trkpt>
      <trkpt lat="45.87619" lon="2.83406">
        <ele>726.89</ele>
        <time>2015-04-24T09:42:15Z</time>
      </trkpt>
      <trkpt lat="45.87636" lon="2.834">
        <ele>729.3</ele>
        <time>2015-04-24T09:42:31Z</time>
      </trkpt>
      <trkpt lat="45.87643" lon="2.83403">
        <ele>728.82</ele>
        <time>2015-04-24T09:42:37Z</time>
      </trkpt>
      <trkpt lat="45.87646" lon="2.83413">
        <ele>730.26</ele>
        <time>2015-04-24T09:42:53Z</time>
      </trkpt>
      <trkpt lat="45.87648" lon="2.8342">
        <ele>730.26</ele>
        <time>2015-04-24T09:43:24Z</time>
      </trkpt>
      <trkpt lat="45.8766" lon="2.8342">
        <ele>731.22</ele>
        <time>2015-04-24T09:43:44Z</time>
      </trkpt>
      <trkpt lat="45.87665" lon="2.83436">
        <ele>732.18</ele>
        <time>2015-04-24T09:44:00Z</time>
      </trkpt>
      <trkpt lat="45.87666" lon="2.83437">
        <ele>732.66</ele>
        <time>2015-04-24T09:44:17Z</time>
      </trkpt>
      <trkpt lat="45.87672" lon="2.83451">
        <ele>733.62</ele>
        <time>2015-04-24T09:44:30Z</time>
      </trkpt>
      <trkpt lat="45.87688" lon="2.8347">
        <ele>734.58</ele>
        <time>2015-04-24T09:44:47Z</time>
      </trkpt>
      <trkpt lat="45.87705" lon="2.83487">
        <ele>735.55</ele>
        <time>2015-04-24T09:45:02Z</time>
      </trkpt>
      <trkpt lat="45.87722" lon="2.83505">
        <ele>736.03</ele>
        <time>2015-04-24T09:45:18Z</time>
      </trkpt>
      <trkpt lat="45.87739" lon="2.83522">
        <ele>736.51</ele>
        <time>2015-04-24T09:45:34Z</time>
      </trkpt>
      <trkpt lat="45.87761" lon="2.83539">
        <ele>736.03</ele>
        <time>2015-04-24T09:45:53Z</time>
      </trkpt>
      <trkpt lat="45.87781" lon="2.83554">
        <ele>735.07</ele>
        <time>2015-04-24T09:46:12Z</time>
      </trkpt>
      <trkpt lat="45.87802" lon="2.83567">
        <ele>735.07</ele>
        <time>2015-04-24T09:46:30Z</time>
      </trkpt>
      <trkpt lat="45.87827" lon="2.83581">
        <ele>736.03</ele>
        <time>2015-04-24T09:46:52Z</time>
      </trkpt>
      <trkpt lat="45.87849" lon="2.83594">
        <ele>736.03</ele>
        <time>2015-04-24T09:47:11Z</time>
      </trkpt>
      <trkpt lat="45.87871" lon="2.83604">
        <ele>736.03</ele>
        <time>2015-04-24T09:47:30Z</time>
      </trkpt>
      <trkpt lat="45.87891" lon="2.83613">
        <ele>736.03</ele>
        <time>2015-04-24T09:47:48Z</time>
      </trkpt>
      <trkpt lat="45.8791" lon="2.83625">
        <ele>735.07</ele>
        <time>2015-04-24T09:48:04Z</time>
      </trkpt>
      <trkpt lat="45.87933" lon="2.83636">
        <ele>734.58</ele>
        <time>2015-04-24T09:48:23Z</time>
      </trkpt>
      <trkpt lat="45.87953" lon="2.83644">
        <ele>734.1</ele>
        <time>2015-04-24T09:48:40Z</time>
      </trkpt>
      <trkpt lat="45.87975" lon="2.83655">
        <ele>735.07</ele>
        <time>2015-04-24T09:48:57Z</time>
      </trkpt>
      <trkpt lat="45.87993" lon="2.83667">
        <ele>734.58</ele>
        <time>2015-04-24T09:49:12Z</time>
      </trkpt>
      <trkpt lat="45.8801" lon="2.83678">
        <ele>734.58</ele>
        <time>2015-04-24T09:49:26Z</time>
      </trkpt>
      <trkpt lat="45.88029" lon="2.83686">
        <ele>735.07</ele>
        <time>2015-04-24T09:49:43Z</time>
      </trkpt>
      <trkpt lat="45.88038" lon="2.83694">
        <ele>735.07</ele>
        <time>2015-04-24T09:49:59Z</time>
      </trkpt>
      <trkpt lat="45.88042" lon="2.83698">
        <ele>735.07</ele>
        <time>2015-04-24T09:50:18Z</time>
      </trkpt>
      <trkpt lat="45.88043" lon="2.83695">
        <ele>735.07</ele>
        <time>2015-04-24T09:50:30Z</time>
      </trkpt>
      <trkpt lat="45.88043" lon="2.83694">
        <ele>735.07</ele>
        <time>2015-04-24T09:51:06Z</time>
      </trkpt>
      <trkpt lat="45.88037" lon="2.837">
        <ele>735.07</ele>
        <time>2015-04-24T09:51:28Z</time>
      </trkpt>
      <trkpt lat="45.88028" lon="2.83707">
        <ele>732.66</ele>
        <time>2015-04-24T09:51:53Z</time>
      </trkpt>
      <trkpt lat="45.88023" lon="2.83712">
        <ele>731.22</ele>
        <time>2015-04-24T09:52:07Z</time>
      </trkpt>
      <trkpt lat="45.88014" lon="2.83705">
        <ele>731.22</ele>
        <time>2015-04-24T09:52:41Z</time>
      </trkpt>
      <trkpt lat="45.88018" lon="2.8371">
        <ele>729.78</ele>
        <time>2015-04-24T09:53:13Z</time>
      </trkpt>
      <trkpt lat="45.88025" lon="2.83714">
        <ele>730.26</ele>
        <time>2015-04-24T09:53:31Z</time>
      </trkpt>
      <trkpt lat="45.88028" lon="2.83723">
        <ele>729.3</ele>
        <time>2015-04-24T09:53:37Z</time>
      </trkpt>
      <trkpt lat="45.88034" lon="2.83737">
        <ele>728.34</ele>
        <time>2015-04-24T09:53:52Z</time>
      </trkpt>
      <trkpt lat="45.88043" lon="2.83757">
        <ele>726.41</ele>
        <time>2015-04-24T09:54:08Z</time>
      </trkpt>
      <trkpt lat="45.88054" lon="2.83776">
        <ele>725.45</ele>
        <time>2015-04-24T09:54:23Z</time>
      </trkpt>
      <trkpt lat="45.88056" lon="2.83799">
        <ele>722.57</ele>
        <time>2015-04-24T09:54:39Z</time>
      </trkpt>
      <trkpt lat="45.88061" lon="2.83816">
        <ele>719.68</ele>
        <time>2015-04-24T09:54:55Z</time>
      </trkpt>
      <trkpt lat="45.88065" lon="2.83835">
        <ele>716.8</ele>
        <time>2015-04-24T09:55:09Z</time>
      </trkpt>
      <trkpt lat="45.88073" lon="2.83857">
        <ele>713.92</ele>
        <time>2015-04-24T09:55:25Z</time>
      </trkpt>
      <trkpt lat="45.8807" lon="2.8387">
        <ele>713.44</ele>
        <time>2015-04-24T09:55:45Z</time>
      </trkpt>
      <trkpt lat="45.88068" lon="2.83884">
        <ele>712.95</ele>
        <time>2015-04-24T09:56:13Z</time>
      </trkpt>
      <trkpt lat="45.8808" lon="2.83892">
        <ele>712.47</ele>
        <time>2015-04-24T09:56:28Z</time>
      </trkpt>
      <trkpt lat="45.88085" lon="2.83918">
        <ele>711.99</ele>
        <time>2015-04-24T09:56:46Z</time>
      </trkpt>
      <trkpt lat="45.88082" lon="2.8394">
        <ele>711.99</ele>
        <time>2015-04-24T09:57:06Z</time>
      </trkpt>
      <trkpt lat="45.88081" lon="2.83957">
        <ele>711.51</ele>
        <time>2015-04-24T09:57:16Z</time>
      </trkpt>
      <trkpt lat="45.88077" lon="2.83971">
        <ele>712.47</ele>
        <time>2015-04-24T09:57:34Z</time>
      </trkpt>
      <trkpt lat="45.88073" lon="2.83984">
        <ele>711.51</ele>
        <time>2015-04-24T09:57:50Z</time>
      </trkpt>
      <trkpt lat="45.88068" lon="2.84005">
        <ele>709.59</ele>
        <time>2015-04-24T09:58:04Z</time>
      </trkpt>
      <trkpt lat="45.88067" lon="2.8402">
        <ele>707.19</ele>
        <time>2015-04-24T09:58:18Z</time>
      </trkpt>
      <trkpt lat="45.88068" lon="2.84037">
        <ele>705.26</ele>
        <time>2015-04-24T09:58:33Z</time>
      </trkpt>
      <trkpt lat="45.88071" lon="2.84052">
        <ele>701.9</ele>
        <time>2015-04-24T09:58:46Z</time>
      </trkpt>
      <trkpt lat="45.88067" lon="2.84074">
        <ele>699.5</ele>
        <time>2015-04-24T09:59:00Z</time>
      </trkpt>
      <trkpt lat="45.88063" lon="2.8408">
        <ele>698.05</ele>
        <time>2015-04-24T09:59:15Z</time>
      </trkpt>
      <trkpt lat="45.88067" lon="2.84089">
        <ele>696.61</ele>
        <time>2015-04-24T09:59:35Z</time>
      </trkpt>
      <trkpt lat="45.88074" lon="2.84109">
        <ele>693.73</ele>
        <time>2015-04-24T09:59:51Z</time>
      </trkpt>
      <trkpt lat="45.88075" lon="2.84116">
        <ele>691.81</ele>
        <time>2015-04-24T10:00:11Z</time>
      </trkpt>
      <trkpt lat="45.88079" lon="2.84137">
        <ele>688.44</ele>
        <time>2015-04-24T10:00:24Z</time>
      </trkpt>
      <trkpt lat="45.88076" lon="2.84143">
        <ele>686.52</ele>
        <time>2015-04-24T10:00:37Z</time>
      </trkpt>
      <trkpt lat="45.88084" lon="2.8415">
        <ele>684.12</ele>
        <time>2015-04-24T10:00:53Z</time>
      </trkpt>
      <trkpt lat="45.8809" lon="2.84164">
        <ele>681.23</ele>
        <time>2015-04-24T10:01:08Z</time>
      </trkpt>
      <trkpt lat="45.88096" lon="2.84173">
        <ele>678.35</ele>
        <time>2015-04-24T10:01:21Z</time>
      </trkpt>
      <trkpt lat="45.88104" lon="2.84183">
        <ele>674.98</ele>
        <time>2015-04-24T10:01:35Z</time>
      </trkpt>
      <trkpt lat="45.8811" lon="2.84198">
        <ele>671.62</ele>
        <time>2015-04-24T10:01:50Z</time>
      </trkpt>
      <trkpt lat="45.88111" lon="2.84206">
        <ele>671.62</ele>
        <time>2015-04-24T10:02:06Z</time>
      </trkpt>
      <trkpt lat="45.88105" lon="2.84215">
        <ele>671.14</ele>
        <time>2015-04-24T10:02:30Z</time>
      </trkpt>
      <trkpt lat="45.881" lon="2.84213">
        <ele>669.7</ele>
        <time>2015-04-24T10:02:44Z</time>
      </trkpt>
      <trkpt lat="45.88098" lon="2.84218">
        <ele>671.14</ele>
        <time>2015-04-24T10:03:00Z</time>
      </trkpt>
      <trkpt lat="45.88091" lon="2.84208">
        <ele>670.66</ele>
        <time>2015-04-24T10:03:20Z</time>
      </trkpt>
      <trkpt lat="45.88094" lon="2.84214">
        <ele>670.66</ele>
        <time>2015-04-24T10:03:42Z</time>
      </trkpt>
      <trkpt lat="45.88088" lon="2.84226">
        <ele>671.62</ele>
        <time>2015-04-24T10:04:02Z</time>
      </trkpt>
      <trkpt lat="45.88101" lon="2.84228">
        <ele>670.66</ele>
        <time>2015-04-24T10:04:16Z</time>
      </trkpt>
      <trkpt lat="45.88114" lon="2.84231">
        <ele>672.58</ele>
        <time>2015-04-24T10:04:30Z</time>
      </trkpt>
      <trkpt lat="45.88121" lon="2.84241">
        <ele>673.54</ele>
        <time>2015-04-24T10:04:48Z</time>
      </trkpt>
      <trkpt lat="45.88128" lon="2.84247">
        <ele>676.42</ele>
        <time>2015-04-24T10:05:02Z</time>
      </trkpt>
      <trkpt lat="45.8815" lon="2.84273">
        <ele>678.83</ele>
        <time>2015-04-24T10:05:17Z</time>
      </trkpt>
      <trkpt lat="45.88153" lon="2.84291">
        <ele>681.23</ele>
        <time>2015-04-24T10:05:31Z</time>
      </trkpt>
      <trkpt lat="45.88155" lon="2.84303">
        <ele>683.63</ele>
        <time>2015-04-24T10:05:47Z</time>
      </trkpt>
      <trkpt lat="45.88155" lon="2.84312">
        <ele>686.04</ele>
        <time>2015-04-24T10:06:04Z</time>
      </trkpt>
      <trkpt lat="45.88144" lon="2.84311">
        <ele>685.56</ele>
        <time>2015-04-24T10:06:35Z</time>
      </trkpt>
      <trkpt lat="45.88147" lon="2.84312">
        <ele>685.56</ele>
        <time>2015-04-24T10:07:06Z</time>
      </trkpt>
      <trkpt lat="45.88147" lon="2.84331">
        <ele>687.96</ele>
        <time>2015-04-24T10:07:22Z</time>
      </trkpt>
      <trkpt lat="45.88142" lon="2.84347">
        <ele>690.84</ele>
        <time>2015-04-24T10:07:37Z</time>
      </trkpt>
      <trkpt lat="45.88138" lon="2.84358">
        <ele>692.77</ele>
        <time>2015-04-24T10:07:52Z</time>
      </trkpt>
      <trkpt lat="45.88128" lon="2.84369">
        <ele>696.13</ele>
        <time>2015-04-24T10:08:07Z</time>
      </trkpt>
      <trkpt lat="45.88126" lon="2.8436">
        <ele>696.13</ele>
        <time>2015-04-24T10:08:26Z</time>
      </trkpt>
      <trkpt lat="45.88117" lon="2.84364">
        <ele>696.13</ele>
        <time>2015-04-24T10:08:51Z</time>
      </trkpt>
      <trkpt lat="45.88122" lon="2.84378">
        <ele>696.13</ele>
        <time>2015-04-24T10:09:15Z</time>
      </trkpt>
      <trkpt lat="45.88125" lon="2.84383">
        <ele>697.57</ele>
        <time>2015-04-24T10:09:35Z</time>
      </trkpt>
      <trkpt lat="45.88125" lon="2.84392">
        <ele>699.5</ele>
        <time>2015-04-24T10:09:47Z</time>
      </trkpt>
      <trkpt lat="45.88126" lon="2.84406">
        <ele>702.86</ele>
        <time>2015-04-24T10:10:01Z</time>
      </trkpt>
      <trkpt lat="45.88128" lon="2.84422">
        <ele>704.78</ele>
        <time>2015-04-24T10:10:16Z</time>
      </trkpt>
      <trkpt lat="45.88129" lon="2.84439">
        <ele>708.15</ele>
        <time>2015-04-24T10:10:31Z</time>
      </trkpt>
      <trkpt lat="45.88131" lon="2.84455">
        <ele>709.59</ele>
        <time>2015-04-24T10:10:46Z</time>
      </trkpt>
      <trkpt lat="45.88128" lon="2.84471">
        <ele>711.51</ele>
        <time>2015-04-24T10:11:00Z</time>
      </trkpt>
      <trkpt lat="45.88122" lon="2.84471">
        <ele>711.51</ele>
        <time>2015-04-24T10:11:27Z</time>
      </trkpt>
      <trkpt lat="45.8812" lon="2.84475">
        <ele>711.99</ele>
        <time>2015-04-24T10:11:56Z</time>
      </trkpt>
      <trkpt lat="45.88122" lon="2.84485">
        <ele>712.95</ele>
        <time>2015-04-24T10:12:15Z</time>
      </trkpt>
      <trkpt lat="45.88123" lon="2.8449">
        <ele>713.92</ele>
        <time>2015-04-24T10:12:32Z</time>
      </trkpt>
      <trkpt lat="45.88128" lon="2.84497">
        <ele>715.84</ele>
        <time>2015-04-24T10:12:51Z</time>
      </trkpt>
      <trkpt lat="45.88128" lon="2.84512">
        <ele>718.72</ele>
        <time>2015-04-24T10:13:05Z</time>
      </trkpt>
      <trkpt lat="45.88126" lon="2.84524">
        <ele>721.13</ele>
        <time>2015-04-24T10:13:18Z</time>
      </trkpt>
      <trkpt lat="45.88119" lon="2.8454">
        <ele>724.49</ele>
        <time>2015-04-24T10:13:33Z</time>
      </trkpt>
      <trkpt lat="45.88107" lon="2.84543">
        <ele>724.97</ele>
        <time>2015-04-24T10:13:52Z</time>
      </trkpt>
      <trkpt lat="45.88114" lon="2.84533">
        <ele>724.97</ele>
        <time>2015-04-24T10:14:15Z</time>
      </trkpt>
      <trkpt lat="45.88111" lon="2.84539">
        <ele>724.97</ele>
        <time>2015-04-24T10:14:45Z</time>
      </trkpt>
      <trkpt lat="45.88101" lon="2.84551">
        <ele>728.34</ele>
        <time>2015-04-24T10:14:57Z</time>
      </trkpt>
      <trkpt lat="45.88101" lon="2.84552">
        <ele>728.34</ele>
        <time>2015-04-24T10:14:58Z</time>
      </trkpt>
      <trkpt lat="45.88086" lon="2.84554">
        <ele>730.74</ele>
        <time>2015-04-24T10:15:15Z</time>
      </trkpt>
      <trkpt lat="45.88073" lon="2.84545">
        <ele>732.18</ele>
        <time>2015-04-24T10:15:28Z</time>
      </trkpt>
      <trkpt lat="45.88063" lon="2.84536">
        <ele>734.1</ele>
        <time>2015-04-24T10:15:43Z</time>
      </trkpt>
      <trkpt lat="45.88056" lon="2.84532">
        <ele>736.51</ele>
        <time>2015-04-24T10:15:50Z</time>
      </trkpt>
      <trkpt lat="45.88049" lon="2.84526">
        <ele>736.51</ele>
        <time>2015-04-24T10:15:59Z</time>
      </trkpt>
      <trkpt lat="45.8804" lon="2.84518">
        <ele>738.43</ele>
        <time>2015-04-24T10:16:15Z</time>
      </trkpt>
      <trkpt lat="45.88038" lon="2.84522">
        <ele>739.39</ele>
        <time>2015-04-24T10:16:29Z</time>
      </trkpt>
      <trkpt lat="45.88042" lon="2.84501">
        <ele>738.43</ele>
        <time>2015-04-24T10:16:45Z</time>
      </trkpt>
      <trkpt lat="45.88034" lon="2.84492">
        <ele>739.87</ele>
        <time>2015-04-24T10:17:00Z</time>
      </trkpt>
      <trkpt lat="45.8803" lon="2.84483">
        <ele>739.87</ele>
        <time>2015-04-24T10:17:26Z</time>
      </trkpt>
      <trkpt lat="45.88018" lon="2.84474">
        <ele>742.28</ele>
        <time>2015-04-24T10:17:41Z</time>
      </trkpt>
      <trkpt lat="45.88006" lon="2.84464">
        <ele>745.16</ele>
        <time>2015-04-24T10:17:57Z</time>
      </trkpt>
      <trkpt lat="45.87995" lon="2.84452">
        <ele>746.6</ele>
        <time>2015-04-24T10:18:13Z</time>
      </trkpt>
      <trkpt lat="45.87982" lon="2.84445">
        <ele>749</ele>
        <time>2015-04-24T10:18:29Z</time>
      </trkpt>
      <trkpt lat="45.87983" lon="2.84444">
        <ele>749</ele>
        <time>2015-04-24T10:18:45Z</time>
      </trkpt>
      <trkpt lat="45.87977" lon="2.84443">
        <ele>749.49</ele>
        <time>2015-04-24T10:19:02Z</time>
      </trkpt>
      <trkpt lat="45.87966" lon="2.84448">
        <ele>749.97</ele>
        <time>2015-04-24T10:19:17Z</time>
      </trkpt>
      <trkpt lat="45.87945" lon="2.84448">
        <ele>752.85</ele>
        <time>2015-04-24T10:19:38Z</time>
      </trkpt>
      <trkpt lat="45.8793" lon="2.8445">
        <ele>754.77</ele>
        <time>2015-04-24T10:19:54Z</time>
      </trkpt>
      <trkpt lat="45.87912" lon="2.84454">
        <ele>756.21</ele>
        <time>2015-04-24T10:20:12Z</time>
      </trkpt>
      <trkpt lat="45.87905" lon="2.84455">
        <ele>757.18</ele>
        <time>2015-04-24T10:20:32Z</time>
      </trkpt>
      <trkpt lat="45.87907" lon="2.84457">
        <ele>757.18</ele>
        <time>2015-04-24T10:20:55Z</time>
      </trkpt>
      <trkpt lat="45.87906" lon="2.84451">
        <ele>756.69</ele>
        <time>2015-04-24T10:21:25Z</time>
      </trkpt>
      <trkpt lat="45.87911" lon="2.84444">
        <ele>757.18</ele>
        <time>2015-04-24T10:21:57Z</time>
      </trkpt>
      <trkpt lat="45.87909" lon="2.84461">
        <ele>757.66</ele>
        <time>2015-04-24T10:22:14Z</time>
      </trkpt>
      <trkpt lat="45.87907" lon="2.84462">
        <ele>757.66</ele>
        <time>2015-04-24T10:22:35Z</time>
      </trkpt>
      <trkpt lat="45.87909" lon="2.84456">
        <ele>758.14</ele>
        <time>2015-04-24T10:23:07Z</time>
      </trkpt>
      <trkpt lat="45.87897" lon="2.84461">
        <ele>759.58</ele>
        <time>2015-04-24T10:23:26Z</time>
      </trkpt>
      <trkpt lat="45.87893" lon="2.84463">
        <ele>760.54</ele>
        <time>2015-04-24T10:23:30Z</time>
      </trkpt>
      <trkpt lat="45.87891" lon="2.84466">
        <ele>760.54</ele>
        <time>2015-04-24T10:23:33Z</time>
      </trkpt>
      <trkpt lat="45.87878" lon="2.84472">
        <ele>762.46</ele>
        <time>2015-04-24T10:23:47Z</time>
      </trkpt>
      <trkpt lat="45.87874" lon="2.84474">
        <ele>762.94</ele>
        <time>2015-04-24T10:23:51Z</time>
      </trkpt>
      <trkpt lat="45.87872" lon="2.84477">
        <ele>763.9</ele>
        <time>2015-04-24T10:23:54Z</time>
      </trkpt>
      <trkpt lat="45.8787" lon="2.84478">
        <ele>764.39</ele>
        <time>2015-04-24T10:23:57Z</time>
      </trkpt>
      <trkpt lat="45.87867" lon="2.84481">
        <ele>765.35</ele>
        <time>2015-04-24T10:24:00Z</time>
      </trkpt>
      <trkpt lat="45.87862" lon="2.84483">
        <ele>766.79</ele>
        <time>2015-04-24T10:24:07Z</time>
      </trkpt>
      <trkpt lat="45.87855" lon="2.84483">
        <ele>767.27</ele>
        <time>2015-04-24T10:24:12Z</time>
      </trkpt>
      <trkpt lat="45.87846" lon="2.84479">
        <ele>768.71</ele>
        <time>2015-04-24T10:24:24Z</time>
      </trkpt>
      <trkpt lat="45.87841" lon="2.8448">
        <ele>770.63</ele>
        <time>2015-04-24T10:24:29Z</time>
      </trkpt>
      <trkpt lat="45.8783" lon="2.84476">
        <ele>772.08</ele>
        <time>2015-04-24T10:24:42Z</time>
      </trkpt>
      <trkpt lat="45.87833" lon="2.84463">
        <ele>773.04</ele>
        <time>2015-04-24T10:24:49Z</time>
      </trkpt>
      <trkpt lat="45.87834" lon="2.84462">
        <ele>773.04</ele>
        <time>2015-04-24T10:25:06Z</time>
      </trkpt>
      <trkpt lat="45.87837" lon="2.84451">
        <ele>772.56</ele>
        <time>2015-04-24T10:25:22Z</time>
      </trkpt>
      <trkpt lat="45.8784" lon="2.84433">
        <ele>772.08</ele>
        <time>2015-04-24T10:25:36Z</time>
      </trkpt>
      <trkpt lat="45.8784" lon="2.84435">
        <ele>772.56</ele>
        <time>2015-04-24T10:25:45Z</time>
      </trkpt>
      <trkpt lat="45.87841" lon="2.84432">
        <ele>772.56</ele>
        <time>2015-04-24T10:25:47Z</time>
      </trkpt>
      <trkpt lat="45.87846" lon="2.84411">
        <ele>771.6</ele>
        <time>2015-04-24T10:26:02Z</time>
      </trkpt>
      <trkpt lat="45.8785" lon="2.84397">
        <ele>771.11</ele>
        <time>2015-04-24T10:26:17Z</time>
      </trkpt>
      <trkpt lat="45.87852" lon="2.84401">
        <ele>770.63</ele>
        <time>2015-04-24T10:26:30Z</time>
      </trkpt>
      <trkpt lat="45.87851" lon="2.84402">
        <ele>770.15</ele>
        <time>2015-04-24T10:26:32Z</time>
      </trkpt>
      <trkpt lat="45.87851" lon="2.84408">
        <ele>770.15</ele>
        <time>2015-04-24T10:26:47Z</time>
      </trkpt>
      <trkpt lat="45.87851" lon="2.84406">
        <ele>770.15</ele>
        <time>2015-04-24T10:27:04Z</time>
      </trkpt>
      <trkpt lat="45.87851" lon="2.84408">
        <ele>769.67</ele>
        <time>2015-04-24T10:27:25Z</time>
      </trkpt>
      <trkpt lat="45.87851" lon="2.84404">
        <ele>769.19</ele>
        <time>2015-04-24T10:27:56Z</time>
      </trkpt>
      <trkpt lat="45.87849" lon="2.84402">
        <ele>769.19</ele>
        <time>2015-04-24T10:28:28Z</time>
      </trkpt>
      <trkpt lat="45.87851" lon="2.84403">
        <ele>769.19</ele>
        <time>2015-04-24T10:29:02Z</time>
      </trkpt>
      <trkpt lat="45.87851" lon="2.84402">
        <ele>770.15</ele>
        <time>2015-04-24T10:29:06Z</time>
      </trkpt>
      <trkpt lat="45.87851" lon="2.844">
        <ele>770.63</ele>
        <time>2015-04-24T10:29:08Z</time>
      </trkpt>
      <trkpt lat="45.8785" lon="2.84397">
        <ele>770.15</ele>
        <time>2015-04-24T10:29:10Z</time>
      </trkpt>
      <trkpt lat="45.8785" lon="2.84396">
        <ele>769.67</ele>
        <time>2015-04-24T10:29:24Z</time>
      </trkpt>
      <trkpt lat="45.87849" lon="2.84397">
        <ele>769.67</ele>
        <time>2015-04-24T10:30:02Z</time>
      </trkpt>
      <trkpt lat="45.87849" lon="2.84397">
        <ele>769.67</ele>
        <time>2015-04-24T10:30:43Z</time>
      </trkpt>
      <trkpt lat="45.8785" lon="2.84396">
        <ele>769.19</ele>
        <time>2015-04-24T10:31:24Z</time>
      </trkpt>
      <trkpt lat="45.8785" lon="2.84397">
        <ele>769.67</ele>
        <time>2015-04-24T10:32:05Z</time>
      </trkpt>
      <trkpt lat="45.8785" lon="2.84396">
        <ele>769.67</ele>
        <time>2015-04-24T10:32:44Z</time>
      </trkpt>
      <trkpt lat="45.87849" lon="2.84397">
        <ele>769.67</ele>
        <time>2015-04-24T10:33:31Z</time>
      </trkpt>
      <trkpt lat="45.87849" lon="2.84397">
        <ele>769.67</ele>
        <time>2015-04-24T10:34:14Z</time>
      </trkpt>
      <trkpt lat="45.87849" lon="2.84397">
        <ele>770.15</ele>
        <time>2015-04-24T10:35:05Z</time>
      </trkpt>
      <trkpt lat="45.8785" lon="2.84397">
        <ele>769.67</ele>
        <time>2015-04-24T10:35:53Z</time>
      </trkpt>
      <trkpt lat="45.8785" lon="2.84396">
        <ele>769.67</ele>
        <time>2015-04-24T10:36:38Z</time>
      </trkpt>
      <trkpt lat="45.8785" lon="2.84397">
        <ele>770.15</ele>
        <time>2015-04-24T10:37:15Z</time>
      </trkpt>
      <trkpt lat="45.87849" lon="2.84396">
        <ele>769.67</ele>
        <time>2015-04-24T10:38:00Z</time>
      </trkpt>
      <trkpt lat="45.8785" lon="2.84397">
        <ele>770.15</ele>
        <time>2015-04-24T10:38:42Z</time>
      </trkpt>
      <trkpt lat="45.8785" lon="2.84397">
        <ele>770.15</ele>
        <time>2015-04-24T10:39:23Z</time>
      </trkpt>
      <trkpt lat="45.8785" lon="2.84397">
        <ele>770.15</ele>
        <time>2015-04-24T10:40:10Z</time>
      </trkpt>
      <trkpt lat="45.8785" lon="2.84398">
        <ele>770.63</ele>
        <time>2015-04-24T10:40:50Z</time>
      </trkpt>
      <trkpt lat="45.8785" lon="2.84397">
        <ele>770.63</ele>
        <time>2015-04-24T10:41:35Z</time>
      </trkpt>
      <trkpt lat="45.8785" lon="2.84397">
        <ele>770.63</ele>
        <time>2015-04-24T10:42:25Z</time>
      </trkpt>
      <trkpt lat="45.87851" lon="2.84398">
        <ele>770.63</ele>
        <time>2015-04-24T10:43:06Z</time>
      </trkpt>
      <trkpt lat="45.8785" lon="2.84398">
        <ele>770.63</ele>
        <time>2015-04-24T10:43:48Z</time>
      </trkpt>
      <trkpt lat="45.87849" lon="2.84397">
        <ele>770.63</ele>
        <time>2015-04-24T10:44:31Z</time>
      </trkpt>
      <trkpt lat="45.8785" lon="2.84398">
        <ele>770.63</ele>
        <time>2015-04-24T10:45:14Z</time>
      </trkpt>
      <trkpt lat="45.87849" lon="2.84398">
        <ele>770.63</ele>
        <time>2015-04-24T10:45:54Z</time>
      </trkpt>
      <trkpt lat="45.8785" lon="2.84398">
        <ele>771.11</ele>
        <time>2015-04-24T10:46:32Z</time>
      </trkpt>
      <trkpt lat="45.87849" lon="2.84397">
        <ele>771.11</ele>
        <time>2015-04-24T10:47:19Z</time>
      </trkpt>
      <trkpt lat="45.8785" lon="2.84397">
        <ele>771.11</ele>
        <time>2015-04-24T10:48:00Z</time>
      </trkpt>
      <trkpt lat="45.87849" lon="2.84396">
        <ele>771.11</ele>
        <time>2015-04-24T10:48:37Z</time>
      </trkpt>
      <trkpt lat="45.87849" lon="2.84397">
        <ele>770.63</ele>
        <time>2015-04-24T10:49:19Z</time>
      </trkpt>
      <trkpt lat="45.87849" lon="2.84398">
        <ele>770.63</ele>
        <time>2015-04-24T10:49:55Z</time>
      </trkpt>
      <trkpt lat="45.8785" lon="2.84397">
        <ele>771.11</ele>
        <time>2015-04-24T10:50:39Z</time>
      </trkpt>
      <trkpt lat="45.8785" lon="2.84398">
        <ele>770.63</ele>
        <time>2015-04-24T10:51:20Z</time>
      </trkpt>
      <trkpt lat="45.8785" lon="2.84397">
        <ele>770.63</ele>
        <time>2015-04-24T10:52:03Z</time>
      </trkpt>
      <trkpt lat="45.8785" lon="2.84398">
        <ele>771.11</ele>
        <time>2015-04-24T10:52:44Z</time>
      </trkpt>
      <trkpt lat="45.8785" lon="2.84397">
        <ele>771.11</ele>
        <time>2015-04-24T10:53:25Z</time>
      </trkpt>
      <trkpt lat="45.8785" lon="2.84397">
        <ele>771.11</ele>
        <time>2015-04-24T10:54:11Z</time>
      </trkpt>
      <trkpt lat="45.8785" lon="2.84398">
        <ele>770.63</ele>
        <time>2015-04-24T10:54:51Z</time>
      </trkpt>
      <trkpt lat="45.8785" lon="2.84398">
        <ele>771.11</ele>
        <time>2015-04-24T10:55:35Z</time>
      </trkpt>
      <trkpt lat="45.8785" lon="2.84398">
        <ele>770.63</ele>
        <time>2015-04-24T10:56:14Z</time>
      </trkpt>
      <trkpt lat="45.8785" lon="2.84398">
        <ele>770.63</ele>
        <time>2015-04-24T10:57:02Z</time>
      </trkpt>
      <trkpt lat="45.8785" lon="2.84398">
        <ele>770.63</ele>
        <time>2015-04-24T10:57:46Z</time>
      </trkpt>
      <trkpt lat="45.8785" lon="2.84398">
        <ele>770.63</ele>
        <time>2015-04-24T10:58:32Z</time>
      </trkpt>
      <trkpt lat="45.8785" lon="2.84398">
        <ele>770.15</ele>
        <time>2015-04-24T10:59:13Z</time>
      </trkpt>
      <trkpt lat="45.87849" lon="2.84398">
        <ele>770.63</ele>
        <time>2015-04-24T10:59:52Z</time>
      </trkpt>
      <trkpt lat="45.87849" lon="2.84397">
        <ele>770.63</ele>
        <time>2015-04-24T11:00:31Z</time>
      </trkpt>
      <trkpt lat="45.87849" lon="2.84397">
        <ele>770.63</ele>
        <time>2015-04-24T11:01:19Z</time>
      </trkpt>
      <trkpt lat="45.87849" lon="2.84398">
        <ele>770.63</ele>
        <time>2015-04-24T11:01:57Z</time>
      </trkpt>
      <trkpt lat="45.87849" lon="2.84396">
        <ele>770.15</ele>
        <time>2015-04-24T11:02:33Z</time>
      </trkpt>
      <trkpt lat="45.8785" lon="2.84396">
        <ele>770.63</ele>
        <time>2015-04-24T11:03:09Z</time>
      </trkpt>
      <trkpt lat="45.87849" lon="2.84398">
        <ele>770.63</ele>
        <time>2015-04-24T11:03:54Z</time>
      </trkpt>
      <trkpt lat="45.8785" lon="2.84398">
        <ele>770.15</ele>
        <time>2015-04-24T11:04:32Z</time>
      </trkpt>
      <trkpt lat="45.87849" lon="2.84397">
        <ele>770.63</ele>
        <time>2015-04-24T11:05:15Z</time>
      </trkpt>
      <trkpt lat="45.87849" lon="2.84398">
        <ele>770.15</ele>
        <time>2015-04-24T11:05:49Z</time>
      </trkpt>
      <trkpt lat="45.87849" lon="2.84398">
        <ele>770.15</ele>
        <time>2015-04-24T11:06:36Z</time>
      </trkpt>
      <trkpt lat="45.87849" lon="2.84398">
        <ele>770.15</ele>
        <time>2015-04-24T11:07:09Z</time>
      </trkpt>
      <trkpt lat="45.87849" lon="2.84398">
        <ele>769.67</ele>
        <time>2015-04-24T11:07:51Z</time>
      </trkpt>
      <trkpt lat="45.87848" lon="2.84398">
        <ele>770.15</ele>
        <time>2015-04-24T11:08:47Z</time>
      </trkpt>
      <trkpt lat="45.87849" lon="2.84398">
        <ele>770.15</ele>
        <time>2015-04-24T11:09:32Z</time>
      </trkpt>
      <trkpt lat="45.87848" lon="2.84399">
        <ele>769.67</ele>
        <time>2015-04-24T11:10:21Z</time>
      </trkpt>
      <trkpt lat="45.87849" lon="2.84399">
        <ele>770.15</ele>
        <time>2015-04-24T11:11:04Z</time>
      </trkpt>
      <trkpt lat="45.87849" lon="2.84399">
        <ele>769.67</ele>
        <time>2015-04-24T11:11:54Z</time>
      </trkpt>
      <trkpt lat="45.87848" lon="2.844">
        <ele>769.67</ele>
        <time>2015-04-24T11:12:41Z</time>
      </trkpt>
      <trkpt lat="45.87848" lon="2.844">
        <ele>769.67</ele>
        <time>2015-04-24T11:13:34Z</time>
      </trkpt>
      <trkpt lat="45.87848" lon="2.844">
        <ele>769.67</ele>
        <time>2015-04-24T11:14:24Z</time>
      </trkpt>
      <trkpt lat="45.87848" lon="2.844">
        <ele>769.19</ele>
        <time>2015-04-24T11:15:02Z</time>
      </trkpt>
      <trkpt lat="45.87848" lon="2.844">
        <ele>770.15</ele>
        <time>2015-04-24T11:15:41Z</time>
      </trkpt>
      <trkpt lat="45.87849" lon="2.84399">
        <ele>770.15</ele>
        <time>2015-04-24T11:16:15Z</time>
      </trkpt>
      <trkpt lat="45.8785" lon="2.844">
        <ele>770.15</ele>
        <time>2015-04-24T11:16:57Z</time>
      </trkpt>
      <trkpt lat="45.87849" lon="2.844">
        <ele>770.63</ele>
        <time>2015-04-24T11:17:37Z</time>
      </trkpt>
      <trkpt lat="45.87849" lon="2.844">
        <ele>770.63</ele>
        <time>2015-04-24T11:18:20Z</time>
      </trkpt>
      <trkpt lat="45.8785" lon="2.84399">
        <ele>770.15</ele>
        <time>2015-04-24T11:19:07Z</time>
      </trkpt>
      <trkpt lat="45.87849" lon="2.84398">
        <ele>770.15</ele>
        <time>2015-04-24T11:19:42Z</time>
      </trkpt>
      <trkpt lat="45.87849" lon="2.84398">
        <ele>770.15</ele>
        <time>2015-04-24T11:20:15Z</time>
      </trkpt>
      <trkpt lat="45.87849" lon="2.844">
        <ele>769.67</ele>
        <time>2015-04-24T11:20:52Z</time>
      </trkpt>
      <trkpt lat="45.87849" lon="2.84398">
        <ele>769.67</ele>
        <time>2015-04-24T11:21:37Z</time>
      </trkpt>
      <trkpt lat="45.87849" lon="2.84394">
        <ele>769.67</ele>
        <time>2015-04-24T11:22:10Z</time>
      </trkpt>
      <trkpt lat="45.87848" lon="2.84393">
        <ele>770.15</ele>
        <time>2015-04-24T11:22:50Z</time>
      </trkpt>
      <trkpt lat="45.87849" lon="2.84394">
        <ele>770.15</ele>
        <time>2015-04-24T11:23:27Z</time>
      </trkpt>
      <trkpt lat="45.87851" lon="2.84399">
        <ele>771.11</ele>
        <time>2015-04-24T11:23:42Z</time>
      </trkpt>
      <trkpt lat="45.8785" lon="2.84397">
        <ele>771.11</ele>
        <time>2015-04-24T11:24:01Z</time>
      </trkpt>
      <trkpt lat="45.8785" lon="2.84399">
        <ele>770.63</ele>
        <time>2015-04-24T11:24:13Z</time>
      </trkpt>
      <trkpt lat="45.87852" lon="2.84398">
        <ele>771.11</ele>
        <time>2015-04-24T11:24:32Z</time>
      </trkpt>
      <trkpt lat="45.87854" lon="2.84405">
        <ele>771.11</ele>
        <time>2015-04-24T11:24:43Z</time>
      </trkpt>
      <trkpt lat="45.87851" lon="2.84413">
        <ele>771.11</ele>
        <time>2015-04-24T11:24:50Z</time>
      </trkpt>
      <trkpt lat="45.87844" lon="2.84439">
        <ele>772.56</ele>
        <time>2015-04-24T11:25:07Z</time>
      </trkpt>
      <trkpt lat="45.87839" lon="2.8446">
        <ele>772.08</ele>
        <time>2015-04-24T11:25:20Z</time>
      </trkpt>
      <trkpt lat="45.8783" lon="2.84481">
        <ele>772.08</ele>
        <time>2015-04-24T11:25:33Z</time>
      </trkpt>
      <trkpt lat="45.87812" lon="2.84495">
        <ele>772.56</ele>
        <time>2015-04-24T11:25:48Z</time>
      </trkpt>
      <trkpt lat="45.878" lon="2.84502">
        <ele>772.56</ele>
        <time>2015-04-24T11:26:01Z</time>
      </trkpt>
      <trkpt lat="45.87789" lon="2.84508">
        <ele>774</ele>
        <time>2015-04-24T11:26:14Z</time>
      </trkpt>
      <trkpt lat="45.87777" lon="2.84517">
        <ele>774.96</ele>
        <time>2015-04-24T11:26:27Z</time>
      </trkpt>
      <trkpt lat="45.87764" lon="2.84529">
        <ele>776.4</ele>
        <time>2015-04-24T11:26:43Z</time>
      </trkpt>
      <trkpt lat="45.87761" lon="2.84529">
        <ele>775.92</ele>
        <time>2015-04-24T11:26:55Z</time>
      </trkpt>
      <trkpt lat="45.87741" lon="2.84545">
        <ele>776.88</ele>
        <time>2015-04-24T11:27:14Z</time>
      </trkpt>
      <trkpt lat="45.87721" lon="2.84562">
        <ele>777.36</ele>
        <time>2015-04-24T11:27:31Z</time>
      </trkpt>
      <trkpt lat="45.8771" lon="2.84573">
        <ele>776.88</ele>
        <time>2015-04-24T11:27:42Z</time>
      </trkpt>
      <trkpt lat="45.87708" lon="2.84576">
        <ele>776.88</ele>
        <time>2015-04-24T11:27:44Z</time>
      </trkpt>
      <trkpt lat="45.87693" lon="2.84597">
        <ele>776.88</ele>
        <time>2015-04-24T11:28:02Z</time>
      </trkpt>
      <trkpt lat="45.87692" lon="2.84603">
        <ele>777.84</ele>
        <time>2015-04-24T11:28:10Z</time>
      </trkpt>
      <trkpt lat="45.8769" lon="2.84613">
        <ele>777.84</ele>
        <time>2015-04-24T11:28:22Z</time>
      </trkpt>
      <trkpt lat="45.87687" lon="2.84624">
        <ele>777.84</ele>
        <time>2015-04-24T11:28:36Z</time>
      </trkpt>
      <trkpt lat="45.87684" lon="2.84634">
        <ele>778.32</ele>
        <time>2015-04-24T11:28:50Z</time>
      </trkpt>
      <trkpt lat="45.87685" lon="2.84634">
        <ele>778.32</ele>
        <time>2015-04-24T11:29:03Z</time>
      </trkpt>
      <trkpt lat="45.87679" lon="2.84636">
        <ele>777.84</ele>
        <time>2015-04-24T11:29:18Z</time>
      </trkpt>
      <trkpt lat="45.87681" lon="2.84633">
        <ele>777.84</ele>
        <time>2015-04-24T11:29:27Z</time>
      </trkpt>
      <trkpt lat="45.87687" lon="2.84633">
        <ele>777.84</ele>
        <time>2015-04-24T11:29:35Z</time>
      </trkpt>
      <trkpt lat="45.87702" lon="2.84649">
        <ele>777.84</ele>
        <time>2015-04-24T11:29:52Z</time>
      </trkpt>
      <trkpt lat="45.87718" lon="2.84669">
        <ele>778.32</ele>
        <time>2015-04-24T11:30:09Z</time>
      </trkpt>
      <trkpt lat="45.87726" lon="2.84692">
        <ele>778.81</ele>
        <time>2015-04-24T11:30:24Z</time>
      </trkpt>
      <trkpt lat="45.87731" lon="2.84699">
        <ele>778.81</ele>
        <time>2015-04-24T11:30:31Z</time>
      </trkpt>
      <trkpt lat="45.87742" lon="2.84705">
        <ele>778.81</ele>
        <time>2015-04-24T11:30:47Z</time>
      </trkpt>
      <trkpt lat="45.87754" lon="2.84716">
        <ele>779.29</ele>
        <time>2015-04-24T11:31:02Z</time>
      </trkpt>
      <trkpt lat="45.87765" lon="2.84734">
        <ele>779.29</ele>
        <time>2015-04-24T11:31:16Z</time>
      </trkpt>
      <trkpt lat="45.8777" lon="2.8475">
        <ele>777.84</ele>
        <time>2015-04-24T11:31:29Z</time>
      </trkpt>
      <trkpt lat="45.87776" lon="2.84769">
        <ele>776.4</ele>
        <time>2015-04-24T11:31:42Z</time>
      </trkpt>
      <trkpt lat="45.87785" lon="2.84795">
        <ele>774.96</ele>
        <time>2015-04-24T11:32:00Z</time>
      </trkpt>
      <trkpt lat="45.87795" lon="2.84803">
        <ele>774.48</ele>
        <time>2015-04-24T11:32:12Z</time>
      </trkpt>
      <trkpt lat="45.87804" lon="2.84812">
        <ele>773.52</ele>
        <time>2015-04-24T11:32:26Z</time>
      </trkpt>
      <trkpt lat="45.8781" lon="2.84816">
        <ele>773.04</ele>
        <time>2015-04-24T11:32:33Z</time>
      </trkpt>
      <trkpt lat="45.87821" lon="2.8482">
        <ele>771.11</ele>
        <time>2015-04-24T11:32:43Z</time>
      </trkpt>
      <trkpt lat="45.87823" lon="2.8482">
        <ele>771.11</ele>
        <time>2015-04-24T11:32:45Z</time>
      </trkpt>
      <trkpt lat="45.87829" lon="2.84823">
        <ele>770.15</ele>
        <time>2015-04-24T11:32:50Z</time>
      </trkpt>
      <trkpt lat="45.87839" lon="2.84823">
        <ele>768.71</ele>
        <time>2015-04-24T11:33:01Z</time>
      </trkpt>
      <trkpt lat="45.87845" lon="2.84826">
        <ele>768.71</ele>
        <time>2015-04-24T11:33:16Z</time>
      </trkpt>
      <trkpt lat="45.87846" lon="2.84825">
        <ele>768.71</ele>
        <time>2015-04-24T11:33:17Z</time>
      </trkpt>
      <trkpt lat="45.87862" lon="2.84822">
        <ele>767.75</ele>
        <time>2015-04-24T11:33:34Z</time>
      </trkpt>
      <trkpt lat="45.87861" lon="2.84821">
        <ele>767.75</ele>
        <time>2015-04-24T11:33:39Z</time>
      </trkpt>
      <trkpt lat="45.87868" lon="2.84828">
        <ele>766.79</ele>
        <time>2015-04-24T11:33:46Z</time>
      </trkpt>
      <trkpt lat="45.87872" lon="2.84829">
        <ele>767.27</ele>
        <time>2015-04-24T11:33:49Z</time>
      </trkpt>
      <trkpt lat="45.87881" lon="2.84835">
        <ele>767.27</ele>
        <time>2015-04-24T11:34:01Z</time>
      </trkpt>
      <trkpt lat="45.87896" lon="2.84847">
        <ele>766.79</ele>
        <time>2015-04-24T11:34:16Z</time>
      </trkpt>
      <trkpt lat="45.87905" lon="2.84852">
        <ele>765.83</ele>
        <time>2015-04-24T11:34:25Z</time>
      </trkpt>
      <trkpt lat="45.87917" lon="2.84859">
        <ele>764.87</ele>
        <time>2015-04-24T11:34:40Z</time>
      </trkpt>
      <trkpt lat="45.87937" lon="2.84875">
        <ele>764.39</ele>
        <time>2015-04-24T11:34:57Z</time>
      </trkpt>
      <trkpt lat="45.87954" lon="2.84885">
        <ele>763.42</ele>
        <time>2015-04-24T11:35:13Z</time>
      </trkpt>
      <trkpt lat="45.87974" lon="2.84899">
        <ele>763.9</ele>
        <time>2015-04-24T11:35:28Z</time>
      </trkpt>
      <trkpt lat="45.87989" lon="2.84917">
        <ele>763.9</ele>
        <time>2015-04-24T11:35:45Z</time>
      </trkpt>
      <trkpt lat="45.88004" lon="2.84941">
        <ele>763.9</ele>
        <time>2015-04-24T11:36:02Z</time>
      </trkpt>
      <trkpt lat="45.88014" lon="2.84965">
        <ele>763.9</ele>
        <time>2015-04-24T11:36:16Z</time>
      </trkpt>
      <trkpt lat="45.88019" lon="2.8499">
        <ele>763.42</ele>
        <time>2015-04-24T11:36:31Z</time>
      </trkpt>
      <trkpt lat="45.88019" lon="2.85014">
        <ele>762.94</ele>
        <time>2015-04-24T11:36:46Z</time>
      </trkpt>
      <trkpt lat="45.88014" lon="2.85029">
        <ele>761.5</ele>
        <time>2015-04-24T11:37:02Z</time>
      </trkpt>
      <trkpt lat="45.8801" lon="2.85046">
        <ele>760.06</ele>
        <time>2015-04-24T11:37:20Z</time>
      </trkpt>
      <trkpt lat="45.88005" lon="2.85065">
        <ele>758.62</ele>
        <time>2015-04-24T11:37:38Z</time>
      </trkpt>
      <trkpt lat="45.88005" lon="2.85076">
        <ele>757.66</ele>
        <time>2015-04-24T11:37:57Z</time>
      </trkpt>
      <trkpt lat="45.88013" lon="2.85086">
        <ele>757.66</ele>
        <time>2015-04-24T11:38:14Z</time>
      </trkpt>
      <trkpt lat="45.88017" lon="2.85096">
        <ele>756.21</ele>
        <time>2015-04-24T11:38:30Z</time>
      </trkpt>
      <trkpt lat="45.88021" lon="2.85101">
        <ele>756.69</ele>
        <time>2015-04-24T11:38:35Z</time>
      </trkpt>
      <trkpt lat="45.8803" lon="2.85112">
        <ele>755.25</ele>
        <time>2015-04-24T11:38:53Z</time>
      </trkpt>
      <trkpt lat="45.88039" lon="2.85115">
        <ele>753.33</ele>
        <time>2015-04-24T11:39:09Z</time>
      </trkpt>
      <trkpt lat="45.8806" lon="2.85122">
        <ele>752.85</ele>
        <time>2015-04-24T11:39:22Z</time>
      </trkpt>
      <trkpt lat="45.88073" lon="2.85128">
        <ele>752.85</ele>
        <time>2015-04-24T11:39:35Z</time>
      </trkpt>
      <trkpt lat="45.88082" lon="2.8513">
        <ele>753.33</ele>
        <time>2015-04-24T11:39:50Z</time>
      </trkpt>
      <trkpt lat="45.88087" lon="2.85132">
        <ele>753.81</ele>
        <time>2015-04-24T11:40:16Z</time>
      </trkpt>
      <trkpt lat="45.88105" lon="2.85132">
        <ele>753.33</ele>
        <time>2015-04-24T11:40:31Z</time>
      </trkpt>
      <trkpt lat="45.88113" lon="2.85131">
        <ele>751.89</ele>
        <time>2015-04-24T11:40:44Z</time>
      </trkpt>
      <trkpt lat="45.88127" lon="2.85135">
        <ele>750.93</ele>
        <time>2015-04-24T11:41:00Z</time>
      </trkpt>
      <trkpt lat="45.88142" lon="2.85143">
        <ele>750.93</ele>
        <time>2015-04-24T11:41:10Z</time>
      </trkpt>
      <trkpt lat="45.88149" lon="2.85154">
        <ele>750.45</ele>
        <time>2015-04-24T11:41:27Z</time>
      </trkpt>
      <trkpt lat="45.8816" lon="2.85165">
        <ele>750.93</ele>
        <time>2015-04-24T11:41:47Z</time>
      </trkpt>
      <trkpt lat="45.8817" lon="2.85176">
        <ele>750.45</ele>
        <time>2015-04-24T11:42:11Z</time>
      </trkpt>
      <trkpt lat="45.88181" lon="2.85181">
        <ele>749</ele>
        <time>2015-04-24T11:42:27Z</time>
      </trkpt>
      <trkpt lat="45.88183" lon="2.85182">
        <ele>749</ele>
        <time>2015-04-24T11:42:30Z</time>
      </trkpt>
      <trkpt lat="45.88196" lon="2.8519">
        <ele>749</ele>
        <time>2015-04-24T11:42:45Z</time>
      </trkpt>
      <trkpt lat="45.88208" lon="2.85201">
        <ele>749.97</ele>
        <time>2015-04-24T11:43:05Z</time>
      </trkpt>
      <trkpt lat="45.88227" lon="2.85205">
        <ele>749.97</ele>
        <time>2015-04-24T11:43:21Z</time>
      </trkpt>
      <trkpt lat="45.88234" lon="2.85211">
        <ele>749.49</ele>
        <time>2015-04-24T11:43:35Z</time>
      </trkpt>
      <trkpt lat="45.88238" lon="2.85215">
        <ele>749.97</ele>
        <time>2015-04-24T11:43:54Z</time>
      </trkpt>
      <trkpt lat="45.8824" lon="2.85214">
        <ele>749.97</ele>
        <time>2015-04-24T11:43:56Z</time>
      </trkpt>
      <trkpt lat="45.88242" lon="2.85214">
        <ele>749.97</ele>
        <time>2015-04-24T11:43:58Z</time>
      </trkpt>
      <trkpt lat="45.88258" lon="2.85221">
        <ele>751.41</ele>
        <time>2015-04-24T11:44:11Z</time>
      </trkpt>
      <trkpt lat="45.88272" lon="2.85233">
        <ele>752.85</ele>
        <time>2015-04-24T11:44:28Z</time>
      </trkpt>
      <trkpt lat="45.88279" lon="2.85252">
        <ele>753.33</ele>
        <time>2015-04-24T11:44:47Z</time>
      </trkpt>
      <trkpt lat="45.88286" lon="2.85256">
        <ele>753.81</ele>
        <time>2015-04-24T11:45:10Z</time>
      </trkpt>
      <trkpt lat="45.88291" lon="2.85267">
        <ele>755.73</ele>
        <time>2015-04-24T11:45:27Z</time>
      </trkpt>
      <trkpt lat="45.88291" lon="2.85271">
        <ele>757.66</ele>
        <time>2015-04-24T11:45:34Z</time>
      </trkpt>
      <trkpt lat="45.88301" lon="2.85275">
        <ele>756.21</ele>
        <time>2015-04-24T11:45:50Z</time>
      </trkpt>
      <trkpt lat="45.883" lon="2.85282">
        <ele>756.69</ele>
        <time>2015-04-24T11:46:07Z</time>
      </trkpt>
      <trkpt lat="45.88301" lon="2.8528">
        <ele>757.18</ele>
        <time>2015-04-24T11:46:32Z</time>
      </trkpt>
      <trkpt lat="45.88309" lon="2.85287">
        <ele>756.21</ele>
        <time>2015-04-24T11:46:50Z</time>
      </trkpt>
      <trkpt lat="45.88323" lon="2.85293">
        <ele>755.25</ele>
        <time>2015-04-24T11:47:05Z</time>
      </trkpt>
      <trkpt lat="45.88333" lon="2.853">
        <ele>753.81</ele>
        <time>2015-04-24T11:47:16Z</time>
      </trkpt>
      <trkpt lat="45.8834" lon="2.85308">
        <ele>754.29</ele>
        <time>2015-04-24T11:47:21Z</time>
      </trkpt>
      <trkpt lat="45.88344" lon="2.85312">
        <ele>753.81</ele>
        <time>2015-04-24T11:47:24Z</time>
      </trkpt>
      <trkpt lat="45.8835" lon="2.8532">
        <ele>754.29</ele>
        <time>2015-04-24T11:47:31Z</time>
      </trkpt>
      <trkpt lat="45.88359" lon="2.85337">
        <ele>754.29</ele>
        <time>2015-04-24T11:47:44Z</time>
      </trkpt>
      <trkpt lat="45.88372" lon="2.85356">
        <ele>754.77</ele>
        <time>2015-04-24T11:47:59Z</time>
      </trkpt>
      <trkpt lat="45.88386" lon="2.85372">
        <ele>754.29</ele>
        <time>2015-04-24T11:48:15Z</time>
      </trkpt>
      <trkpt lat="45.88387" lon="2.85372">
        <ele>753.81</ele>
        <time>2015-04-24T11:48:16Z</time>
      </trkpt>
      <trkpt lat="45.88398" lon="2.85377">
        <ele>752.37</ele>
        <time>2015-04-24T11:48:33Z</time>
      </trkpt>
      <trkpt lat="45.884" lon="2.85387">
        <ele>752.37</ele>
        <time>2015-04-24T11:48:49Z</time>
      </trkpt>
      <trkpt lat="45.88396" lon="2.85399">
        <ele>750.45</ele>
        <time>2015-04-24T11:49:00Z</time>
      </trkpt>
      <trkpt lat="45.88379" lon="2.85407">
        <ele>748.52</ele>
        <time>2015-04-24T11:49:15Z</time>
      </trkpt>
      <trkpt lat="45.88367" lon="2.85407">
        <ele>747.08</ele>
        <time>2015-04-24T11:49:26Z</time>
      </trkpt>
      <trkpt lat="45.88357" lon="2.85408">
        <ele>746.12</ele>
        <time>2015-04-24T11:49:36Z</time>
      </trkpt>
      <trkpt lat="45.8834" lon="2.85408">
        <ele>744.68</ele>
        <time>2015-04-24T11:49:51Z</time>
      </trkpt>
      <trkpt lat="45.8833" lon="2.85408">
        <ele>742.76</ele>
        <time>2015-04-24T11:50:00Z</time>
      </trkpt>
      <trkpt lat="45.88318" lon="2.85414">
        <ele>741.79</ele>
        <time>2015-04-24T11:50:10Z</time>
      </trkpt>
      <trkpt lat="45.88311" lon="2.85414">
        <ele>741.31</ele>
        <time>2015-04-24T11:50:17Z</time>
      </trkpt>
      <trkpt lat="45.88303" lon="2.85413">
        <ele>739.87</ele>
        <time>2015-04-24T11:50:30Z</time>
      </trkpt>
      <trkpt lat="45.88296" lon="2.85419">
        <ele>738.43</ele>
        <time>2015-04-24T11:50:39Z</time>
      </trkpt>
      <trkpt lat="45.88288" lon="2.85432">
        <ele>735.55</ele>
        <time>2015-04-24T11:50:51Z</time>
      </trkpt>
      <trkpt lat="45.88287" lon="2.85433">
        <ele>735.55</ele>
        <time>2015-04-24T11:50:52Z</time>
      </trkpt>
      <trkpt lat="45.88277" lon="2.85446">
        <ele>733.62</ele>
        <time>2015-04-24T11:51:05Z</time>
      </trkpt>
      <trkpt lat="45.88275" lon="2.8545">
        <ele>733.14</ele>
        <time>2015-04-24T11:51:08Z</time>
      </trkpt>
      <trkpt lat="45.88261" lon="2.85464">
        <ele>731.22</ele>
        <time>2015-04-24T11:51:23Z</time>
      </trkpt>
      <trkpt lat="45.88257" lon="2.85475">
        <ele>730.74</ele>
        <time>2015-04-24T11:51:29Z</time>
      </trkpt>
      <trkpt lat="45.88252" lon="2.85491">
        <ele>729.78</ele>
        <time>2015-04-24T11:51:39Z</time>
      </trkpt>
      <trkpt lat="45.88249" lon="2.85493">
        <ele>729.78</ele>
        <time>2015-04-24T11:51:41Z</time>
      </trkpt>
      <trkpt lat="45.88239" lon="2.85494">
        <ele>730.26</ele>
        <time>2015-04-24T11:51:54Z</time>
      </trkpt>
      <trkpt lat="45.88227" lon="2.85504">
        <ele>729.78</ele>
        <time>2015-04-24T11:52:08Z</time>
      </trkpt>
      <trkpt lat="45.88218" lon="2.85508">
        <ele>729.78</ele>
        <time>2015-04-24T11:52:18Z</time>
      </trkpt>
      <trkpt lat="45.88215" lon="2.85516">
        <ele>729.78</ele>
        <time>2015-04-24T11:52:32Z</time>
      </trkpt>
      <trkpt lat="45.88216" lon="2.85522">
        <ele>729.3</ele>
        <time>2015-04-24T11:52:36Z</time>
      </trkpt>
      <trkpt lat="45.88217" lon="2.85527">
        <ele>729.3</ele>
        <time>2015-04-24T11:52:39Z</time>
      </trkpt>
      <trkpt lat="45.88217" lon="2.8552">
        <ele>728.34</ele>
        <time>2015-04-24T11:52:56Z</time>
      </trkpt>
      <trkpt lat="45.8822" lon="2.85526">
        <ele>728.82</ele>
        <time>2015-04-24T11:53:13Z</time>
      </trkpt>
      <trkpt lat="45.88217" lon="2.85535">
        <ele>728.82</ele>
        <time>2015-04-24T11:53:26Z</time>
      </trkpt>
      <trkpt lat="45.88218" lon="2.85531">
        <ele>729.3</ele>
        <time>2015-04-24T11:53:33Z</time>
      </trkpt>
      <trkpt lat="45.88226" lon="2.85523">
        <ele>728.82</ele>
        <time>2015-04-24T11:53:47Z</time>
      </trkpt>
      <trkpt lat="45.8823" lon="2.85522">
        <ele>729.3</ele>
        <time>2015-04-24T11:54:04Z</time>
      </trkpt>
      <trkpt lat="45.88248" lon="2.85523">
        <ele>731.22</ele>
        <time>2015-04-24T11:54:22Z</time>
      </trkpt>
      <trkpt lat="45.88256" lon="2.85524">
        <ele>732.18</ele>
        <time>2015-04-24T11:54:30Z</time>
      </trkpt>
      <trkpt lat="45.88263" lon="2.8553">
        <ele>734.1</ele>
        <time>2015-04-24T11:54:45Z</time>
      </trkpt>
      <trkpt lat="45.88271" lon="2.85532">
        <ele>734.58</ele>
        <time>2015-04-24T11:55:09Z</time>
      </trkpt>
      <trkpt lat="45.88289" lon="2.85538">
        <ele>736.03</ele>
        <time>2015-04-24T11:55:24Z</time>
      </trkpt>
      <trkpt lat="45.88303" lon="2.85545">
        <ele>737.95</ele>
        <time>2015-04-24T11:55:39Z</time>
      </trkpt>
      <trkpt lat="45.88308" lon="2.8555">
        <ele>737.47</ele>
        <time>2015-04-24T11:56:10Z</time>
      </trkpt>
      <trkpt lat="45.8831" lon="2.8555">
        <ele>737.95</ele>
        <time>2015-04-24T11:56:13Z</time>
      </trkpt>
      <trkpt lat="45.88327" lon="2.85556">
        <ele>740.35</ele>
        <time>2015-04-24T11:56:30Z</time>
      </trkpt>
      <trkpt lat="45.88335" lon="2.85562">
        <ele>742.76</ele>
        <time>2015-04-24T11:56:45Z</time>
      </trkpt>
      <trkpt lat="45.88344" lon="2.85568">
        <ele>743.24</ele>
        <time>2015-04-24T11:56:59Z</time>
      </trkpt>
      <trkpt lat="45.88347" lon="2.8557">
        <ele>743.72</ele>
        <time>2015-04-24T11:57:11Z</time>
      </trkpt>
      <trkpt lat="45.88354" lon="2.85576">
        <ele>745.64</ele>
        <time>2015-04-24T11:57:25Z</time>
      </trkpt>
      <trkpt lat="45.88365" lon="2.85586">
        <ele>747.56</ele>
        <time>2015-04-24T11:57:40Z</time>
      </trkpt>
      <trkpt lat="45.88374" lon="2.85594">
        <ele>749.97</ele>
        <time>2015-04-24T11:57:54Z</time>
      </trkpt>
      <trkpt lat="45.88383" lon="2.85599">
        <ele>752.37</ele>
        <time>2015-04-24T11:58:10Z</time>
      </trkpt>
      <trkpt lat="45.88395" lon="2.85604">
        <ele>754.29</ele>
        <time>2015-04-24T11:58:26Z</time>
      </trkpt>
      <trkpt lat="45.88402" lon="2.85612">
        <ele>755.25</ele>
        <time>2015-04-24T11:58:44Z</time>
      </trkpt>
      <trkpt lat="45.88411" lon="2.85624">
        <ele>755.25</ele>
        <time>2015-04-24T11:59:18Z</time>
      </trkpt>
      <trkpt lat="45.88415" lon="2.8562">
        <ele>757.18</ele>
        <time>2015-04-24T11:59:48Z</time>
      </trkpt>
      <trkpt lat="45.8843" lon="2.85624">
        <ele>759.1</ele>
        <time>2015-04-24T12:00:05Z</time>
      </trkpt>
      <trkpt lat="45.88443" lon="2.85631">
        <ele>760.06</ele>
        <time>2015-04-24T12:00:22Z</time>
      </trkpt>
      <trkpt lat="45.88445" lon="2.85637">
        <ele>759.58</ele>
        <time>2015-04-24T12:00:53Z</time>
      </trkpt>
      <trkpt lat="45.88439" lon="2.85637">
        <ele>759.1</ele>
        <time>2015-04-24T12:01:24Z</time>
      </trkpt>
      <trkpt lat="45.88445" lon="2.85632">
        <ele>758.62</ele>
        <time>2015-04-24T12:01:44Z</time>
      </trkpt>
      <trkpt lat="45.88448" lon="2.8563">
        <ele>758.14</ele>
        <time>2015-04-24T12:01:47Z</time>
      </trkpt>
      <trkpt lat="45.88464" lon="2.85635">
        <ele>756.69</ele>
        <time>2015-04-24T12:02:04Z</time>
      </trkpt>
      <trkpt lat="45.88474" lon="2.85641">
        <ele>756.69</ele>
        <time>2015-04-24T12:02:21Z</time>
      </trkpt>
      <trkpt lat="45.88491" lon="2.85651">
        <ele>754.77</ele>
        <time>2015-04-24T12:02:37Z</time>
      </trkpt>
      <trkpt lat="45.88502" lon="2.85656">
        <ele>755.25</ele>
        <time>2015-04-24T12:02:55Z</time>
      </trkpt>
      <trkpt lat="45.8851" lon="2.85657">
        <ele>755.25</ele>
        <time>2015-04-24T12:03:15Z</time>
      </trkpt>
      <trkpt lat="45.8851" lon="2.85659">
        <ele>755.73</ele>
        <time>2015-04-24T12:03:44Z</time>
      </trkpt>
      <trkpt lat="45.88511" lon="2.8565">
        <ele>757.18</ele>
        <time>2015-04-24T12:04:13Z</time>
      </trkpt>
      <trkpt lat="45.88522" lon="2.8563">
        <ele>758.62</ele>
        <time>2015-04-24T12:04:31Z</time>
      </trkpt>
      <trkpt lat="45.8854" lon="2.85614">
        <ele>759.58</ele>
        <time>2015-04-24T12:04:48Z</time>
      </trkpt>
      <trkpt lat="45.88556" lon="2.85613">
        <ele>758.62</ele>
        <time>2015-04-24T12:05:06Z</time>
      </trkpt>
      <trkpt lat="45.88571" lon="2.85613">
        <ele>757.66</ele>
        <time>2015-04-24T12:05:24Z</time>
      </trkpt>
      <trkpt lat="45.88583" lon="2.85615">
        <ele>756.69</ele>
        <time>2015-04-24T12:05:39Z</time>
      </trkpt>
      <trkpt lat="45.8861" lon="2.85617">
        <ele>755.25</ele>
        <time>2015-04-24T12:05:57Z</time>
      </trkpt>
      <trkpt lat="45.88616" lon="2.85619">
        <ele>756.21</ele>
        <time>2015-04-24T12:06:19Z</time>
      </trkpt>
      <trkpt lat="45.88613" lon="2.8561">
        <ele>755.73</ele>
        <time>2015-04-24T12:06:43Z</time>
      </trkpt>
      <trkpt lat="45.88613" lon="2.85616">
        <ele>755.73</ele>
        <time>2015-04-24T12:07:17Z</time>
      </trkpt>
      <trkpt lat="45.88614" lon="2.85618">
        <ele>755.73</ele>
        <time>2015-04-24T12:07:42Z</time>
      </trkpt>
      <trkpt lat="45.88611" lon="2.85622">
        <ele>755.73</ele>
        <time>2015-04-24T12:08:09Z</time>
      </trkpt>
      <trkpt lat="45.88612" lon="2.85631">
        <ele>755.73</ele>
        <time>2015-04-24T12:08:34Z</time>
      </trkpt>
      <trkpt lat="45.88617" lon="2.85622">
        <ele>755.73</ele>
        <time>2015-04-24T12:09:01Z</time>
      </trkpt>
      <trkpt lat="45.88634" lon="2.85618">
        <ele>756.69</ele>
        <time>2015-04-24T12:09:19Z</time>
      </trkpt>
      <trkpt lat="45.88646" lon="2.85621">
        <ele>755.73</ele>
        <time>2015-04-24T12:09:35Z</time>
      </trkpt>
      <trkpt lat="45.88662" lon="2.85634">
        <ele>754.29</ele>
        <time>2015-04-24T12:09:51Z</time>
      </trkpt>
      <trkpt lat="45.88678" lon="2.85645">
        <ele>753.81</ele>
        <time>2015-04-24T12:10:06Z</time>
      </trkpt>
      <trkpt lat="45.88693" lon="2.8565">
        <ele>753.81</ele>
        <time>2015-04-24T12:10:20Z</time>
      </trkpt>
      <trkpt lat="45.88711" lon="2.85653">
        <ele>751.89</ele>
        <time>2015-04-24T12:10:37Z</time>
      </trkpt>
      <trkpt lat="45.88728" lon="2.85663">
        <ele>752.37</ele>
        <time>2015-04-24T12:10:54Z</time>
      </trkpt>
      <trkpt lat="45.88748" lon="2.85674">
        <ele>751.89</ele>
        <time>2015-04-24T12:11:11Z</time>
      </trkpt>
      <trkpt lat="45.88765" lon="2.8569">
        <ele>751.89</ele>
        <time>2015-04-24T12:11:28Z</time>
      </trkpt>
      <trkpt lat="45.88782" lon="2.85705">
        <ele>751.89</ele>
        <time>2015-04-24T12:11:43Z</time>
      </trkpt>
      <trkpt lat="45.88789" lon="2.85714">
        <ele>752.37</ele>
        <time>2015-04-24T12:11:58Z</time>
      </trkpt>
      <trkpt lat="45.88794" lon="2.85713">
        <ele>752.85</ele>
        <time>2015-04-24T12:12:20Z</time>
      </trkpt>
      <trkpt lat="45.88801" lon="2.85714">
        <ele>753.33</ele>
        <time>2015-04-24T12:12:43Z</time>
      </trkpt>
      <trkpt lat="45.8881" lon="2.85719">
        <ele>756.69</ele>
        <time>2015-04-24T12:12:56Z</time>
      </trkpt>
      <trkpt lat="45.88827" lon="2.85725">
        <ele>759.1</ele>
        <time>2015-04-24T12:13:12Z</time>
      </trkpt>
      <trkpt lat="45.88838" lon="2.85733">
        <ele>761.5</ele>
        <time>2015-04-24T12:13:30Z</time>
      </trkpt>
      <trkpt lat="45.88851" lon="2.85737">
        <ele>764.87</ele>
        <time>2015-04-24T12:13:46Z</time>
      </trkpt>
      <trkpt lat="45.88852" lon="2.85744">
        <ele>763.9</ele>
        <time>2015-04-24T12:14:07Z</time>
      </trkpt>
      <trkpt lat="45.88857" lon="2.85745">
        <ele>764.39</ele>
        <time>2015-04-24T12:14:30Z</time>
      </trkpt>
      <trkpt lat="45.88864" lon="2.85744">
        <ele>765.35</ele>
        <time>2015-04-24T12:14:57Z</time>
      </trkpt>
      <trkpt lat="45.88874" lon="2.85746">
        <ele>767.75</ele>
        <time>2015-04-24T12:15:09Z</time>
      </trkpt>
      <trkpt lat="45.88892" lon="2.85757">
        <ele>769.19</ele>
        <time>2015-04-24T12:15:26Z</time>
      </trkpt>
      <trkpt lat="45.88893" lon="2.85755">
        <ele>769.19</ele>
        <time>2015-04-24T12:15:45Z</time>
      </trkpt>
      <trkpt lat="45.88908" lon="2.85763">
        <ele>770.63</ele>
        <time>2015-04-24T12:16:02Z</time>
      </trkpt>
      <trkpt lat="45.88923" lon="2.8577">
        <ele>771.11</ele>
        <time>2015-04-24T12:16:17Z</time>
      </trkpt>
      <trkpt lat="45.88938" lon="2.85782">
        <ele>772.08</ele>
        <time>2015-04-24T12:16:32Z</time>
      </trkpt>
      <trkpt lat="45.88952" lon="2.85787">
        <ele>773.52</ele>
        <time>2015-04-24T12:16:46Z</time>
      </trkpt>
      <trkpt lat="45.88967" lon="2.85792">
        <ele>775.44</ele>
        <time>2015-04-24T12:17:02Z</time>
      </trkpt>
      <trkpt lat="45.88981" lon="2.85797">
        <ele>775.92</ele>
        <time>2015-04-24T12:17:16Z</time>
      </trkpt>
      <trkpt lat="45.88996" lon="2.85805">
        <ele>777.84</ele>
        <time>2015-04-24T12:17:32Z</time>
      </trkpt>
      <trkpt lat="45.88999" lon="2.8581">
        <ele>777.36</ele>
        <time>2015-04-24T12:17:45Z</time>
      </trkpt>
      <trkpt lat="45.89007" lon="2.85817">
        <ele>777.84</ele>
        <time>2015-04-24T12:18:03Z</time>
      </trkpt>
      <trkpt lat="45.89019" lon="2.85835">
        <ele>778.81</ele>
        <time>2015-04-24T12:18:18Z</time>
      </trkpt>
      <trkpt lat="45.89026" lon="2.85857">
        <ele>779.29</ele>
        <time>2015-04-24T12:18:34Z</time>
      </trkpt>
      <trkpt lat="45.89025" lon="2.85862">
        <ele>778.81</ele>
        <time>2015-04-24T12:18:48Z</time>
      </trkpt>
      <trkpt lat="45.89026" lon="2.85866">
        <ele>779.29</ele>
        <time>2015-04-24T12:19:02Z</time>
      </trkpt>
      <trkpt lat="45.89024" lon="2.85864">
        <ele>779.29</ele>
        <time>2015-04-24T12:19:24Z</time>
      </trkpt>
      <trkpt lat="45.89023" lon="2.8587">
        <ele>779.29</ele>
        <time>2015-04-24T12:19:26Z</time>
      </trkpt>
      <trkpt lat="45.89024" lon="2.85874">
        <ele>779.29</ele>
        <time>2015-04-24T12:19:29Z</time>
      </trkpt>
      <trkpt lat="45.89033" lon="2.85899">
        <ele>779.77</ele>
        <time>2015-04-24T12:19:45Z</time>
      </trkpt>
      <trkpt lat="45.89038" lon="2.85923">
        <ele>780.73</ele>
        <time>2015-04-24T12:19:59Z</time>
      </trkpt>
      <trkpt lat="45.89042" lon="2.85949">
        <ele>781.21</ele>
        <time>2015-04-24T12:20:15Z</time>
      </trkpt>
      <trkpt lat="45.89044" lon="2.8597">
        <ele>782.17</ele>
        <time>2015-04-24T12:20:29Z</time>
      </trkpt>
      <trkpt lat="45.89051" lon="2.85997">
        <ele>783.61</ele>
        <time>2015-04-24T12:20:45Z</time>
      </trkpt>
      <trkpt lat="45.89052" lon="2.86">
        <ele>783.61</ele>
        <time>2015-04-24T12:20:47Z</time>
      </trkpt>
      <trkpt lat="45.89057" lon="2.86014">
        <ele>784.57</ele>
        <time>2015-04-24T12:20:57Z</time>
      </trkpt>
      <trkpt lat="45.89065" lon="2.86031">
        <ele>785.05</ele>
        <time>2015-04-24T12:21:09Z</time>
      </trkpt>
      <trkpt lat="45.89074" lon="2.86052">
        <ele>786.5</ele>
        <time>2015-04-24T12:21:23Z</time>
      </trkpt>
      <trkpt lat="45.89075" lon="2.86056">
        <ele>786.02</ele>
        <time>2015-04-24T12:21:26Z</time>
      </trkpt>
      <trkpt lat="45.89088" lon="2.8608">
        <ele>786.98</ele>
        <time>2015-04-24T12:21:44Z</time>
      </trkpt>
      <trkpt lat="45.89095" lon="2.86092">
        <ele>787.46</ele>
        <time>2015-04-24T12:21:55Z</time>
      </trkpt>
      <trkpt lat="45.89101" lon="2.86101">
        <ele>787.94</ele>
        <time>2015-04-24T12:22:02Z</time>
      </trkpt>
      <trkpt lat="45.89112" lon="2.86098">
        <ele>786.98</ele>
        <time>2015-04-24T12:22:16Z</time>
      </trkpt>
      <trkpt lat="45.89125" lon="2.86097">
        <ele>786.02</ele>
        <time>2015-04-24T12:22:29Z</time>
      </trkpt>
      <trkpt lat="45.89132" lon="2.86101">
        <ele>786.02</ele>
        <time>2015-04-24T12:22:36Z</time>
      </trkpt>
      <trkpt lat="45.89134" lon="2.86104">
        <ele>786.02</ele>
        <time>2015-04-24T12:22:38Z</time>
      </trkpt>
      <trkpt lat="45.8915" lon="2.86125">
        <ele>786.02</ele>
        <time>2015-04-24T12:22:55Z</time>
      </trkpt>
      <trkpt lat="45.89166" lon="2.86144">
        <ele>786.5</ele>
        <time>2015-04-24T12:23:12Z</time>
      </trkpt>
      <trkpt lat="45.89175" lon="2.86154">
        <ele>786.5</ele>
        <time>2015-04-24T12:23:25Z</time>
      </trkpt>
      <trkpt lat="45.89189" lon="2.8617">
        <ele>786.02</ele>
        <time>2015-04-24T12:23:40Z</time>
      </trkpt>
      <trkpt lat="45.89191" lon="2.86185">
        <ele>785.53</ele>
        <time>2015-04-24T12:23:54Z</time>
      </trkpt>
      <trkpt lat="45.89192" lon="2.8619">
        <ele>785.05</ele>
        <time>2015-04-24T12:24:12Z</time>
      </trkpt>
      <trkpt lat="45.89195" lon="2.86196">
        <ele>785.53</ele>
        <time>2015-04-24T12:24:25Z</time>
      </trkpt>
      <trkpt lat="45.89196" lon="2.86202">
        <ele>785.53</ele>
        <time>2015-04-24T12:24:38Z</time>
      </trkpt>
      <trkpt lat="45.89202" lon="2.86194">
        <ele>786.02</ele>
        <time>2015-04-24T12:24:57Z</time>
      </trkpt>
      <trkpt lat="45.89204" lon="2.86197">
        <ele>785.53</ele>
        <time>2015-04-24T12:25:14Z</time>
      </trkpt>
      <trkpt lat="45.892" lon="2.86197">
        <ele>785.53</ele>
        <time>2015-04-24T12:25:33Z</time>
      </trkpt>
      <trkpt lat="45.89199" lon="2.86193">
        <ele>785.53</ele>
        <time>2015-04-24T12:25:50Z</time>
      </trkpt>
      <trkpt lat="45.89202" lon="2.86196">
        <ele>785.05</ele>
        <time>2015-04-24T12:26:05Z</time>
      </trkpt>
      <trkpt lat="45.89204" lon="2.86196">
        <ele>785.05</ele>
        <time>2015-04-24T12:26:21Z</time>
      </trkpt>
      <trkpt lat="45.89205" lon="2.86196">
        <ele>785.05</ele>
        <time>2015-04-24T12:26:27Z</time>
      </trkpt>
      <trkpt lat="45.89219" lon="2.86184">
        <ele>785.05</ele>
        <time>2015-04-24T12:26:43Z</time>
      </trkpt>
      <trkpt lat="45.89228" lon="2.86181">
        <ele>780.73</ele>
        <time>2015-04-24T12:26:54Z</time>
      </trkpt>
      <trkpt lat="45.89227" lon="2.86181">
        <ele>788.42</ele>
        <time>2015-04-24T12:26:55Z</time>
      </trkpt>
      <trkpt lat="45.89229" lon="2.86182">
        <ele>785.05</ele>
        <time>2015-04-24T12:26:56Z</time>
      </trkpt>
      <trkpt lat="45.89227" lon="2.86181">
        <ele>784.57</ele>
        <time>2015-04-24T12:27:07Z</time>
      </trkpt>
      <trkpt lat="45.89233" lon="2.86174">
        <ele>785.05</ele>
        <time>2015-04-24T12:27:21Z</time>
      </trkpt>
      <trkpt lat="45.89237" lon="2.86169">
        <ele>786.02</ele>
        <time>2015-04-24T12:27:35Z</time>
      </trkpt>
      <trkpt lat="45.89234" lon="2.86178">
        <ele>785.53</ele>
        <time>2015-04-24T12:27:48Z</time>
      </trkpt>
      <trkpt lat="45.89242" lon="2.86158">
        <ele>786.02</ele>
        <time>2015-04-24T12:28:02Z</time>
      </trkpt>
      <trkpt lat="45.89246" lon="2.86132">
        <ele>785.53</ele>
        <time>2015-04-24T12:28:19Z</time>
      </trkpt>
      <trkpt lat="45.89249" lon="2.86127">
        <ele>786.02</ele>
        <time>2015-04-24T12:28:32Z</time>
      </trkpt>
      <trkpt lat="45.89257" lon="2.86108">
        <ele>785.05</ele>
        <time>2015-04-24T12:28:46Z</time>
      </trkpt>
      <trkpt lat="45.89261" lon="2.86098">
        <ele>783.61</ele>
        <time>2015-04-24T12:29:01Z</time>
      </trkpt>
      <trkpt lat="45.89259" lon="2.86096">
        <ele>783.61</ele>
        <time>2015-04-24T12:29:02Z</time>
      </trkpt>
      <trkpt lat="45.89256" lon="2.86087">
        <ele>783.13</ele>
        <time>2015-04-24T12:29:06Z</time>
      </trkpt>
      <trkpt lat="45.89257" lon="2.86077">
        <ele>782.65</ele>
        <time>2015-04-24T12:29:22Z</time>
      </trkpt>
      <trkpt lat="45.89258" lon="2.86076">
        <ele>782.65</ele>
        <time>2015-04-24T12:29:26Z</time>
      </trkpt>
      <trkpt lat="45.89263" lon="2.86073">
        <ele>782.65</ele>
        <time>2015-04-24T12:29:46Z</time>
      </trkpt>
      <trkpt lat="45.89261" lon="2.8607">
        <ele>782.17</ele>
        <time>2015-04-24T12:29:51Z</time>
      </trkpt>
      <trkpt lat="45.89259" lon="2.86066">
        <ele>781.69</ele>
        <time>2015-04-24T12:29:55Z</time>
      </trkpt>
      <trkpt lat="45.89264" lon="2.86054">
        <ele>782.17</ele>
        <time>2015-04-24T12:30:09Z</time>
      </trkpt>
      <trkpt lat="45.89265" lon="2.86052">
        <ele>781.69</ele>
        <time>2015-04-24T12:30:27Z</time>
      </trkpt>
      <trkpt lat="45.89262" lon="2.86053">
        <ele>781.69</ele>
        <time>2015-04-24T12:30:32Z</time>
      </trkpt>
      <trkpt lat="45.89258" lon="2.8604">
        <ele>781.69</ele>
        <time>2015-04-24T12:30:43Z</time>
      </trkpt>
      <trkpt lat="45.89258" lon="2.86008">
        <ele>780.73</ele>
        <time>2015-04-24T12:31:01Z</time>
      </trkpt>
      <trkpt lat="45.8926" lon="2.85992">
        <ele>780.73</ele>
        <time>2015-04-24T12:31:11Z</time>
      </trkpt>
      <trkpt lat="45.89257" lon="2.85979">
        <ele>780.73</ele>
        <time>2015-04-24T12:31:26Z</time>
      </trkpt>
      <trkpt lat="45.89263" lon="2.85977">
        <ele>780.73</ele>
        <time>2015-04-24T12:31:37Z</time>
      </trkpt>
      <trkpt lat="45.89265" lon="2.85976">
        <ele>781.21</ele>
        <time>2015-04-24T12:31:47Z</time>
      </trkpt>
      <trkpt lat="45.89267" lon="2.85973">
        <ele>780.73</ele>
        <time>2015-04-24T12:31:51Z</time>
      </trkpt>
      <trkpt lat="45.89289" lon="2.85965">
        <ele>781.21</ele>
        <time>2015-04-24T12:32:08Z</time>
      </trkpt>
      <trkpt lat="45.89304" lon="2.85958">
        <ele>782.17</ele>
        <time>2015-04-24T12:32:24Z</time>
      </trkpt>
      <trkpt lat="45.89313" lon="2.8595">
        <ele>782.17</ele>
        <time>2015-04-24T12:32:38Z</time>
      </trkpt>
      <trkpt lat="45.89318" lon="2.85934">
        <ele>782.17</ele>
        <time>2015-04-24T12:32:50Z</time>
      </trkpt>
      <trkpt lat="45.89322" lon="2.85915">
        <ele>782.65</ele>
        <time>2015-04-24T12:33:04Z</time>
      </trkpt>
      <trkpt lat="45.89331" lon="2.85894">
        <ele>782.17</ele>
        <time>2015-04-24T12:33:19Z</time>
      </trkpt>
      <trkpt lat="45.8934" lon="2.85873">
        <ele>782.17</ele>
        <time>2015-04-24T12:33:36Z</time>
      </trkpt>
      <trkpt lat="45.89342" lon="2.85873">
        <ele>783.13</ele>
        <time>2015-04-24T12:34:00Z</time>
      </trkpt>
      <trkpt lat="45.89346" lon="2.85853">
        <ele>783.13</ele>
        <time>2015-04-24T12:34:13Z</time>
      </trkpt>
      <trkpt lat="45.89351" lon="2.85839">
        <ele>783.13</ele>
        <time>2015-04-24T12:34:26Z</time>
      </trkpt>
      <trkpt lat="45.89358" lon="2.85816">
        <ele>784.09</ele>
        <time>2015-04-24T12:34:41Z</time>
      </trkpt>
      <trkpt lat="45.89363" lon="2.85788">
        <ele>784.57</ele>
        <time>2015-04-24T12:34:58Z</time>
      </trkpt>
      <trkpt lat="45.8937" lon="2.85767">
        <ele>784.57</ele>
        <time>2015-04-24T12:35:11Z</time>
      </trkpt>
      <trkpt lat="45.89377" lon="2.85742">
        <ele>785.05</ele>
        <time>2015-04-24T12:35:27Z</time>
      </trkpt>
      <trkpt lat="45.89384" lon="2.85711">
        <ele>785.53</ele>
        <time>2015-04-24T12:35:45Z</time>
      </trkpt>
      <trkpt lat="45.89389" lon="2.85688">
        <ele>786.98</ele>
        <time>2015-04-24T12:35:59Z</time>
      </trkpt>
      <trkpt lat="45.89392" lon="2.85675">
        <ele>787.94</ele>
        <time>2015-04-24T12:36:14Z</time>
      </trkpt>
      <trkpt lat="45.89394" lon="2.85659">
        <ele>788.42</ele>
        <time>2015-04-24T12:36:26Z</time>
      </trkpt>
      <trkpt lat="45.89397" lon="2.85655">
        <ele>787.46</ele>
        <time>2015-04-24T12:36:42Z</time>
      </trkpt>
      <trkpt lat="45.89396" lon="2.85655">
        <ele>787.46</ele>
        <time>2015-04-24T12:37:01Z</time>
      </trkpt>
      <trkpt lat="45.89397" lon="2.85651">
        <ele>787.46</ele>
        <time>2015-04-24T12:37:17Z</time>
      </trkpt>
      <trkpt lat="45.89398" lon="2.85651">
        <ele>787.46</ele>
        <time>2015-04-24T12:37:34Z</time>
      </trkpt>
      <trkpt lat="45.89398" lon="2.8565">
        <ele>787.46</ele>
        <time>2015-04-24T12:38:01Z</time>
      </trkpt>
      <trkpt lat="45.89398" lon="2.85651">
        <ele>787.46</ele>
        <time>2015-04-24T12:38:09Z</time>
      </trkpt>
      <trkpt lat="45.89399" lon="2.85628">
        <ele>787.46</ele>
        <time>2015-04-24T12:38:24Z</time>
      </trkpt>
      <trkpt lat="45.894" lon="2.85626">
        <ele>787.94</ele>
        <time>2015-04-24T12:38:35Z</time>
      </trkpt>
      <trkpt lat="45.89401" lon="2.85629">
        <ele>787.94</ele>
        <time>2015-04-24T12:39:06Z</time>
      </trkpt>
      <trkpt lat="45.89402" lon="2.85625">
        <ele>787.94</ele>
        <time>2015-04-24T12:39:40Z</time>
      </trkpt>
      <trkpt lat="45.89402" lon="2.85624">
        <ele>788.42</ele>
        <time>2015-04-24T12:39:45Z</time>
      </trkpt>
      <trkpt lat="45.89403" lon="2.85621">
        <ele>788.42</ele>
        <time>2015-04-24T12:39:47Z</time>
      </trkpt>
      <trkpt lat="45.89408" lon="2.8559">
        <ele>788.9</ele>
        <time>2015-04-24T12:40:04Z</time>
      </trkpt>
      <trkpt lat="45.89414" lon="2.85554">
        <ele>788.9</ele>
        <time>2015-04-24T12:40:24Z</time>
      </trkpt>
      <trkpt lat="45.8942" lon="2.85521">
        <ele>788.42</ele>
        <time>2015-04-24T12:40:44Z</time>
      </trkpt>
      <trkpt lat="45.89425" lon="2.85498">
        <ele>788.42</ele>
        <time>2015-04-24T12:40:58Z</time>
      </trkpt>
      <trkpt lat="45.8943" lon="2.85471">
        <ele>788.42</ele>
        <time>2015-04-24T12:41:13Z</time>
      </trkpt>
      <trkpt lat="45.89437" lon="2.85436">
        <ele>788.42</ele>
        <time>2015-04-24T12:41:32Z</time>
      </trkpt>
      <trkpt lat="45.89436" lon="2.85411">
        <ele>787.94</ele>
        <time>2015-04-24T12:41:48Z</time>
      </trkpt>
      <trkpt lat="45.89437" lon="2.85403">
        <ele>787.94</ele>
        <time>2015-04-24T12:42:04Z</time>
      </trkpt>
      <trkpt lat="45.89436" lon="2.8539">
        <ele>788.9</ele>
        <time>2015-04-24T12:42:16Z</time>
      </trkpt>
      <trkpt lat="45.89435" lon="2.85372">
        <ele>788.42</ele>
        <time>2015-04-24T12:42:31Z</time>
      </trkpt>
      <trkpt lat="45.89436" lon="2.8537">
        <ele>787.46</ele>
        <time>2015-04-24T12:42:55Z</time>
      </trkpt>
      <trkpt lat="45.89435" lon="2.85369">
        <ele>787.46</ele>
        <time>2015-04-24T12:43:24Z</time>
      </trkpt>
      <trkpt lat="45.89435" lon="2.85368">
        <ele>787.46</ele>
        <time>2015-04-24T12:43:54Z</time>
      </trkpt>
      <trkpt lat="45.89436" lon="2.85368">
        <ele>787.46</ele>
        <time>2015-04-24T12:44:31Z</time>
      </trkpt>
      <trkpt lat="45.89435" lon="2.85368">
        <ele>787.46</ele>
        <time>2015-04-24T12:45:16Z</time>
      </trkpt>
      <trkpt lat="45.89434" lon="2.8537">
        <ele>786.98</ele>
        <time>2015-04-24T12:45:56Z</time>
      </trkpt>
      <trkpt lat="45.89435" lon="2.8537">
        <ele>787.46</ele>
        <time>2015-04-24T12:46:34Z</time>
      </trkpt>
      <trkpt lat="45.89435" lon="2.85372">
        <ele>786.98</ele>
        <time>2015-04-24T12:47:16Z</time>
      </trkpt>
      <trkpt lat="45.89435" lon="2.8537">
        <ele>786.98</ele>
        <time>2015-04-24T12:47:52Z</time>
      </trkpt>
      <trkpt lat="45.89436" lon="2.8537">
        <ele>787.46</ele>
        <time>2015-04-24T12:48:36Z</time>
      </trkpt>
      <trkpt lat="45.89434" lon="2.85367">
        <ele>786.98</ele>
        <time>2015-04-24T12:49:17Z</time>
      </trkpt>
      <trkpt lat="45.89435" lon="2.8537">
        <ele>787.46</ele>
        <time>2015-04-24T12:49:55Z</time>
      </trkpt>
      <trkpt lat="45.89436" lon="2.85371">
        <ele>787.94</ele>
        <time>2015-04-24T12:50:20Z</time>
      </trkpt>
      <trkpt lat="45.89436" lon="2.8537">
        <ele>787.94</ele>
        <time>2015-04-24T12:50:33Z</time>
      </trkpt>
      <trkpt lat="45.89438" lon="2.85371">
        <ele>786.98</ele>
        <time>2015-04-24T12:50:50Z</time>
      </trkpt>
      <trkpt lat="45.89439" lon="2.85372">
        <ele>787.94</ele>
        <time>2015-04-24T12:51:18Z</time>
      </trkpt>
      <trkpt lat="45.89439" lon="2.85371">
        <ele>788.42</ele>
        <time>2015-04-24T12:51:37Z</time>
      </trkpt>
      <trkpt lat="45.89438" lon="2.85371">
        <ele>787.94</ele>
        <time>2015-04-24T12:51:58Z</time>
      </trkpt>
      <trkpt lat="45.89438" lon="2.85354">
        <ele>787.46</ele>
        <time>2015-04-24T12:52:11Z</time>
      </trkpt>
      <trkpt lat="45.89437" lon="2.85346">
        <ele>787.94</ele>
        <time>2015-04-24T12:52:17Z</time>
      </trkpt>
      <trkpt lat="45.89435" lon="2.8533">
        <ele>787.46</ele>
        <time>2015-04-24T12:52:27Z</time>
      </trkpt>
      <trkpt lat="45.89439" lon="2.8532">
        <ele>787.46</ele>
        <time>2015-04-24T12:52:41Z</time>
      </trkpt>
      <trkpt lat="45.89436" lon="2.85318">
        <ele>787.46</ele>
        <time>2015-04-24T12:52:50Z</time>
      </trkpt>
      <trkpt lat="45.8943" lon="2.85297">
        <ele>786.5</ele>
        <time>2015-04-24T12:53:04Z</time>
      </trkpt>
      <trkpt lat="45.8943" lon="2.85288">
        <ele>786.98</ele>
        <time>2015-04-24T12:53:09Z</time>
      </trkpt>
      <trkpt lat="45.89423" lon="2.85258">
        <ele>786.5</ele>
        <time>2015-04-24T12:53:26Z</time>
      </trkpt>
      <trkpt lat="45.89423" lon="2.85255">
        <ele>786.5</ele>
        <time>2015-04-24T12:53:28Z</time>
      </trkpt>
      <trkpt lat="45.89423" lon="2.85251">
        <ele>786.5</ele>
        <time>2015-04-24T12:53:30Z</time>
      </trkpt>
      <trkpt lat="45.89418" lon="2.85226">
        <ele>786.02</ele>
        <time>2015-04-24T12:53:44Z</time>
      </trkpt>
      <trkpt lat="45.89418" lon="2.85224">
        <ele>786.02</ele>
        <time>2015-04-24T12:53:55Z</time>
      </trkpt>
      <trkpt lat="45.89417" lon="2.85214">
        <ele>786.02</ele>
        <time>2015-04-24T12:54:01Z</time>
      </trkpt>
      <trkpt lat="45.8941" lon="2.85188">
        <ele>785.05</ele>
        <time>2015-04-24T12:54:15Z</time>
      </trkpt>
      <trkpt lat="45.89405" lon="2.85161">
        <ele>784.57</ele>
        <time>2015-04-24T12:54:31Z</time>
      </trkpt>
      <trkpt lat="45.89402" lon="2.85135">
        <ele>784.09</ele>
        <time>2015-04-24T12:54:45Z</time>
      </trkpt>
      <trkpt lat="45.89402" lon="2.85109">
        <ele>783.61</ele>
        <time>2015-04-24T12:54:59Z</time>
      </trkpt>
      <trkpt lat="45.894" lon="2.85099">
        <ele>782.65</ele>
        <time>2015-04-24T12:55:04Z</time>
      </trkpt>
      <trkpt lat="45.89398" lon="2.85073">
        <ele>780.73</ele>
        <time>2015-04-24T12:55:20Z</time>
      </trkpt>
      <trkpt lat="45.89393" lon="2.85048">
        <ele>779.29</ele>
        <time>2015-04-24T12:55:35Z</time>
      </trkpt>
      <trkpt lat="45.89386" lon="2.85025">
        <ele>777.36</ele>
        <time>2015-04-24T12:55:48Z</time>
      </trkpt>
      <trkpt lat="45.89382" lon="2.85001">
        <ele>775.92</ele>
        <time>2015-04-24T12:56:04Z</time>
      </trkpt>
      <trkpt lat="45.89378" lon="2.84971">
        <ele>774</ele>
        <time>2015-04-24T12:56:20Z</time>
      </trkpt>
      <trkpt lat="45.89378" lon="2.84957">
        <ele>773.52</ele>
        <time>2015-04-24T12:56:28Z</time>
      </trkpt>
      <trkpt lat="45.89377" lon="2.84937">
        <ele>773.04</ele>
        <time>2015-04-24T12:56:42Z</time>
      </trkpt>
      <trkpt lat="45.89377" lon="2.84916">
        <ele>772.08</ele>
        <time>2015-04-24T12:56:54Z</time>
      </trkpt>
      <trkpt lat="45.89379" lon="2.84893">
        <ele>770.63</ele>
        <time>2015-04-24T12:57:08Z</time>
      </trkpt>
      <trkpt lat="45.89382" lon="2.84872">
        <ele>768.71</ele>
        <time>2015-04-24T12:57:20Z</time>
      </trkpt>
      <trkpt lat="45.89385" lon="2.84847">
        <ele>767.27</ele>
        <time>2015-04-24T12:57:34Z</time>
      </trkpt>
      <trkpt lat="45.89392" lon="2.84819">
        <ele>765.83</ele>
        <time>2015-04-24T12:57:51Z</time>
      </trkpt>
      <trkpt lat="45.89398" lon="2.84791">
        <ele>764.39</ele>
        <time>2015-04-24T12:58:08Z</time>
      </trkpt>
      <trkpt lat="45.89404" lon="2.84767">
        <ele>762.46</ele>
        <time>2015-04-24T12:58:22Z</time>
      </trkpt>
      <trkpt lat="45.89409" lon="2.84745">
        <ele>760.54</ele>
        <time>2015-04-24T12:58:37Z</time>
      </trkpt>
      <trkpt lat="45.89409" lon="2.84743">
        <ele>761.02</ele>
        <time>2015-04-24T12:58:38Z</time>
      </trkpt>
      <trkpt lat="45.89411" lon="2.84732">
        <ele>760.54</ele>
        <time>2015-04-24T12:58:44Z</time>
      </trkpt>
      <trkpt lat="45.89414" lon="2.84732">
        <ele>760.06</ele>
        <time>2015-04-24T12:59:02Z</time>
      </trkpt>
      <trkpt lat="45.89416" lon="2.8471">
        <ele>759.1</ele>
        <time>2015-04-24T12:59:18Z</time>
      </trkpt>
      <trkpt lat="45.89423" lon="2.84687">
        <ele>757.66</ele>
        <time>2015-04-24T12:59:32Z</time>
      </trkpt>
      <trkpt lat="45.89424" lon="2.84683">
        <ele>757.66</ele>
        <time>2015-04-24T12:59:34Z</time>
      </trkpt>
      <trkpt lat="45.89424" lon="2.84674">
        <ele>756.69</ele>
        <time>2015-04-24T12:59:39Z</time>
      </trkpt>
      <trkpt lat="45.89425" lon="2.84669">
        <ele>756.69</ele>
        <time>2015-04-24T12:59:42Z</time>
      </trkpt>
      <trkpt lat="45.89428" lon="2.84639">
        <ele>755.25</ele>
        <time>2015-04-24T13:00:00Z</time>
      </trkpt>
      <trkpt lat="45.89431" lon="2.84616">
        <ele>753.81</ele>
        <time>2015-04-24T13:00:14Z</time>
      </trkpt>
      <trkpt lat="45.89426" lon="2.8462">
        <ele>753.81</ele>
        <time>2015-04-24T13:00:30Z</time>
      </trkpt>
      <trkpt lat="45.89428" lon="2.84605">
        <ele>753.33</ele>
        <time>2015-04-24T13:00:49Z</time>
      </trkpt>
      <trkpt lat="45.8943" lon="2.84586">
        <ele>751.89</ele>
        <time>2015-04-24T13:01:02Z</time>
      </trkpt>
      <trkpt lat="45.89437" lon="2.8456">
        <ele>749.97</ele>
        <time>2015-04-24T13:01:19Z</time>
      </trkpt>
      <trkpt lat="45.89448" lon="2.84533">
        <ele>748.04</ele>
        <time>2015-04-24T13:01:35Z</time>
      </trkpt>
      <trkpt lat="45.89454" lon="2.84524">
        <ele>747.56</ele>
        <time>2015-04-24T13:01:43Z</time>
      </trkpt>
      <trkpt lat="45.89459" lon="2.84518">
        <ele>746.6</ele>
        <time>2015-04-24T13:01:57Z</time>
      </trkpt>
      <trkpt lat="45.89461" lon="2.84519">
        <ele>746.12</ele>
        <time>2015-04-24T13:02:09Z</time>
      </trkpt>
      <trkpt lat="45.89477" lon="2.84508">
        <ele>745.16</ele>
        <time>2015-04-24T13:02:23Z</time>
      </trkpt>
      <trkpt lat="45.89487" lon="2.84488">
        <ele>745.16</ele>
        <time>2015-04-24T13:02:40Z</time>
      </trkpt>
      <trkpt lat="45.89488" lon="2.84471">
        <ele>744.68</ele>
        <time>2015-04-24T13:02:52Z</time>
      </trkpt>
      <trkpt lat="45.89483" lon="2.84454">
        <ele>744.2</ele>
        <time>2015-04-24T13:03:07Z</time>
      </trkpt>
      <trkpt lat="45.89479" lon="2.84453">
        <ele>744.2</ele>
        <time>2015-04-24T13:03:24Z</time>
      </trkpt>
      <trkpt lat="45.89477" lon="2.84435">
        <ele>744.2</ele>
        <time>2015-04-24T13:03:35Z</time>
      </trkpt>
      <trkpt lat="45.89475" lon="2.8442">
        <ele>744.68</ele>
        <time>2015-04-24T13:03:46Z</time>
      </trkpt>
      <trkpt lat="45.89472" lon="2.84407">
        <ele>745.16</ele>
        <time>2015-04-24T13:04:00Z</time>
      </trkpt>
      <trkpt lat="45.89471" lon="2.84407">
        <ele>744.68</ele>
        <time>2015-04-24T13:04:25Z</time>
      </trkpt>
      <trkpt lat="45.89461" lon="2.84413">
        <ele>744.2</ele>
        <time>2015-04-24T13:04:41Z</time>
      </trkpt>
      <trkpt lat="45.89462" lon="2.84407">
        <ele>744.2</ele>
        <time>2015-04-24T13:05:03Z</time>
      </trkpt>
      <trkpt lat="45.89467" lon="2.84408">
        <ele>744.2</ele>
        <time>2015-04-24T13:05:27Z</time>
      </trkpt>
      <trkpt lat="45.89469" lon="2.84391">
        <ele>745.16</ele>
        <time>2015-04-24T13:05:41Z</time>
      </trkpt>
      <trkpt lat="45.89466" lon="2.84365">
        <ele>745.16</ele>
        <time>2015-04-24T13:05:57Z</time>
      </trkpt>
      <trkpt lat="45.89465" lon="2.84337">
        <ele>745.64</ele>
        <time>2015-04-24T13:06:12Z</time>
      </trkpt>
      <trkpt lat="45.89463" lon="2.84309">
        <ele>745.16</ele>
        <time>2015-04-24T13:06:28Z</time>
      </trkpt>
      <trkpt lat="45.8946" lon="2.84282">
        <ele>745.64</ele>
        <time>2015-04-24T13:06:43Z</time>
      </trkpt>
      <trkpt lat="45.89462" lon="2.84263">
        <ele>745.64</ele>
        <time>2015-04-24T13:06:58Z</time>
      </trkpt>
      <trkpt lat="45.89456" lon="2.84249">
        <ele>745.64</ele>
        <time>2015-04-24T13:07:12Z</time>
      </trkpt>
      <trkpt lat="45.89453" lon="2.84224">
        <ele>744.2</ele>
        <time>2015-04-24T13:07:28Z</time>
      </trkpt>
      <trkpt lat="45.89453" lon="2.84222">
        <ele>744.68</ele>
        <time>2015-04-24T13:07:29Z</time>
      </trkpt>
      <trkpt lat="45.89449" lon="2.84192">
        <ele>742.76</ele>
        <time>2015-04-24T13:07:46Z</time>
      </trkpt>
      <trkpt lat="45.89448" lon="2.84186">
        <ele>742.76</ele>
        <time>2015-04-24T13:07:49Z</time>
      </trkpt>
      <trkpt lat="45.8944" lon="2.84161">
        <ele>739.87</ele>
        <time>2015-04-24T13:08:04Z</time>
      </trkpt>
      <trkpt lat="45.89437" lon="2.84154">
        <ele>740.35</ele>
        <time>2015-04-24T13:08:07Z</time>
      </trkpt>
      <trkpt lat="45.89433" lon="2.84142">
        <ele>739.87</ele>
        <time>2015-04-24T13:08:13Z</time>
      </trkpt>
      <trkpt lat="45.89428" lon="2.84117">
        <ele>738.43</ele>
        <time>2015-04-24T13:08:30Z</time>
      </trkpt>
      <trkpt lat="45.89422" lon="2.84102">
        <ele>737.95</ele>
        <time>2015-04-24T13:08:45Z</time>
      </trkpt>
      <trkpt lat="45.8941" lon="2.84074">
        <ele>736.03</ele>
        <time>2015-04-24T13:09:02Z</time>
      </trkpt>
      <trkpt lat="45.89404" lon="2.84063">
        <ele>735.07</ele>
        <time>2015-04-24T13:09:12Z</time>
      </trkpt>
      <trkpt lat="45.89393" lon="2.8404">
        <ele>733.62</ele>
        <time>2015-04-24T13:09:26Z</time>
      </trkpt>
      <trkpt lat="45.89378" lon="2.84022">
        <ele>732.18</ele>
        <time>2015-04-24T13:09:41Z</time>
      </trkpt>
      <trkpt lat="45.8937" lon="2.84008">
        <ele>730.74</ele>
        <time>2015-04-24T13:09:57Z</time>
      </trkpt>
      <trkpt lat="45.89358" lon="2.8399">
        <ele>729.78</ele>
        <time>2015-04-24T13:10:15Z</time>
      </trkpt>
      <trkpt lat="45.8935" lon="2.83977">
        <ele>729.78</ele>
        <time>2015-04-24T13:10:30Z</time>
      </trkpt>
      <trkpt lat="45.89337" lon="2.83965">
        <ele>728.34</ele>
        <time>2015-04-24T13:10:44Z</time>
      </trkpt>
      <trkpt lat="45.8933" lon="2.83964">
        <ele>727.37</ele>
        <time>2015-04-24T13:10:58Z</time>
      </trkpt>
      <trkpt lat="45.89321" lon="2.83954">
        <ele>727.37</ele>
        <time>2015-04-24T13:11:17Z</time>
      </trkpt>
      <trkpt lat="45.89319" lon="2.83949">
        <ele>726.89</ele>
        <time>2015-04-24T13:11:27Z</time>
      </trkpt>
      <trkpt lat="45.89316" lon="2.83947">
        <ele>726.41</ele>
        <time>2015-04-24T13:11:29Z</time>
      </trkpt>
      <trkpt lat="45.8931" lon="2.83936">
        <ele>726.89</ele>
        <time>2015-04-24T13:11:43Z</time>
      </trkpt>
      <trkpt lat="45.8931" lon="2.83937">
        <ele>726.41</ele>
        <time>2015-04-24T13:12:04Z</time>
      </trkpt>
      <trkpt lat="45.89295" lon="2.83923">
        <ele>725.93</ele>
        <time>2015-04-24T13:12:17Z</time>
      </trkpt>
      <trkpt lat="45.89294" lon="2.83923">
        <ele>726.41</ele>
        <time>2015-04-24T13:12:21Z</time>
      </trkpt>
      <trkpt lat="45.89288" lon="2.83916">
        <ele>725.93</ele>
        <time>2015-04-24T13:12:28Z</time>
      </trkpt>
      <trkpt lat="45.89277" lon="2.83898">
        <ele>724.49</ele>
        <time>2015-04-24T13:12:41Z</time>
      </trkpt>
      <trkpt lat="45.89264" lon="2.83873">
        <ele>723.53</ele>
        <time>2015-04-24T13:12:56Z</time>
      </trkpt>
      <trkpt lat="45.89255" lon="2.83855">
        <ele>722.57</ele>
        <time>2015-04-24T13:13:09Z</time>
      </trkpt>
      <trkpt lat="45.89246" lon="2.83835">
        <ele>720.65</ele>
        <time>2015-04-24T13:13:25Z</time>
      </trkpt>
      <trkpt lat="45.89236" lon="2.83809">
        <ele>718.24</ele>
        <time>2015-04-24T13:13:41Z</time>
      </trkpt>
      <trkpt lat="45.89232" lon="2.83782">
        <ele>716.8</ele>
        <time>2015-04-24T13:13:55Z</time>
      </trkpt>
      <trkpt lat="45.89225" lon="2.8376">
        <ele>715.36</ele>
        <time>2015-04-24T13:14:08Z</time>
      </trkpt>
      <trkpt lat="45.89224" lon="2.83754">
        <ele>714.4</ele>
        <time>2015-04-24T13:14:12Z</time>
      </trkpt>
      <trkpt lat="45.89223" lon="2.83732">
        <ele>713.44</ele>
        <time>2015-04-24T13:14:25Z</time>
      </trkpt>
      <trkpt lat="45.8922" lon="2.8371">
        <ele>711.99</ele>
        <time>2015-04-24T13:14:39Z</time>
      </trkpt>
      <trkpt lat="45.89227" lon="2.83687">
        <ele>710.07</ele>
        <time>2015-04-24T13:14:54Z</time>
      </trkpt>
      <trkpt lat="45.89229" lon="2.83685">
        <ele>710.07</ele>
        <time>2015-04-24T13:14:56Z</time>
      </trkpt>
      <trkpt lat="45.89232" lon="2.83682">
        <ele>709.11</ele>
        <time>2015-04-24T13:14:59Z</time>
      </trkpt>
      <trkpt lat="45.89249" lon="2.8367">
        <ele>706.71</ele>
        <time>2015-04-24T13:15:15Z</time>
      </trkpt>
      <trkpt lat="45.89259" lon="2.8366">
        <ele>705.75</ele>
        <time>2015-04-24T13:15:27Z</time>
      </trkpt>
      <trkpt lat="45.89264" lon="2.83662">
        <ele>705.26</ele>
        <time>2015-04-24T13:15:39Z</time>
      </trkpt>
      <trkpt lat="45.89271" lon="2.83649">
        <ele>704.3</ele>
        <time>2015-04-24T13:16:04Z</time>
      </trkpt>
      <trkpt lat="45.89272" lon="2.83646">
        <ele>704.78</ele>
        <time>2015-04-24T13:16:06Z</time>
      </trkpt>
      <trkpt lat="45.89282" lon="2.83628">
        <ele>703.34</ele>
        <time>2015-04-24T13:16:20Z</time>
      </trkpt>
      <trkpt lat="45.89287" lon="2.83626">
        <ele>702.86</ele>
        <time>2015-04-24T13:16:42Z</time>
      </trkpt>
      <trkpt lat="45.89295" lon="2.8362">
        <ele>702.38</ele>
        <time>2015-04-24T13:16:49Z</time>
      </trkpt>
      <trkpt lat="45.8931" lon="2.83613">
        <ele>700.46</ele>
        <time>2015-04-24T13:17:03Z</time>
      </trkpt>
      <trkpt lat="45.89323" lon="2.83609">
        <ele>697.57</ele>
        <time>2015-04-24T13:17:16Z</time>
      </trkpt>
      <trkpt lat="45.89336" lon="2.83604">
        <ele>696.61</ele>
        <time>2015-04-24T13:17:30Z</time>
      </trkpt>
      <trkpt lat="45.89338" lon="2.83603">
        <ele>696.61</ele>
        <time>2015-04-24T13:17:35Z</time>
      </trkpt>
      <trkpt lat="45.89352" lon="2.83597">
        <ele>695.17</ele>
        <time>2015-04-24T13:17:50Z</time>
      </trkpt>
      <trkpt lat="45.89367" lon="2.83586">
        <ele>693.25</ele>
        <time>2015-04-24T13:18:05Z</time>
      </trkpt>
      <trkpt lat="45.89381" lon="2.83573">
        <ele>691.33</ele>
        <time>2015-04-24T13:18:20Z</time>
      </trkpt>
      <trkpt lat="45.89389" lon="2.83568">
        <ele>690.36</ele>
        <time>2015-04-24T13:18:27Z</time>
      </trkpt>
      <trkpt lat="45.89397" lon="2.83567">
        <ele>688.44</ele>
        <time>2015-04-24T13:18:43Z</time>
      </trkpt>
      <trkpt lat="45.89413" lon="2.83562">
        <ele>686.04</ele>
        <time>2015-04-24T13:18:58Z</time>
      </trkpt>
      <trkpt lat="45.89413" lon="2.83554">
        <ele>685.56</ele>
        <time>2015-04-24T13:19:18Z</time>
      </trkpt>
      <trkpt lat="45.89413" lon="2.83554">
        <ele>686.04</ele>
        <time>2015-04-24T13:19:39Z</time>
      </trkpt>
      <trkpt lat="45.89416" lon="2.83558">
        <ele>686.04</ele>
        <time>2015-04-24T13:20:09Z</time>
      </trkpt>
      <trkpt lat="45.89409" lon="2.83553">
        <ele>686.04</ele>
        <time>2015-04-24T13:20:39Z</time>
      </trkpt>
      <trkpt lat="45.89417" lon="2.83558">
        <ele>685.56</ele>
        <time>2015-04-24T13:21:01Z</time>
      </trkpt>
      <trkpt lat="45.8943" lon="2.8356">
        <ele>684.12</ele>
        <time>2015-04-24T13:21:16Z</time>
      </trkpt>
      <trkpt lat="45.89434" lon="2.83561">
        <ele>683.15</ele>
        <time>2015-04-24T13:21:20Z</time>
      </trkpt>
      <trkpt lat="45.89437" lon="2.83562">
        <ele>683.15</ele>
        <time>2015-04-24T13:21:23Z</time>
      </trkpt>
      <trkpt lat="45.89443" lon="2.83563">
        <ele>681.23</ele>
        <time>2015-04-24T13:21:29Z</time>
      </trkpt>
      <trkpt lat="45.89456" lon="2.83563">
        <ele>679.79</ele>
        <time>2015-04-24T13:21:41Z</time>
      </trkpt>
      <trkpt lat="45.89455" lon="2.83551">
        <ele>676.91</ele>
        <time>2015-04-24T13:21:55Z</time>
      </trkpt>
      <trkpt lat="45.89452" lon="2.8355">
        <ele>676.91</ele>
        <time>2015-04-24T13:21:58Z</time>
      </trkpt>
      <trkpt lat="45.89445" lon="2.83551">
        <ele>676.42</ele>
        <time>2015-04-24T13:22:15Z</time>
      </trkpt>
      <trkpt lat="45.89438" lon="2.83538">
        <ele>674.98</ele>
        <time>2015-04-24T13:22:29Z</time>
      </trkpt>
      <trkpt lat="45.89434" lon="2.83537">
        <ele>674.98</ele>
        <time>2015-04-24T13:22:53Z</time>
      </trkpt>
      <trkpt lat="45.89441" lon="2.83526">
        <ele>674.98</ele>
        <time>2015-04-24T13:23:13Z</time>
      </trkpt>
      <trkpt lat="45.89439" lon="2.83537">
        <ele>675.46</ele>
        <time>2015-04-24T13:23:35Z</time>
      </trkpt>
      <trkpt lat="45.89434" lon="2.83549">
        <ele>672.1</ele>
        <time>2015-04-24T13:23:45Z</time>
      </trkpt>
      <trkpt lat="45.89434" lon="2.8355">
        <ele>677.87</ele>
        <time>2015-04-24T13:23:46Z</time>
      </trkpt>
      <trkpt lat="45.89434" lon="2.8355">
        <ele>674.5</ele>
        <time>2015-04-24T13:23:47Z</time>
      </trkpt>
      <trkpt lat="45.89432" lon="2.83559">
        <ele>675.46</ele>
        <time>2015-04-24T13:24:16Z</time>
      </trkpt>
      <trkpt lat="45.8943" lon="2.83557">
        <ele>675.46</ele>
        <time>2015-04-24T13:24:37Z</time>
      </trkpt>
      <trkpt lat="45.89432" lon="2.83568">
        <ele>674.98</ele>
        <time>2015-04-24T13:25:06Z</time>
      </trkpt>
      <trkpt lat="45.89428" lon="2.83579">
        <ele>674.98</ele>
        <time>2015-04-24T13:25:42Z</time>
      </trkpt>
      <trkpt lat="45.89433" lon="2.83565">
        <ele>674.98</ele>
        <time>2015-04-24T13:26:12Z</time>
      </trkpt>
      <trkpt lat="45.89433" lon="2.83561">
        <ele>675.94</ele>
        <time>2015-04-24T13:26:47Z</time>
      </trkpt>
      <trkpt lat="45.8943" lon="2.8356">
        <ele>675.94</ele>
        <time>2015-04-24T13:27:09Z</time>
      </trkpt>
      <trkpt lat="45.89428" lon="2.83541">
        <ele>676.91</ele>
        <time>2015-04-24T13:27:30Z</time>
      </trkpt>
      <trkpt lat="45.89434" lon="2.83533">
        <ele>676.42</ele>
        <time>2015-04-24T13:27:55Z</time>
      </trkpt>
      <trkpt lat="45.89436" lon="2.83536">
        <ele>676.91</ele>
        <time>2015-04-24T13:28:16Z</time>
      </trkpt>
      <trkpt lat="45.89433" lon="2.83542">
        <ele>676.91</ele>
        <time>2015-04-24T13:28:37Z</time>
      </trkpt>
      <trkpt lat="45.89437" lon="2.83537">
        <ele>676.42</ele>
        <time>2015-04-24T13:28:48Z</time>
      </trkpt>
      <trkpt lat="45.89439" lon="2.83532">
        <ele>676.91</ele>
        <time>2015-04-24T13:29:04Z</time>
      </trkpt>
      <trkpt lat="45.8944" lon="2.83533">
        <ele>676.42</ele>
        <time>2015-04-24T13:29:21Z</time>
      </trkpt>
      <trkpt lat="45.89439" lon="2.83515">
        <ele>676.42</ele>
        <time>2015-04-24T13:29:34Z</time>
      </trkpt>
      <trkpt lat="45.89438" lon="2.83523">
        <ele>675.94</ele>
        <time>2015-04-24T13:29:48Z</time>
      </trkpt>
      <trkpt lat="45.89447" lon="2.83524">
        <ele>676.42</ele>
        <time>2015-04-24T13:30:09Z</time>
      </trkpt>
      <trkpt lat="45.89452" lon="2.83516">
        <ele>676.91</ele>
        <time>2015-04-24T13:30:32Z</time>
      </trkpt>
      <trkpt lat="45.89453" lon="2.83515">
        <ele>677.39</ele>
        <time>2015-04-24T13:30:53Z</time>
      </trkpt>
      <trkpt lat="45.89452" lon="2.83516">
        <ele>676.91</ele>
        <time>2015-04-24T13:31:16Z</time>
      </trkpt>
      <trkpt lat="45.89457" lon="2.83522">
        <ele>678.35</ele>
        <time>2015-04-24T13:31:30Z</time>
      </trkpt>
      <trkpt lat="45.89465" lon="2.8352">
        <ele>678.35</ele>
        <time>2015-04-24T13:31:46Z</time>
      </trkpt>
      <trkpt lat="45.89484" lon="2.83529">
        <ele>680.27</ele>
        <time>2015-04-24T13:32:02Z</time>
      </trkpt>
      <trkpt lat="45.89497" lon="2.83527">
        <ele>680.75</ele>
        <time>2015-04-24T13:32:14Z</time>
      </trkpt>
      <trkpt lat="45.89497" lon="2.83536">
        <ele>682.19</ele>
        <time>2015-04-24T13:32:29Z</time>
      </trkpt>
      <trkpt lat="45.89495" lon="2.83532">
        <ele>681.71</ele>
        <time>2015-04-24T13:32:43Z</time>
      </trkpt>
      <trkpt lat="45.89494" lon="2.8354">
        <ele>682.19</ele>
        <time>2015-04-24T13:33:00Z</time>
      </trkpt>
      <trkpt lat="45.89486" lon="2.83533">
        <ele>681.23</ele>
        <time>2015-04-24T13:33:22Z</time>
      </trkpt>
      <trkpt lat="45.89497" lon="2.83532">
        <ele>682.19</ele>
        <time>2015-04-24T13:33:40Z</time>
      </trkpt>
      <trkpt lat="45.89501" lon="2.83539">
        <ele>684.12</ele>
        <time>2015-04-24T13:33:55Z</time>
      </trkpt>
      <trkpt lat="45.89514" lon="2.83539">
        <ele>685.56</ele>
        <time>2015-04-24T13:34:11Z</time>
      </trkpt>
      <trkpt lat="45.89528" lon="2.83534">
        <ele>688.44</ele>
        <time>2015-04-24T13:34:24Z</time>
      </trkpt>
      <trkpt lat="45.89536" lon="2.83543">
        <ele>689.4</ele>
        <time>2015-04-24T13:34:40Z</time>
      </trkpt>
      <trkpt lat="45.89531" lon="2.83566">
        <ele>689.4</ele>
        <time>2015-04-24T13:35:09Z</time>
      </trkpt>
      <trkpt lat="45.89531" lon="2.83547">
        <ele>689.88</ele>
        <time>2015-04-24T13:35:31Z</time>
      </trkpt>
      <trkpt lat="45.89538" lon="2.83553">
        <ele>691.33</ele>
        <time>2015-04-24T13:35:52Z</time>
      </trkpt>
      <trkpt lat="45.89547" lon="2.8355">
        <ele>692.77</ele>
        <time>2015-04-24T13:36:06Z</time>
      </trkpt>
      <trkpt lat="45.89559" lon="2.83557">
        <ele>695.17</ele>
        <time>2015-04-24T13:36:24Z</time>
      </trkpt>
      <trkpt lat="45.89579" lon="2.83549">
        <ele>697.57</ele>
        <time>2015-04-24T13:36:39Z</time>
      </trkpt>
      <trkpt lat="45.8958" lon="2.83535">
        <ele>699.02</ele>
        <time>2015-04-24T13:36:53Z</time>
      </trkpt>
      <trkpt lat="45.89574" lon="2.83537">
        <ele>700.94</ele>
        <time>2015-04-24T13:37:06Z</time>
      </trkpt>
      <trkpt lat="45.89566" lon="2.83526">
        <ele>702.86</ele>
        <time>2015-04-24T13:37:21Z</time>
      </trkpt>
      <trkpt lat="45.89563" lon="2.83522">
        <ele>702.38</ele>
        <time>2015-04-24T13:37:47Z</time>
      </trkpt>
      <trkpt lat="45.89564" lon="2.83526">
        <ele>703.34</ele>
        <time>2015-04-24T13:38:17Z</time>
      </trkpt>
      <trkpt lat="45.8956" lon="2.83521">
        <ele>702.86</ele>
        <time>2015-04-24T13:38:53Z</time>
      </trkpt>
      <trkpt lat="45.89557" lon="2.83515">
        <ele>703.34</ele>
        <time>2015-04-24T13:39:06Z</time>
      </trkpt>
      <trkpt lat="45.89553" lon="2.83507">
        <ele>704.78</ele>
        <time>2015-04-24T13:39:19Z</time>
      </trkpt>
      <trkpt lat="45.89542" lon="2.83493">
        <ele>705.75</ele>
        <time>2015-04-24T13:39:33Z</time>
      </trkpt>
      <trkpt lat="45.89533" lon="2.83481">
        <ele>709.11</ele>
        <time>2015-04-24T13:39:47Z</time>
      </trkpt>
      <trkpt lat="45.89524" lon="2.83467">
        <ele>710.55</ele>
        <time>2015-04-24T13:40:01Z</time>
      </trkpt>
      <trkpt lat="45.89515" lon="2.83459">
        <ele>710.55</ele>
        <time>2015-04-24T13:40:17Z</time>
      </trkpt>
      <trkpt lat="45.89507" lon="2.83456">
        <ele>711.99</ele>
        <time>2015-04-24T13:40:38Z</time>
      </trkpt>
      <trkpt lat="45.89498" lon="2.83448">
        <ele>712.95</ele>
        <time>2015-04-24T13:40:48Z</time>
      </trkpt>
      <trkpt lat="45.8949" lon="2.83437">
        <ele>713.44</ele>
        <time>2015-04-24T13:40:58Z</time>
      </trkpt>
      <trkpt lat="45.89479" lon="2.83408">
        <ele>713.92</ele>
        <time>2015-04-24T13:41:14Z</time>
      </trkpt>
      <trkpt lat="45.8947" lon="2.83384">
        <ele>714.4</ele>
        <time>2015-04-24T13:41:29Z</time>
      </trkpt>
      <trkpt lat="45.89459" lon="2.83366">
        <ele>715.84</ele>
        <time>2015-04-24T13:41:43Z</time>
      </trkpt>
      <trkpt lat="45.89451" lon="2.83351">
        <ele>716.8</ele>
        <time>2015-04-24T13:41:56Z</time>
      </trkpt>
      <trkpt lat="45.89448" lon="2.83344">
        <ele>717.28</ele>
        <time>2015-04-24T13:42:01Z</time>
      </trkpt>
      <trkpt lat="45.89443" lon="2.83333">
        <ele>717.76</ele>
        <time>2015-04-24T13:42:09Z</time>
      </trkpt>
      <trkpt lat="45.8944" lon="2.83325">
        <ele>718.24</ele>
        <time>2015-04-24T13:42:16Z</time>
      </trkpt>
      <trkpt lat="45.89428" lon="2.83312">
        <ele>719.68</ele>
        <time>2015-04-24T13:42:31Z</time>
      </trkpt>
      <trkpt lat="45.8942" lon="2.83297">
        <ele>721.13</ele>
        <time>2015-04-24T13:42:47Z</time>
      </trkpt>
      <trkpt lat="45.89411" lon="2.83285">
        <ele>722.09</ele>
        <time>2015-04-24T13:43:00Z</time>
      </trkpt>
      <trkpt lat="45.89403" lon="2.83276">
        <ele>723.53</ele>
        <time>2015-04-24T13:43:12Z</time>
      </trkpt>
      <trkpt lat="45.89395" lon="2.83262">
        <ele>724.49</ele>
        <time>2015-04-24T13:43:31Z</time>
      </trkpt>
      <trkpt lat="45.8939" lon="2.8326">
        <ele>725.93</ele>
        <time>2015-04-24T13:43:34Z</time>
      </trkpt>
      <trkpt lat="45.89377" lon="2.83247">
        <ele>726.89</ele>
        <time>2015-04-24T13:43:49Z</time>
      </trkpt>
      <trkpt lat="45.89364" lon="2.83234">
        <ele>728.34</ele>
        <time>2015-04-24T13:44:04Z</time>
      </trkpt>
      <trkpt lat="45.89363" lon="2.83232">
        <ele>729.3</ele>
        <time>2015-04-24T13:44:06Z</time>
      </trkpt>
      <trkpt lat="45.89352" lon="2.83221">
        <ele>730.26</ele>
        <time>2015-04-24T13:44:22Z</time>
      </trkpt>
      <trkpt lat="45.89351" lon="2.83214">
        <ele>730.74</ele>
        <time>2015-04-24T13:44:25Z</time>
      </trkpt>
      <trkpt lat="45.89348" lon="2.83196">
        <ele>731.7</ele>
        <time>2015-04-24T13:44:32Z</time>
      </trkpt>
      <trkpt lat="45.89344" lon="2.83187">
        <ele>732.18</ele>
        <time>2015-04-24T13:44:50Z</time>
      </trkpt>
      <trkpt lat="45.89343" lon="2.83186">
        <ele>732.66</ele>
        <time>2015-04-24T13:44:51Z</time>
      </trkpt>
      <trkpt lat="45.89344" lon="2.83176">
        <ele>732.66</ele>
        <time>2015-04-24T13:44:58Z</time>
      </trkpt>
      <trkpt lat="45.89349" lon="2.83182">
        <ele>733.62</ele>
        <time>2015-04-24T13:45:12Z</time>
      </trkpt>
      <trkpt lat="45.8935" lon="2.83177">
        <ele>733.62</ele>
        <time>2015-04-24T13:45:29Z</time>
      </trkpt>
      <trkpt lat="45.89345" lon="2.83172">
        <ele>733.62</ele>
        <time>2015-04-24T13:45:56Z</time>
      </trkpt>
      <trkpt lat="45.8935" lon="2.83184">
        <ele>733.14</ele>
        <time>2015-04-24T13:46:17Z</time>
      </trkpt>
      <trkpt lat="45.89351" lon="2.83179">
        <ele>732.18</ele>
        <time>2015-04-24T13:46:39Z</time>
      </trkpt>
      <trkpt lat="45.89347" lon="2.83176">
        <ele>732.66</ele>
        <time>2015-04-24T13:47:11Z</time>
      </trkpt>
      <trkpt lat="45.89344" lon="2.83172">
        <ele>732.66</ele>
        <time>2015-04-24T13:47:47Z</time>
      </trkpt>
      <trkpt lat="45.89343" lon="2.83171">
        <ele>732.66</ele>
        <time>2015-04-24T13:48:25Z</time>
      </trkpt>
      <trkpt lat="45.89348" lon="2.83175">
        <ele>733.14</ele>
        <time>2015-04-24T13:48:57Z</time>
      </trkpt>
      <trkpt lat="45.89344" lon="2.83174">
        <ele>732.66</ele>
        <time>2015-04-24T13:49:34Z</time>
      </trkpt>
      <trkpt lat="45.89347" lon="2.83174">
        <ele>732.66</ele>
        <time>2015-04-24T13:50:15Z</time>
      </trkpt>
      <trkpt lat="45.89347" lon="2.83172">
        <ele>732.66</ele>
        <time>2015-04-24T13:51:01Z</time>
      </trkpt>
      <trkpt lat="45.89347" lon="2.83176">
        <ele>732.66</ele>
        <time>2015-04-24T13:51:39Z</time>
      </trkpt>
      <trkpt lat="45.89346" lon="2.83176">
        <ele>732.66</ele>
        <time>2015-04-24T13:52:14Z</time>
      </trkpt>
      <trkpt lat="45.89346" lon="2.83176">
        <ele>732.66</ele>
        <time>2015-04-24T13:52:49Z</time>
      </trkpt>
      <trkpt lat="45.89347" lon="2.83178">
        <ele>732.18</ele>
        <time>2015-04-24T13:53:19Z</time>
      </trkpt>
      <trkpt lat="45.8935" lon="2.83183">
        <ele>732.66</ele>
        <time>2015-04-24T13:53:59Z</time>
      </trkpt>
      <trkpt lat="45.89353" lon="2.83184">
        <ele>732.66</ele>
        <time>2015-04-24T13:54:37Z</time>
      </trkpt>
      <trkpt lat="45.89351" lon="2.83184">
        <ele>732.66</ele>
        <time>2015-04-24T13:55:25Z</time>
      </trkpt>
      <trkpt lat="45.89353" lon="2.83186">
        <ele>732.66</ele>
        <time>2015-04-24T13:56:01Z</time>
      </trkpt>
      <trkpt lat="45.89354" lon="2.83186">
        <ele>732.66</ele>
        <time>2015-04-24T13:56:46Z</time>
      </trkpt>
      <trkpt lat="45.8936" lon="2.8318">
        <ele>732.66</ele>
        <time>2015-04-24T13:57:33Z</time>
      </trkpt>
      <trkpt lat="45.89359" lon="2.83183">
        <ele>732.66</ele>
        <time>2015-04-24T13:58:21Z</time>
      </trkpt>
      <trkpt lat="45.89359" lon="2.83184">
        <ele>732.66</ele>
        <time>2015-04-24T13:58:59Z</time>
      </trkpt>
      <trkpt lat="45.89354" lon="2.83187">
        <ele>733.14</ele>
        <time>2015-04-24T13:59:32Z</time>
      </trkpt>
      <trkpt lat="45.89356" lon="2.8319">
        <ele>733.14</ele>
        <time>2015-04-24T14:00:15Z</time>
      </trkpt>
      <trkpt lat="45.89356" lon="2.8318">
        <ele>733.14</ele>
        <time>2015-04-24T14:00:52Z</time>
      </trkpt>
      <trkpt lat="45.89346" lon="2.83177">
        <ele>733.14</ele>
        <time>2015-04-24T14:01:34Z</time>
      </trkpt>
      <trkpt lat="45.89344" lon="2.83173">
        <ele>733.62</ele>
        <time>2015-04-24T14:02:13Z</time>
      </trkpt>
      <trkpt lat="45.89349" lon="2.83182">
        <ele>732.66</ele>
        <time>2015-04-24T14:02:58Z</time>
      </trkpt>
      <trkpt lat="45.89346" lon="2.8318">
        <ele>733.14</ele>
        <time>2015-04-24T14:03:37Z</time>
      </trkpt>
      <trkpt lat="45.89346" lon="2.83184">
        <ele>733.14</ele>
        <time>2015-04-24T14:04:06Z</time>
      </trkpt>
      <trkpt lat="45.89347" lon="2.83186">
        <ele>733.14</ele>
        <time>2015-04-24T14:04:40Z</time>
      </trkpt>
      <trkpt lat="45.89347" lon="2.83178">
        <ele>732.66</ele>
        <time>2015-04-24T14:05:21Z</time>
      </trkpt>
      <trkpt lat="45.89348" lon="2.83186">
        <ele>733.14</ele>
        <time>2015-04-24T14:06:02Z</time>
      </trkpt>
      <trkpt lat="45.89349" lon="2.83181">
        <ele>732.66</ele>
        <time>2015-04-24T14:06:49Z</time>
      </trkpt>
      <trkpt lat="45.89352" lon="2.8318">
        <ele>732.66</ele>
        <time>2015-04-24T14:07:37Z</time>
      </trkpt>
      <trkpt lat="45.8935" lon="2.83183">
        <ele>732.66</ele>
        <time>2015-04-24T14:08:21Z</time>
      </trkpt>
      <trkpt lat="45.8935" lon="2.83189">
        <ele>733.62</ele>
        <time>2015-04-24T14:08:59Z</time>
      </trkpt>
      <trkpt lat="45.89349" lon="2.83189">
        <ele>733.14</ele>
        <time>2015-04-24T14:09:38Z</time>
      </trkpt>
      <trkpt lat="45.89349" lon="2.83182">
        <ele>732.66</ele>
        <time>2015-04-24T14:10:20Z</time>
      </trkpt>
      <trkpt lat="45.89348" lon="2.83183">
        <ele>732.66</ele>
        <time>2015-04-24T14:10:59Z</time>
      </trkpt>
      <trkpt lat="45.89347" lon="2.83185">
        <ele>733.14</ele>
        <time>2015-04-24T14:11:46Z</time>
      </trkpt>
      <trkpt lat="45.8935" lon="2.83184">
        <ele>732.66</ele>
        <time>2015-04-24T14:12:33Z</time>
      </trkpt>
      <trkpt lat="45.89352" lon="2.83179">
        <ele>733.14</ele>
        <time>2015-04-24T14:13:15Z</time>
      </trkpt>
      <trkpt lat="45.89347" lon="2.83182">
        <ele>732.66</ele>
        <time>2015-04-24T14:13:58Z</time>
      </trkpt>
      <trkpt lat="45.8935" lon="2.8318">
        <ele>732.66</ele>
        <time>2015-04-24T14:14:47Z</time>
      </trkpt>
      <trkpt lat="45.89351" lon="2.83181">
        <ele>732.18</ele>
        <time>2015-04-24T14:15:21Z</time>
      </trkpt>
      <trkpt lat="45.89348" lon="2.83182">
        <ele>732.18</ele>
        <time>2015-04-24T14:16:07Z</time>
      </trkpt>
      <trkpt lat="45.89351" lon="2.83182">
        <ele>732.18</ele>
        <time>2015-04-24T14:16:46Z</time>
      </trkpt>
      <trkpt lat="45.89351" lon="2.83181">
        <ele>733.14</ele>
        <time>2015-04-24T14:17:09Z</time>
      </trkpt>
      <trkpt lat="45.89352" lon="2.83183">
        <ele>733.62</ele>
        <time>2015-04-24T14:17:29Z</time>
      </trkpt>
      <trkpt lat="45.89351" lon="2.83184">
        <ele>733.62</ele>
        <time>2015-04-24T14:17:52Z</time>
      </trkpt>
      <trkpt lat="45.89351" lon="2.83179">
        <ele>733.14</ele>
        <time>2015-04-24T14:18:15Z</time>
      </trkpt>
      <trkpt lat="45.89348" lon="2.83179">
        <ele>733.14</ele>
        <time>2015-04-24T14:18:43Z</time>
      </trkpt>
      <trkpt lat="45.89336" lon="2.83164">
        <ele>731.7</ele>
        <time>2015-04-24T14:18:58Z</time>
      </trkpt>
      <trkpt lat="45.89336" lon="2.83162">
        <ele>732.18</ele>
        <time>2015-04-24T14:19:00Z</time>
      </trkpt>
      <trkpt lat="45.8933" lon="2.83137">
        <ele>731.7</ele>
        <time>2015-04-24T14:19:17Z</time>
      </trkpt>
      <trkpt lat="45.89327" lon="2.83123">
        <ele>731.7</ele>
        <time>2015-04-24T14:19:30Z</time>
      </trkpt>
      <trkpt lat="45.89324" lon="2.83126">
        <ele>731.7</ele>
        <time>2015-04-24T14:19:54Z</time>
      </trkpt>
      <trkpt lat="45.89324" lon="2.83119">
        <ele>731.7</ele>
        <time>2015-04-24T14:20:16Z</time>
      </trkpt>
      <trkpt lat="45.89324" lon="2.83112">
        <ele>732.18</ele>
        <time>2015-04-24T14:20:28Z</time>
      </trkpt>
      <trkpt lat="45.89325" lon="2.83106">
        <ele>731.7</ele>
        <time>2015-04-24T14:20:40Z</time>
      </trkpt>
      <trkpt lat="45.89322" lon="2.8309">
        <ele>731.7</ele>
        <time>2015-04-24T14:20:53Z</time>
      </trkpt>
      <trkpt lat="45.89322" lon="2.83081">
        <ele>731.7</ele>
        <time>2015-04-24T14:21:08Z</time>
      </trkpt>
      <trkpt lat="45.89321" lon="2.83061">
        <ele>731.22</ele>
        <time>2015-04-24T14:21:24Z</time>
      </trkpt>
      <trkpt lat="45.8932" lon="2.83034">
        <ele>731.22</ele>
        <time>2015-04-24T14:21:40Z</time>
      </trkpt>
      <trkpt lat="45.89323" lon="2.83029">
        <ele>731.7</ele>
        <time>2015-04-24T14:21:46Z</time>
      </trkpt>
      <trkpt lat="45.89326" lon="2.83019">
        <ele>731.7</ele>
        <time>2015-04-24T14:22:03Z</time>
      </trkpt>
      <trkpt lat="45.89327" lon="2.83013">
        <ele>732.18</ele>
        <time>2015-04-24T14:22:17Z</time>
      </trkpt>
      <trkpt lat="45.89327" lon="2.83015">
        <ele>732.18</ele>
        <time>2015-04-24T14:22:51Z</time>
      </trkpt>
      <trkpt lat="45.89327" lon="2.83005">
        <ele>732.66</ele>
        <time>2015-04-24T14:23:05Z</time>
      </trkpt>
      <trkpt lat="45.89326" lon="2.83003">
        <ele>732.66</ele>
        <time>2015-04-24T14:23:33Z</time>
      </trkpt>
      <trkpt lat="45.89325" lon="2.83001">
        <ele>732.66</ele>
        <time>2015-04-24T14:24:03Z</time>
      </trkpt>
      <trkpt lat="45.89324" lon="2.83004">
        <ele>732.66</ele>
        <time>2015-04-24T14:24:28Z</time>
      </trkpt>
      <trkpt lat="45.89325" lon="2.83003">
        <ele>732.66</ele>
        <time>2015-04-24T14:24:34Z</time>
      </trkpt>
      <trkpt lat="45.89326" lon="2.82991">
        <ele>732.18</ele>
        <time>2015-04-24T14:24:42Z</time>
      </trkpt>
      <trkpt lat="45.89322" lon="2.82969">
        <ele>732.18</ele>
        <time>2015-04-24T14:24:58Z</time>
      </trkpt>
      <trkpt lat="45.89321" lon="2.82962">
        <ele>732.66</ele>
        <time>2015-04-24T14:25:04Z</time>
      </trkpt>
      <trkpt lat="45.89321" lon="2.82945">
        <ele>732.66</ele>
        <time>2015-04-24T14:25:18Z</time>
      </trkpt>
      <trkpt lat="45.89322" lon="2.82923">
        <ele>731.7</ele>
        <time>2015-04-24T14:25:34Z</time>
      </trkpt>
      <trkpt lat="45.89327" lon="2.8289">
        <ele>731.7</ele>
        <time>2015-04-24T14:25:52Z</time>
      </trkpt>
      <trkpt lat="45.89333" lon="2.82862">
        <ele>730.74</ele>
        <time>2015-04-24T14:26:07Z</time>
      </trkpt>
      <trkpt lat="45.89333" lon="2.82859">
        <ele>730.26</ele>
        <time>2015-04-24T14:26:09Z</time>
      </trkpt>
      <trkpt lat="45.89335" lon="2.8283">
        <ele>730.74</ele>
        <time>2015-04-24T14:26:24Z</time>
      </trkpt>
      <trkpt lat="45.89335" lon="2.82816">
        <ele>730.74</ele>
        <time>2015-04-24T14:26:37Z</time>
      </trkpt>
      <trkpt lat="45.89341" lon="2.82783">
        <ele>730.74</ele>
        <time>2015-04-24T14:26:54Z</time>
      </trkpt>
      <trkpt lat="45.89341" lon="2.82781">
        <ele>730.74</ele>
        <time>2015-04-24T14:26:55Z</time>
      </trkpt>
      <trkpt lat="45.89341" lon="2.82773">
        <ele>731.22</ele>
        <time>2015-04-24T14:26:59Z</time>
      </trkpt>
      <trkpt lat="45.89343" lon="2.82739">
        <ele>731.7</ele>
        <time>2015-04-24T14:27:18Z</time>
      </trkpt>
      <trkpt lat="45.89343" lon="2.8274">
        <ele>731.7</ele>
        <time>2015-04-24T14:27:31Z</time>
      </trkpt>
      <trkpt lat="45.89342" lon="2.82731">
        <ele>731.22</ele>
        <time>2015-04-24T14:27:51Z</time>
      </trkpt>
      <trkpt lat="45.89343" lon="2.82724">
        <ele>731.22</ele>
        <time>2015-04-24T14:28:03Z</time>
      </trkpt>
      <trkpt lat="45.89343" lon="2.82694">
        <ele>731.22</ele>
        <time>2015-04-24T14:28:20Z</time>
      </trkpt>
      <trkpt lat="45.89343" lon="2.82665">
        <ele>731.7</ele>
        <time>2015-04-24T14:28:37Z</time>
      </trkpt>
      <trkpt lat="45.89343" lon="2.82638">
        <ele>732.66</ele>
        <time>2015-04-24T14:28:52Z</time>
      </trkpt>
      <trkpt lat="45.89344" lon="2.82635">
        <ele>732.18</ele>
        <time>2015-04-24T14:28:54Z</time>
      </trkpt>
      <trkpt lat="45.89343" lon="2.82608">
        <ele>732.66</ele>
        <time>2015-04-24T14:29:08Z</time>
      </trkpt>
      <trkpt lat="45.89342" lon="2.82578">
        <ele>732.66</ele>
        <time>2015-04-24T14:29:26Z</time>
      </trkpt>
      <trkpt lat="45.89343" lon="2.82545">
        <ele>732.18</ele>
        <time>2015-04-24T14:29:44Z</time>
      </trkpt>
      <trkpt lat="45.89343" lon="2.82514">
        <ele>732.18</ele>
        <time>2015-04-24T14:30:02Z</time>
      </trkpt>
      <trkpt lat="45.89343" lon="2.82485">
        <ele>732.18</ele>
        <time>2015-04-24T14:30:19Z</time>
      </trkpt>
      <trkpt lat="45.89344" lon="2.82451">
        <ele>731.22</ele>
        <time>2015-04-24T14:30:38Z</time>
      </trkpt>
      <trkpt lat="45.89343" lon="2.82446">
        <ele>731.7</ele>
        <time>2015-04-24T14:30:52Z</time>
      </trkpt>
      <trkpt lat="45.89344" lon="2.82438">
        <ele>731.7</ele>
        <time>2015-04-24T14:30:57Z</time>
      </trkpt>
      <trkpt lat="45.89343" lon="2.82427">
        <ele>731.7</ele>
        <time>2015-04-24T14:31:03Z</time>
      </trkpt>
      <trkpt lat="45.89342" lon="2.82396">
        <ele>731.22</ele>
        <time>2015-04-24T14:31:20Z</time>
      </trkpt>
      <trkpt lat="45.89343" lon="2.82367">
        <ele>730.74</ele>
        <time>2015-04-24T14:31:36Z</time>
      </trkpt>
      <trkpt lat="45.89343" lon="2.82333">
        <ele>729.78</ele>
        <time>2015-04-24T14:31:54Z</time>
      </trkpt>
      <trkpt lat="45.8934" lon="2.82318">
        <ele>731.7</ele>
        <time>2015-04-24T14:32:08Z</time>
      </trkpt>
      <trkpt lat="45.8934" lon="2.82318">
        <ele>729.78</ele>
        <time>2015-04-24T14:32:09Z</time>
      </trkpt>
      <trkpt lat="45.89341" lon="2.82314">
        <ele>729.3</ele>
        <time>2015-04-24T14:32:15Z</time>
      </trkpt>
      <trkpt lat="45.89341" lon="2.82308">
        <ele>729.3</ele>
        <time>2015-04-24T14:32:19Z</time>
      </trkpt>
      <trkpt lat="45.89341" lon="2.82281">
        <ele>728.82</ele>
        <time>2015-04-24T14:32:35Z</time>
      </trkpt>
      <trkpt lat="45.89341" lon="2.8226">
        <ele>728.82</ele>
        <time>2015-04-24T14:32:46Z</time>
      </trkpt>
      <trkpt lat="45.89341" lon="2.82252">
        <ele>728.34</ele>
        <time>2015-04-24T14:32:50Z</time>
      </trkpt>
      <trkpt lat="45.89341" lon="2.82221">
        <ele>727.37</ele>
        <time>2015-04-24T14:33:07Z</time>
      </trkpt>
      <trkpt lat="45.89341" lon="2.8219">
        <ele>726.89</ele>
        <time>2015-04-24T14:33:23Z</time>
      </trkpt>
      <trkpt lat="45.8934" lon="2.8216">
        <ele>726.89</ele>
        <time>2015-04-24T14:33:39Z</time>
      </trkpt>
      <trkpt lat="45.89341" lon="2.8213">
        <ele>725.45</ele>
        <time>2015-04-24T14:33:55Z</time>
      </trkpt>
      <trkpt lat="45.89341" lon="2.82097">
        <ele>725.93</ele>
        <time>2015-04-24T14:34:13Z</time>
      </trkpt>
      <trkpt lat="45.89342" lon="2.82079">
        <ele>725.45</ele>
        <time>2015-04-24T14:34:24Z</time>
      </trkpt>
      <trkpt lat="45.89341" lon="2.82078">
        <ele>725.93</ele>
        <time>2015-04-24T14:34:26Z</time>
      </trkpt>
      <trkpt lat="45.89342" lon="2.82069">
        <ele>725.45</ele>
        <time>2015-04-24T14:34:31Z</time>
      </trkpt>
      <trkpt lat="45.89342" lon="2.82054">
        <ele>725.45</ele>
        <time>2015-04-24T14:34:44Z</time>
      </trkpt>
      <trkpt lat="45.89344" lon="2.8204">
        <ele>725.45</ele>
        <time>2015-04-24T14:34:55Z</time>
      </trkpt>
      <trkpt lat="45.89342" lon="2.82009">
        <ele>725.93</ele>
        <time>2015-04-24T14:35:13Z</time>
      </trkpt>
      <trkpt lat="45.89343" lon="2.82005">
        <ele>725.45</ele>
        <time>2015-04-24T14:35:25Z</time>
      </trkpt>
      <trkpt lat="45.89341" lon="2.81996">
        <ele>725.93</ele>
        <time>2015-04-24T14:35:30Z</time>
      </trkpt>
      <trkpt lat="45.89338" lon="2.81966">
        <ele>725.93</ele>
        <time>2015-04-24T14:35:49Z</time>
      </trkpt>
      <trkpt lat="45.89344" lon="2.81966">
        <ele>726.41</ele>
        <time>2015-04-24T14:36:00Z</time>
      </trkpt>
      <trkpt lat="45.89341" lon="2.81933">
        <ele>726.41</ele>
        <time>2015-04-24T14:36:18Z</time>
      </trkpt>
      <trkpt lat="45.89338" lon="2.81917">
        <ele>725.45</ele>
        <time>2015-04-24T14:36:32Z</time>
      </trkpt>
      <trkpt lat="45.89338" lon="2.81895">
        <ele>725.45</ele>
        <time>2015-04-24T14:36:53Z</time>
      </trkpt>
      <trkpt lat="45.89335" lon="2.81866">
        <ele>724.97</ele>
        <time>2015-04-24T14:37:09Z</time>
      </trkpt>
      <trkpt lat="45.89332" lon="2.81835">
        <ele>725.45</ele>
        <time>2015-04-24T14:37:26Z</time>
      </trkpt>
      <trkpt lat="45.89329" lon="2.81802">
        <ele>724.97</ele>
        <time>2015-04-24T14:37:44Z</time>
      </trkpt>
      <trkpt lat="45.89325" lon="2.81777">
        <ele>725.45</ele>
        <time>2015-04-24T14:37:59Z</time>
      </trkpt>
      <trkpt lat="45.89325" lon="2.81772">
        <ele>725.45</ele>
        <time>2015-04-24T14:38:13Z</time>
      </trkpt>
      <trkpt lat="45.89322" lon="2.81745">
        <ele>725.93</ele>
        <time>2015-04-24T14:38:28Z</time>
      </trkpt>
      <trkpt lat="45.89322" lon="2.81726">
        <ele>725.93</ele>
        <time>2015-04-24T14:38:44Z</time>
      </trkpt>
      <trkpt lat="45.89319" lon="2.81706">
        <ele>726.41</ele>
        <time>2015-04-24T14:38:58Z</time>
      </trkpt>
      <trkpt lat="45.89319" lon="2.81681">
        <ele>726.89</ele>
        <time>2015-04-24T14:39:14Z</time>
      </trkpt>
      <trkpt lat="45.89314" lon="2.81659">
        <ele>727.86</ele>
        <time>2015-04-24T14:39:28Z</time>
      </trkpt>
      <trkpt lat="45.89309" lon="2.8163">
        <ele>729.3</ele>
        <time>2015-04-24T14:39:46Z</time>
      </trkpt>
      <trkpt lat="45.89308" lon="2.81625">
        <ele>729.3</ele>
        <time>2015-04-24T14:39:49Z</time>
      </trkpt>
      <trkpt lat="45.89308" lon="2.81612">
        <ele>729.78</ele>
        <time>2015-04-24T14:40:03Z</time>
      </trkpt>
      <trkpt lat="45.89309" lon="2.81619">
        <ele>729.78</ele>
        <time>2015-04-24T14:40:18Z</time>
      </trkpt>
      <trkpt lat="45.89308" lon="2.81619">
        <ele>730.26</ele>
        <time>2015-04-24T14:40:21Z</time>
      </trkpt>
      <trkpt lat="45.89306" lon="2.81612">
        <ele>729.78</ele>
        <time>2015-04-24T14:40:26Z</time>
      </trkpt>
      <trkpt lat="45.89306" lon="2.81606">
        <ele>729.3</ele>
        <time>2015-04-24T14:40:29Z</time>
      </trkpt>
      <trkpt lat="45.89305" lon="2.81584">
        <ele>730.26</ele>
        <time>2015-04-24T14:40:41Z</time>
      </trkpt>
      <trkpt lat="45.89301" lon="2.81576">
        <ele>729.78</ele>
        <time>2015-04-24T14:40:46Z</time>
      </trkpt>
      <trkpt lat="45.89299" lon="2.81542">
        <ele>728.82</ele>
        <time>2015-04-24T14:41:05Z</time>
      </trkpt>
      <trkpt lat="45.89294" lon="2.81509">
        <ele>727.37</ele>
        <time>2015-04-24T14:41:23Z</time>
      </trkpt>
      <trkpt lat="45.8929" lon="2.81477">
        <ele>726.41</ele>
        <time>2015-04-24T14:41:41Z</time>
      </trkpt>
      <trkpt lat="45.89287" lon="2.81448">
        <ele>725.93</ele>
        <time>2015-04-24T14:41:56Z</time>
      </trkpt>
      <trkpt lat="45.89284" lon="2.81419">
        <ele>724.97</ele>
        <time>2015-04-24T14:42:12Z</time>
      </trkpt>
      <trkpt lat="45.89283" lon="2.814">
        <ele>724.97</ele>
        <time>2015-04-24T14:42:22Z</time>
      </trkpt>
      <trkpt lat="45.89282" lon="2.81393">
        <ele>724.01</ele>
        <time>2015-04-24T14:42:26Z</time>
      </trkpt>
      <trkpt lat="45.89281" lon="2.81383">
        <ele>724.49</ele>
        <time>2015-04-24T14:42:31Z</time>
      </trkpt>
      <trkpt lat="45.89276" lon="2.81349">
        <ele>724.01</ele>
        <time>2015-04-24T14:42:49Z</time>
      </trkpt>
      <trkpt lat="45.89273" lon="2.81319">
        <ele>723.53</ele>
        <time>2015-04-24T14:43:05Z</time>
      </trkpt>
      <trkpt lat="45.89269" lon="2.81284">
        <ele>723.53</ele>
        <time>2015-04-24T14:43:24Z</time>
      </trkpt>
      <trkpt lat="45.89268" lon="2.81269">
        <ele>723.05</ele>
        <time>2015-04-24T14:43:32Z</time>
      </trkpt>
      <trkpt lat="45.89273" lon="2.81258">
        <ele>723.05</ele>
        <time>2015-04-24T14:43:40Z</time>
      </trkpt>
      <trkpt lat="45.89279" lon="2.81256">
        <ele>722.57</ele>
        <time>2015-04-24T14:43:56Z</time>
      </trkpt>
      <trkpt lat="45.89279" lon="2.81254">
        <ele>722.57</ele>
        <time>2015-04-24T14:44:19Z</time>
      </trkpt>
      <trkpt lat="45.89277" lon="2.8125">
        <ele>722.57</ele>
        <time>2015-04-24T14:44:48Z</time>
      </trkpt>
      <trkpt lat="45.89276" lon="2.81249">
        <ele>723.05</ele>
        <time>2015-04-24T14:45:11Z</time>
      </trkpt>
      <trkpt lat="45.89276" lon="2.81252">
        <ele>722.09</ele>
        <time>2015-04-24T14:45:43Z</time>
      </trkpt>
      <trkpt lat="45.89276" lon="2.81252">
        <ele>722.57</ele>
        <time>2015-04-24T14:46:10Z</time>
      </trkpt>
      <trkpt lat="45.89276" lon="2.81259">
        <ele>723.05</ele>
        <time>2015-04-24T14:46:46Z</time>
      </trkpt>
      <trkpt lat="45.89273" lon="2.81266">
        <ele>723.05</ele>
        <time>2015-04-24T14:46:55Z</time>
      </trkpt>
      <trkpt lat="45.89264" lon="2.81267">
        <ele>723.05</ele>
        <time>2015-04-24T14:47:02Z</time>
      </trkpt>
      <trkpt lat="45.89244" lon="2.81261">
        <ele>722.57</ele>
        <time>2015-04-24T14:47:17Z</time>
      </trkpt>
      <trkpt lat="45.89225" lon="2.81256">
        <ele>722.09</ele>
        <time>2015-04-24T14:47:34Z</time>
      </trkpt>
      <trkpt lat="45.8921" lon="2.81248">
        <ele>722.09</ele>
        <time>2015-04-24T14:47:50Z</time>
      </trkpt>
      <trkpt lat="45.89211" lon="2.81242">
        <ele>722.09</ele>
        <time>2015-04-24T14:48:06Z</time>
      </trkpt>
      <trkpt lat="45.8921" lon="2.81244">
        <ele>722.57</ele>
        <time>2015-04-24T14:48:08Z</time>
      </trkpt>
      <trkpt lat="45.89208" lon="2.81249">
        <ele>722.57</ele>
        <time>2015-04-24T14:48:13Z</time>
      </trkpt>
      <trkpt lat="45.89191" lon="2.81242">
        <ele>722.57</ele>
        <time>2015-04-24T14:48:30Z</time>
      </trkpt>
      <trkpt lat="45.89189" lon="2.81235">
        <ele>722.09</ele>
        <time>2015-04-24T14:48:43Z</time>
      </trkpt>
      <trkpt lat="45.89188" lon="2.81235">
        <ele>722.57</ele>
        <time>2015-04-24T14:48:44Z</time>
      </trkpt>
      <trkpt lat="45.89184" lon="2.81236">
        <ele>722.57</ele>
        <time>2015-04-24T14:48:48Z</time>
      </trkpt>
      <trkpt lat="45.89169" lon="2.81225">
        <ele>721.61</ele>
        <time>2015-04-24T14:49:02Z</time>
      </trkpt>
      <trkpt lat="45.89149" lon="2.81212">
        <ele>721.61</ele>
        <time>2015-04-24T14:49:19Z</time>
      </trkpt>
      <trkpt lat="45.89132" lon="2.812">
        <ele>721.13</ele>
        <time>2015-04-24T14:49:35Z</time>
      </trkpt>
      <trkpt lat="45.89117" lon="2.81189">
        <ele>721.13</ele>
        <time>2015-04-24T14:49:50Z</time>
      </trkpt>
      <trkpt lat="45.89105" lon="2.81179">
        <ele>720.16</ele>
        <time>2015-04-24T14:50:06Z</time>
      </trkpt>
      <trkpt lat="45.89102" lon="2.81173">
        <ele>719.68</ele>
        <time>2015-04-24T14:50:24Z</time>
      </trkpt>
      <trkpt lat="45.891" lon="2.8117">
        <ele>719.68</ele>
        <time>2015-04-24T14:50:38Z</time>
      </trkpt>
      <trkpt lat="45.89099" lon="2.81169">
        <ele>719.2</ele>
        <time>2015-04-24T14:50:46Z</time>
      </trkpt>
      <trkpt lat="45.89095" lon="2.81164">
        <ele>719.2</ele>
        <time>2015-04-24T14:51:02Z</time>
      </trkpt>
      <trkpt lat="45.89094" lon="2.81164">
        <ele>719.2</ele>
        <time>2015-04-24T14:51:09Z</time>
      </trkpt>
      <trkpt lat="45.89089" lon="2.81161">
        <ele>719.2</ele>
        <time>2015-04-24T14:51:25Z</time>
      </trkpt>
      <trkpt lat="45.89088" lon="2.81161">
        <ele>719.68</ele>
        <time>2015-04-24T14:51:26Z</time>
      </trkpt>
      <trkpt lat="45.89081" lon="2.81154">
        <ele>719.68</ele>
        <time>2015-04-24T14:51:33Z</time>
      </trkpt>
      <trkpt lat="45.89079" lon="2.81149">
        <ele>718.72</ele>
        <time>2015-04-24T14:51:37Z</time>
      </trkpt>
      <trkpt lat="45.89073" lon="2.81147">
        <ele>718.72</ele>
        <time>2015-04-24T14:51:53Z</time>
      </trkpt>
      <trkpt lat="45.89074" lon="2.81148">
        <ele>714.4</ele>
        <time>2015-04-24T14:51:58Z</time>
      </trkpt>
      <trkpt lat="45.89074" lon="2.81148">
        <ele>722.09</ele>
        <time>2015-04-24T14:51:59Z</time>
      </trkpt>
      <trkpt lat="45.89074" lon="2.81148">
        <ele>718.24</ele>
        <time>2015-04-24T14:52:00Z</time>
      </trkpt>
      <trkpt lat="45.89075" lon="2.81149">
        <ele>719.68</ele>
        <time>2015-04-24T14:52:22Z</time>
      </trkpt>
      <trkpt lat="45.89076" lon="2.81154">
        <ele>719.2</ele>
        <time>2015-04-24T14:52:48Z</time>
      </trkpt>
      <trkpt lat="45.89073" lon="2.81144">
        <ele>718.24</ele>
        <time>2015-04-24T14:53:09Z</time>
      </trkpt>
      <trkpt lat="45.89075" lon="2.81143">
        <ele>714.88</ele>
        <time>2015-04-24T14:53:15Z</time>
      </trkpt>
      <trkpt lat="45.89075" lon="2.81144">
        <ele>721.61</ele>
        <time>2015-04-24T14:53:16Z</time>
      </trkpt>
      <trkpt lat="45.89075" lon="2.81145">
        <ele>718.24</ele>
        <time>2015-04-24T14:53:17Z</time>
      </trkpt>
      <trkpt lat="45.89083" lon="2.81152">
        <ele>719.68</ele>
        <time>2015-04-24T14:53:52Z</time>
      </trkpt>
      <trkpt lat="45.89081" lon="2.8115">
        <ele>718.72</ele>
        <time>2015-04-24T14:54:12Z</time>
      </trkpt>
      <trkpt lat="45.89075" lon="2.81144">
        <ele>719.2</ele>
        <time>2015-04-24T14:54:26Z</time>
      </trkpt>
      <trkpt lat="45.8907" lon="2.8114">
        <ele>719.2</ele>
        <time>2015-04-24T14:54:34Z</time>
      </trkpt>
      <trkpt lat="45.89072" lon="2.81141">
        <ele>718.24</ele>
        <time>2015-04-24T14:54:50Z</time>
      </trkpt>
      <trkpt lat="45.8906" lon="2.81123">
        <ele>718.24</ele>
        <time>2015-04-24T14:55:01Z</time>
      </trkpt>
      <trkpt lat="45.89058" lon="2.81119">
        <ele>718.72</ele>
        <time>2015-04-24T14:55:04Z</time>
      </trkpt>
      <trkpt lat="45.89044" lon="2.811">
        <ele>718.24</ele>
        <time>2015-04-24T14:55:21Z</time>
      </trkpt>
      <trkpt lat="45.89032" lon="2.81084">
        <ele>718.72</ele>
        <time>2015-04-24T14:55:36Z</time>
      </trkpt>
      <trkpt lat="45.89019" lon="2.81072">
        <ele>718.72</ele>
        <time>2015-04-24T14:55:51Z</time>
      </trkpt>
      <trkpt lat="45.89016" lon="2.81071">
        <ele>718.72</ele>
        <time>2015-04-24T14:55:54Z</time>
      </trkpt>
      <trkpt lat="45.89001" lon="2.81054">
        <ele>718.72</ele>
        <time>2015-04-24T14:56:11Z</time>
      </trkpt>
      <trkpt lat="45.88995" lon="2.81041">
        <ele>718.72</ele>
        <time>2015-04-24T14:56:26Z</time>
      </trkpt>
      <trkpt lat="45.88995" lon="2.8104">
        <ele>718.72</ele>
        <time>2015-04-24T14:56:30Z</time>
      </trkpt>
      <trkpt lat="45.88983" lon="2.8103">
        <ele>718.24</ele>
        <time>2015-04-24T14:56:41Z</time>
      </trkpt>
      <trkpt lat="45.88972" lon="2.81012">
        <ele>719.2</ele>
        <time>2015-04-24T14:56:57Z</time>
      </trkpt>
      <trkpt lat="45.88972" lon="2.81005">
        <ele>718.72</ele>
        <time>2015-04-24T14:57:10Z</time>
      </trkpt>
      <trkpt lat="45.88961" lon="2.80982">
        <ele>718.24</ele>
        <time>2015-04-24T14:57:24Z</time>
      </trkpt>
      <trkpt lat="45.88962" lon="2.80973">
        <ele>717.76</ele>
        <time>2015-04-24T14:57:40Z</time>
      </trkpt>
      <trkpt lat="45.88962" lon="2.80972">
        <ele>718.24</ele>
        <time>2015-04-24T14:57:41Z</time>
      </trkpt>
      <trkpt lat="45.88975" lon="2.80953">
        <ele>717.76</ele>
        <time>2015-04-24T14:57:58Z</time>
      </trkpt>
      <trkpt lat="45.88979" lon="2.80943">
        <ele>716.8</ele>
        <time>2015-04-24T14:58:13Z</time>
      </trkpt>
      <trkpt lat="45.88987" lon="2.80924">
        <ele>715.84</ele>
        <time>2015-04-24T14:58:26Z</time>
      </trkpt>
      <trkpt lat="45.88991" lon="2.80925">
        <ele>716.8</ele>
        <time>2015-04-24T14:58:38Z</time>
      </trkpt>
      <trkpt lat="45.88994" lon="2.80921">
        <ele>717.28</ele>
        <time>2015-04-24T14:59:03Z</time>
      </trkpt>
      <trkpt lat="45.88991" lon="2.80924">
        <ele>717.28</ele>
        <time>2015-04-24T14:59:26Z</time>
      </trkpt>
      <trkpt lat="45.88988" lon="2.8092">
        <ele>715.84</ele>
        <time>2015-04-24T14:59:39Z</time>
      </trkpt>
      <trkpt lat="45.88994" lon="2.8091">
        <ele>715.84</ele>
        <time>2015-04-24T14:59:53Z</time>
      </trkpt>
      <trkpt lat="45.88996" lon="2.80909">
        <ele>715.84</ele>
        <time>2015-04-24T15:00:10Z</time>
      </trkpt>
      <trkpt lat="45.88994" lon="2.80902">
        <ele>715.36</ele>
        <time>2015-04-24T15:00:27Z</time>
      </trkpt>
      <trkpt lat="45.88992" lon="2.80899">
        <ele>715.36</ele>
        <time>2015-04-24T15:00:47Z</time>
      </trkpt>
      <trkpt lat="45.88992" lon="2.80895">
        <ele>714.4</ele>
        <time>2015-04-24T15:01:22Z</time>
      </trkpt>
      <trkpt lat="45.88998" lon="2.80885">
        <ele>714.4</ele>
        <time>2015-04-24T15:01:40Z</time>
      </trkpt>
      <trkpt lat="45.88999" lon="2.80881">
        <ele>713.92</ele>
        <time>2015-04-24T15:01:46Z</time>
      </trkpt>
      <trkpt lat="45.89002" lon="2.80876">
        <ele>713.92</ele>
        <time>2015-04-24T15:01:50Z</time>
      </trkpt>
      <trkpt lat="45.89003" lon="2.80874">
        <ele>713.44</ele>
        <time>2015-04-24T15:01:52Z</time>
      </trkpt>
      <trkpt lat="45.89006" lon="2.80868">
        <ele>712.95</ele>
        <time>2015-04-24T15:01:57Z</time>
      </trkpt>
      <trkpt lat="45.89007" lon="2.80865">
        <ele>712.47</ele>
        <time>2015-04-24T15:01:59Z</time>
      </trkpt>
      <trkpt lat="45.89014" lon="2.8085">
        <ele>710.55</ele>
        <time>2015-04-24T15:02:12Z</time>
      </trkpt>
      <trkpt lat="45.89018" lon="2.80844">
        <ele>709.59</ele>
        <time>2015-04-24T15:02:19Z</time>
      </trkpt>
      <trkpt lat="45.89022" lon="2.80832">
        <ele>708.15</ele>
        <time>2015-04-24T15:02:32Z</time>
      </trkpt>
      <trkpt lat="45.89025" lon="2.80831">
        <ele>707.67</ele>
        <time>2015-04-24T15:02:48Z</time>
      </trkpt>
      <trkpt lat="45.89022" lon="2.8083">
        <ele>707.67</ele>
        <time>2015-04-24T15:03:22Z</time>
      </trkpt>
      <trkpt lat="45.89024" lon="2.80823">
        <ele>707.19</ele>
        <time>2015-04-24T15:03:45Z</time>
      </trkpt>
      <trkpt lat="45.89029" lon="2.80799">
        <ele>706.23</ele>
        <time>2015-04-24T15:04:00Z</time>
      </trkpt>
      <trkpt lat="45.89028" lon="2.80776">
        <ele>705.26</ele>
        <time>2015-04-24T15:04:13Z</time>
      </trkpt>
      <trkpt lat="45.89028" lon="2.8077">
        <ele>704.3</ele>
        <time>2015-04-24T15:04:17Z</time>
      </trkpt>
      <trkpt lat="45.89028" lon="2.80766">
        <ele>704.3</ele>
        <time>2015-04-24T15:04:19Z</time>
      </trkpt>
      <trkpt lat="45.89032" lon="2.80744">
        <ele>702.38</ele>
        <time>2015-04-24T15:04:34Z</time>
      </trkpt>
      <trkpt lat="45.89038" lon="2.80723">
        <ele>699.02</ele>
        <time>2015-04-24T15:04:49Z</time>
      </trkpt>
      <trkpt lat="45.89044" lon="2.80703">
        <ele>696.13</ele>
        <time>2015-04-24T15:05:04Z</time>
      </trkpt>
      <trkpt lat="45.89044" lon="2.80702">
        <ele>696.13</ele>
        <time>2015-04-24T15:05:05Z</time>
      </trkpt>
      <trkpt lat="45.89047" lon="2.80694">
        <ele>694.69</ele>
        <time>2015-04-24T15:05:10Z</time>
      </trkpt>
      <trkpt lat="45.89052" lon="2.80672">
        <ele>692.77</ele>
        <time>2015-04-24T15:05:23Z</time>
      </trkpt>
      <trkpt lat="45.89061" lon="2.80652">
        <ele>690.36</ele>
        <time>2015-04-24T15:05:39Z</time>
      </trkpt>
      <trkpt lat="45.89061" lon="2.80639">
        <ele>689.4</ele>
        <time>2015-04-24T15:05:50Z</time>
      </trkpt>
      <trkpt lat="45.89061" lon="2.80628">
        <ele>687</ele>
        <time>2015-04-24T15:06:05Z</time>
      </trkpt>
      <trkpt lat="45.89063" lon="2.80616">
        <ele>687</ele>
        <time>2015-04-24T15:06:26Z</time>
      </trkpt>
      <trkpt lat="45.89066" lon="2.80605">
        <ele>685.56</ele>
        <time>2015-04-24T15:06:34Z</time>
      </trkpt>
      <trkpt lat="45.89079" lon="2.80583">
        <ele>682.19</ele>
        <time>2015-04-24T15:06:51Z</time>
      </trkpt>
      <trkpt lat="45.89089" lon="2.8057">
        <ele>679.79</ele>
        <time>2015-04-24T15:07:04Z</time>
      </trkpt>
      <trkpt lat="45.89104" lon="2.80562">
        <ele>676.91</ele>
        <time>2015-04-24T15:07:19Z</time>
      </trkpt>
      <trkpt lat="45.89108" lon="2.80561">
        <ele>676.42</ele>
        <time>2015-04-24T15:07:23Z</time>
      </trkpt>
      <trkpt lat="45.89128" lon="2.80568">
        <ele>673.06</ele>
        <time>2015-04-24T15:07:39Z</time>
      </trkpt>
      <trkpt lat="45.89133" lon="2.80573">
        <ele>673.06</ele>
        <time>2015-04-24T15:07:54Z</time>
      </trkpt>
      <trkpt lat="45.89141" lon="2.8058">
        <ele>672.1</ele>
        <time>2015-04-24T15:08:07Z</time>
      </trkpt>
      <trkpt lat="45.89156" lon="2.80591">
        <ele>671.14</ele>
        <time>2015-04-24T15:08:23Z</time>
      </trkpt>
      <trkpt lat="45.89171" lon="2.806">
        <ele>669.7</ele>
        <time>2015-04-24T15:08:37Z</time>
      </trkpt>
      <trkpt lat="45.89181" lon="2.80616">
        <ele>670.18</ele>
        <time>2015-04-24T15:08:57Z</time>
      </trkpt>
      <trkpt lat="45.89188" lon="2.80618">
        <ele>668.73</ele>
        <time>2015-04-24T15:09:09Z</time>
      </trkpt>
      <trkpt lat="45.89196" lon="2.80622">
        <ele>666.33</ele>
        <time>2015-04-24T15:09:22Z</time>
      </trkpt>
      <trkpt lat="45.89201" lon="2.80617">
        <ele>663.45</ele>
        <time>2015-04-24T15:09:38Z</time>
      </trkpt>
      <trkpt lat="45.89194" lon="2.80607">
        <ele>660.56</ele>
        <time>2015-04-24T15:09:50Z</time>
      </trkpt>
      <trkpt lat="45.8919" lon="2.80591">
        <ele>658.16</ele>
        <time>2015-04-24T15:10:05Z</time>
      </trkpt>
      <trkpt lat="45.89181" lon="2.80579">
        <ele>655.28</ele>
        <time>2015-04-24T15:10:19Z</time>
      </trkpt>
      <trkpt lat="45.89171" lon="2.80563">
        <ele>651.91</ele>
        <time>2015-04-24T15:10:33Z</time>
      </trkpt>
      <trkpt lat="45.8918" lon="2.8055">
        <ele>650.95</ele>
        <time>2015-04-24T15:10:49Z</time>
      </trkpt>
      <trkpt lat="45.8918" lon="2.80565">
        <ele>651.91</ele>
        <time>2015-04-24T15:11:08Z</time>
      </trkpt>
      <trkpt lat="45.89166" lon="2.80547">
        <ele>649.03</ele>
        <time>2015-04-24T15:11:26Z</time>
      </trkpt>
      <trkpt lat="45.89158" lon="2.80532">
        <ele>646.14</ele>
        <time>2015-04-24T15:11:40Z</time>
      </trkpt>
      <trkpt lat="45.89145" lon="2.80511">
        <ele>643.26</ele>
        <time>2015-04-24T15:11:58Z</time>
      </trkpt>
      <trkpt lat="45.89143" lon="2.80507">
        <ele>642.78</ele>
        <time>2015-04-24T15:12:02Z</time>
      </trkpt>
      <trkpt lat="45.89137" lon="2.80488">
        <ele>639.41</ele>
        <time>2015-04-24T15:12:18Z</time>
      </trkpt>
      <trkpt lat="45.89127" lon="2.80468">
        <ele>637.01</ele>
        <time>2015-04-24T15:12:36Z</time>
      </trkpt>
      <trkpt lat="45.89116" lon="2.80451">
        <ele>635.57</ele>
        <time>2015-04-24T15:12:52Z</time>
      </trkpt>
      <trkpt lat="45.89108" lon="2.80433">
        <ele>633.17</ele>
        <time>2015-04-24T15:13:10Z</time>
      </trkpt>
      <trkpt lat="45.89105" lon="2.80419">
        <ele>631.72</ele>
        <time>2015-04-24T15:13:29Z</time>
      </trkpt>
      <trkpt lat="45.891" lon="2.80409">
        <ele>632.2</ele>
        <time>2015-04-24T15:13:46Z</time>
      </trkpt>
      <trkpt lat="45.89098" lon="2.80405">
        <ele>629.32</ele>
        <time>2015-04-24T15:14:12Z</time>
      </trkpt>
      <trkpt lat="45.89091" lon="2.80394">
        <ele>626.44</ele>
        <time>2015-04-24T15:14:27Z</time>
      </trkpt>
      <trkpt lat="45.89084" lon="2.8038">
        <ele>624.51</ele>
        <time>2015-04-24T15:14:44Z</time>
      </trkpt>
      <trkpt lat="45.89075" lon="2.80363">
        <ele>622.59</ele>
        <time>2015-04-24T15:15:04Z</time>
      </trkpt>
      <trkpt lat="45.89066" lon="2.8036">
        <ele>620.67</ele>
        <time>2015-04-24T15:15:27Z</time>
      </trkpt>
      <trkpt lat="45.89056" lon="2.80348">
        <ele>618.26</ele>
        <time>2015-04-24T15:15:43Z</time>
      </trkpt>
      <trkpt lat="45.89045" lon="2.80335">
        <ele>615.86</ele>
        <time>2015-04-24T15:16:00Z</time>
      </trkpt>
      <trkpt lat="45.89044" lon="2.80334">
        <ele>615.86</ele>
        <time>2015-04-24T15:16:01Z</time>
      </trkpt>
      <trkpt lat="45.8903" lon="2.80315">
        <ele>613.46</ele>
        <time>2015-04-24T15:16:19Z</time>
      </trkpt>
      <trkpt lat="45.8902" lon="2.80292">
        <ele>611.54</ele>
        <time>2015-04-24T15:16:37Z</time>
      </trkpt>
      <trkpt lat="45.89015" lon="2.80286">
        <ele>611.06</ele>
        <time>2015-04-24T15:16:42Z</time>
      </trkpt>
      <trkpt lat="45.88999" lon="2.80266">
        <ele>609.61</ele>
        <time>2015-04-24T15:17:00Z</time>
      </trkpt>
      <trkpt lat="45.88992" lon="2.80244">
        <ele>609.61</ele>
        <time>2015-04-24T15:17:15Z</time>
      </trkpt>
      <trkpt lat="45.88986" lon="2.80236">
        <ele>608.17</ele>
        <time>2015-04-24T15:17:31Z</time>
      </trkpt>
      <trkpt lat="45.88987" lon="2.80238">
        <ele>607.69</ele>
        <time>2015-04-24T15:17:50Z</time>
      </trkpt>
      <trkpt lat="45.88986" lon="2.8024">
        <ele>607.69</ele>
        <time>2015-04-24T15:18:09Z</time>
      </trkpt>
      <trkpt lat="45.88975" lon="2.80224">
        <ele>604.33</ele>
        <time>2015-04-24T15:18:22Z</time>
      </trkpt>
      <trkpt lat="45.88966" lon="2.80222">
        <ele>603.36</ele>
        <time>2015-04-24T15:18:37Z</time>
      </trkpt>
      <trkpt lat="45.88953" lon="2.80217">
        <ele>600.48</ele>
        <time>2015-04-24T15:18:53Z</time>
      </trkpt>
      <trkpt lat="45.88948" lon="2.80215">
        <ele>598.08</ele>
        <time>2015-04-24T15:19:09Z</time>
      </trkpt>
      <trkpt lat="45.88944" lon="2.80212">
        <ele>596.64</ele>
        <time>2015-04-24T15:19:16Z</time>
      </trkpt>
      <trkpt lat="45.88942" lon="2.80207">
        <ele>595.67</ele>
        <time>2015-04-24T15:19:20Z</time>
      </trkpt>
      <trkpt lat="45.88937" lon="2.80194">
        <ele>593.75</ele>
        <time>2015-04-24T15:19:31Z</time>
      </trkpt>
      <trkpt lat="45.88928" lon="2.8018">
        <ele>590.39</ele>
        <time>2015-04-24T15:19:47Z</time>
      </trkpt>
      <trkpt lat="45.88925" lon="2.80174">
        <ele>589.43</ele>
        <time>2015-04-24T15:19:52Z</time>
      </trkpt>
      <trkpt lat="45.88922" lon="2.80163">
        <ele>588.95</ele>
        <time>2015-04-24T15:20:08Z</time>
      </trkpt>
      <trkpt lat="45.88924" lon="2.80163">
        <ele>588.46</ele>
        <time>2015-04-24T15:20:30Z</time>
      </trkpt>
      <trkpt lat="45.88924" lon="2.80163">
        <ele>588.46</ele>
        <time>2015-04-24T15:20:47Z</time>
      </trkpt>
      <trkpt lat="45.88923" lon="2.80162">
        <ele>589.43</ele>
        <time>2015-04-24T15:21:13Z</time>
      </trkpt>
      <trkpt lat="45.88914" lon="2.80162">
        <ele>586.54</ele>
        <time>2015-04-24T15:21:31Z</time>
      </trkpt>
      <trkpt lat="45.8891" lon="2.80154">
        <ele>585.58</ele>
        <time>2015-04-24T15:21:46Z</time>
      </trkpt>
      <trkpt lat="45.88902" lon="2.80139">
        <ele>583.18</ele>
        <time>2015-04-24T15:21:59Z</time>
      </trkpt>
      <trkpt lat="45.88897" lon="2.80132">
        <ele>581.25</ele>
        <time>2015-04-24T15:22:06Z</time>
      </trkpt>
      <trkpt lat="45.88891" lon="2.80126">
        <ele>580.29</ele>
        <time>2015-04-24T15:22:13Z</time>
      </trkpt>
      <trkpt lat="45.88887" lon="2.8011">
        <ele>578.85</ele>
        <time>2015-04-24T15:22:24Z</time>
      </trkpt>
      <trkpt lat="45.88874" lon="2.80087">
        <ele>576.45</ele>
        <time>2015-04-24T15:22:40Z</time>
      </trkpt>
      <trkpt lat="45.88867" lon="2.80078">
        <ele>575.01</ele>
        <time>2015-04-24T15:22:54Z</time>
      </trkpt>
      <trkpt lat="45.88868" lon="2.80075">
        <ele>574.53</ele>
        <time>2015-04-24T15:23:15Z</time>
      </trkpt>
      <trkpt lat="45.88868" lon="2.80075">
        <ele>574.53</ele>
        <time>2015-04-24T15:23:38Z</time>
      </trkpt>
      <trkpt lat="45.88867" lon="2.80083">
        <ele>573.56</ele>
        <time>2015-04-24T15:23:58Z</time>
      </trkpt>
      <trkpt lat="45.88868" lon="2.801">
        <ele>570.2</ele>
        <time>2015-04-24T15:24:12Z</time>
      </trkpt>
      <trkpt lat="45.88869" lon="2.8012">
        <ele>566.83</ele>
        <time>2015-04-24T15:24:27Z</time>
      </trkpt>
      <trkpt lat="45.88871" lon="2.8013">
        <ele>565.87</ele>
        <time>2015-04-24T15:24:34Z</time>
      </trkpt>
      <trkpt lat="45.88876" lon="2.8015">
        <ele>562.51</ele>
        <time>2015-04-24T15:24:49Z</time>
      </trkpt>
      <trkpt lat="45.88877" lon="2.80167">
        <ele>560.11</ele>
        <time>2015-04-24T15:25:01Z</time>
      </trkpt>
      <trkpt lat="45.88878" lon="2.80181">
        <ele>559.62</ele>
        <time>2015-04-24T15:25:20Z</time>
      </trkpt>
      <trkpt lat="45.88882" lon="2.80194">
        <ele>559.62</ele>
        <time>2015-04-24T15:25:32Z</time>
      </trkpt>
      <trkpt lat="45.88887" lon="2.80215">
        <ele>559.62</ele>
        <time>2015-04-24T15:25:48Z</time>
      </trkpt>
      <trkpt lat="45.88894" lon="2.8023">
        <ele>559.62</ele>
        <time>2015-04-24T15:26:01Z</time>
      </trkpt>
      <trkpt lat="45.889" lon="2.80248">
        <ele>560.59</ele>
        <time>2015-04-24T15:26:16Z</time>
      </trkpt>
      <trkpt lat="45.88892" lon="2.80266">
        <ele>560.11</ele>
        <time>2015-04-24T15:26:30Z</time>
      </trkpt>
      <trkpt lat="45.88885" lon="2.80268">
        <ele>558.66</ele>
        <time>2015-04-24T15:26:49Z</time>
      </trkpt>
      <trkpt lat="45.88887" lon="2.80269">
        <ele>558.18</ele>
        <time>2015-04-24T15:27:08Z</time>
      </trkpt>
      <trkpt lat="45.88889" lon="2.80277">
        <ele>558.18</ele>
        <time>2015-04-24T15:27:32Z</time>
      </trkpt>
      <trkpt lat="45.88885" lon="2.80276">
        <ele>558.66</ele>
        <time>2015-04-24T15:28:06Z</time>
      </trkpt>
      <trkpt lat="45.88883" lon="2.80276">
        <ele>558.18</ele>
        <time>2015-04-24T15:28:46Z</time>
      </trkpt>
      <trkpt lat="45.88894" lon="2.80271">
        <ele>558.66</ele>
        <time>2015-04-24T15:29:22Z</time>
      </trkpt>
      <trkpt lat="45.88898" lon="2.80269">
        <ele>558.66</ele>
        <time>2015-04-24T15:29:53Z</time>
      </trkpt>
      <trkpt lat="45.88887" lon="2.80273">
        <ele>558.66</ele>
        <time>2015-04-24T15:30:17Z</time>
      </trkpt>
      <trkpt lat="45.88894" lon="2.80271">
        <ele>559.14</ele>
        <time>2015-04-24T15:30:47Z</time>
      </trkpt>
      <trkpt lat="45.88892" lon="2.80271">
        <ele>558.66</ele>
        <time>2015-04-24T15:31:11Z</time>
      </trkpt>
      <trkpt lat="45.88887" lon="2.8028">
        <ele>558.66</ele>
        <time>2015-04-24T15:31:52Z</time>
      </trkpt>
      <trkpt lat="45.88892" lon="2.80279">
        <ele>559.14</ele>
        <time>2015-04-24T15:32:33Z</time>
      </trkpt>
      <trkpt lat="45.88896" lon="2.80273">
        <ele>559.14</ele>
        <time>2015-04-24T15:33:07Z</time>
      </trkpt>
      <trkpt lat="45.88895" lon="2.80272">
        <ele>558.66</ele>
        <time>2015-04-24T15:33:43Z</time>
      </trkpt>
      <trkpt lat="45.88889" lon="2.80271">
        <ele>559.14</ele>
        <time>2015-04-24T15:34:22Z</time>
      </trkpt>
      <trkpt lat="45.88891" lon="2.8027">
        <ele>559.62</ele>
        <time>2015-04-24T15:34:54Z</time>
      </trkpt>
      <trkpt lat="45.88893" lon="2.8027">
        <ele>559.14</ele>
        <time>2015-04-24T15:35:25Z</time>
      </trkpt>
      <trkpt lat="45.88886" lon="2.80274">
        <ele>559.14</ele>
        <time>2015-04-24T15:35:58Z</time>
      </trkpt>
      <trkpt lat="45.88883" lon="2.8028">
        <ele>559.14</ele>
        <time>2015-04-24T15:36:32Z</time>
      </trkpt>
      <trkpt lat="45.88881" lon="2.80282">
        <ele>560.11</ele>
        <time>2015-04-24T15:37:03Z</time>
      </trkpt>
      <trkpt lat="45.88891" lon="2.80279">
        <ele>560.59</ele>
        <time>2015-04-24T15:37:35Z</time>
      </trkpt>
      <trkpt lat="45.88889" lon="2.8027">
        <ele>561.55</ele>
        <time>2015-04-24T15:38:04Z</time>
      </trkpt>
      <trkpt lat="45.88887" lon="2.80274">
        <ele>560.59</ele>
        <time>2015-04-24T15:38:31Z</time>
      </trkpt>
      <trkpt lat="45.88888" lon="2.80257">
        <ele>560.59</ele>
        <time>2015-04-24T15:38:56Z</time>
      </trkpt>
      <trkpt lat="45.88887" lon="2.80255">
        <ele>560.59</ele>
        <time>2015-04-24T15:39:17Z</time>
      </trkpt>
      <trkpt lat="45.88889" lon="2.80264">
        <ele>561.07</ele>
        <time>2015-04-24T15:39:43Z</time>
      </trkpt>
      <trkpt lat="45.88892" lon="2.80262">
        <ele>562.03</ele>
        <time>2015-04-24T15:39:55Z</time>
      </trkpt>
      <trkpt lat="45.88905" lon="2.80276">
        <ele>562.51</ele>
        <time>2015-04-24T15:40:11Z</time>
      </trkpt>
      <trkpt lat="45.88913" lon="2.80298">
        <ele>562.51</ele>
        <time>2015-04-24T15:40:27Z</time>
      </trkpt>
      <trkpt lat="45.88917" lon="2.80321">
        <ele>563.95</ele>
        <time>2015-04-24T15:40:44Z</time>
      </trkpt>
      <trkpt lat="45.88924" lon="2.80353">
        <ele>562.51</ele>
        <time>2015-04-24T15:41:02Z</time>
      </trkpt>
      <trkpt lat="45.88926" lon="2.80374">
        <ele>561.07</ele>
        <time>2015-04-24T15:41:17Z</time>
      </trkpt>
      <trkpt lat="45.88932" lon="2.80394">
        <ele>560.59</ele>
        <time>2015-04-24T15:41:34Z</time>
      </trkpt>
      <trkpt lat="45.88938" lon="2.80411">
        <ele>561.07</ele>
        <time>2015-04-24T15:41:49Z</time>
      </trkpt>
      <trkpt lat="45.88934" lon="2.80428">
        <ele>561.07</ele>
        <time>2015-04-24T15:42:07Z</time>
      </trkpt>
      <trkpt lat="45.88937" lon="2.80454">
        <ele>563.95</ele>
        <time>2015-04-24T15:42:27Z</time>
      </trkpt>
      <trkpt lat="45.88934" lon="2.80479">
        <ele>565.87</ele>
        <time>2015-04-24T15:42:46Z</time>
      </trkpt>
      <trkpt lat="45.88926" lon="2.80498">
        <ele>564.91</ele>
        <time>2015-04-24T15:43:04Z</time>
      </trkpt>
      <trkpt lat="45.88918" lon="2.8052">
        <ele>564.43</ele>
        <time>2015-04-24T15:43:21Z</time>
      </trkpt>
      <trkpt lat="45.88901" lon="2.80538">
        <ele>564.91</ele>
        <time>2015-04-24T15:43:40Z</time>
      </trkpt>
      <trkpt lat="45.88887" lon="2.80554">
        <ele>563.95</ele>
        <time>2015-04-24T15:44:00Z</time>
      </trkpt>
      <trkpt lat="45.88875" lon="2.80553">
        <ele>563.95</ele>
        <time>2015-04-24T15:44:18Z</time>
      </trkpt>
      <trkpt lat="45.88864" lon="2.80568">
        <ele>563.47</ele>
        <time>2015-04-24T15:44:36Z</time>
      </trkpt>
      <trkpt lat="45.8886" lon="2.80567">
        <ele>563.47</ele>
        <time>2015-04-24T15:44:58Z</time>
      </trkpt>
      <trkpt lat="45.88853" lon="2.80589">
        <ele>562.99</ele>
        <time>2015-04-24T15:45:25Z</time>
      </trkpt>
      <trkpt lat="45.88845" lon="2.80587">
        <ele>562.51</ele>
        <time>2015-04-24T15:45:44Z</time>
      </trkpt>
      <trkpt lat="45.88829" lon="2.80596">
        <ele>562.51</ele>
        <time>2015-04-24T15:46:01Z</time>
      </trkpt>
      <trkpt lat="45.88806" lon="2.80594">
        <ele>562.99</ele>
        <time>2015-04-24T15:46:19Z</time>
      </trkpt>
      <trkpt lat="45.88803" lon="2.80594">
        <ele>562.51</ele>
        <time>2015-04-24T15:46:21Z</time>
      </trkpt>
      <trkpt lat="45.88788" lon="2.8059">
        <ele>562.03</ele>
        <time>2015-04-24T15:46:36Z</time>
      </trkpt>
      <trkpt lat="45.88773" lon="2.80588">
        <ele>560.59</ele>
        <time>2015-04-24T15:46:50Z</time>
      </trkpt>
      <trkpt lat="45.88759" lon="2.80582">
        <ele>561.55</ele>
        <time>2015-04-24T15:47:06Z</time>
      </trkpt>
      <trkpt lat="45.88738" lon="2.80571">
        <ele>561.55</ele>
        <time>2015-04-24T15:47:23Z</time>
      </trkpt>
      <trkpt lat="45.8872" lon="2.80566">
        <ele>561.55</ele>
        <time>2015-04-24T15:47:40Z</time>
      </trkpt>
      <trkpt lat="45.88703" lon="2.80563">
        <ele>561.55</ele>
        <time>2015-04-24T15:47:55Z</time>
      </trkpt>
      <trkpt lat="45.88685" lon="2.8055">
        <ele>561.55</ele>
        <time>2015-04-24T15:48:12Z</time>
      </trkpt>
      <trkpt lat="45.88667" lon="2.8055">
        <ele>561.55</ele>
        <time>2015-04-24T15:48:26Z</time>
      </trkpt>
      <trkpt lat="45.88653" lon="2.80545">
        <ele>562.03</ele>
        <time>2015-04-24T15:48:41Z</time>
      </trkpt>
      <trkpt lat="45.88635" lon="2.80541">
        <ele>562.51</ele>
        <time>2015-04-24T15:48:57Z</time>
      </trkpt>
      <trkpt lat="45.88624" lon="2.80535">
        <ele>562.03</ele>
        <time>2015-04-24T15:49:11Z</time>
      </trkpt>
      <trkpt lat="45.88616" lon="2.80526">
        <ele>562.51</ele>
        <time>2015-04-24T15:49:33Z</time>
      </trkpt>
      <trkpt lat="45.88611" lon="2.80521">
        <ele>562.51</ele>
        <time>2015-04-24T15:49:48Z</time>
      </trkpt>
      <trkpt lat="45.88594" lon="2.80514">
        <ele>562.99</ele>
        <time>2015-04-24T15:50:03Z</time>
      </trkpt>
      <trkpt lat="45.88578" lon="2.80507">
        <ele>563.47</ele>
        <time>2015-04-24T15:50:19Z</time>
      </trkpt>
      <trkpt lat="45.88572" lon="2.80502">
        <ele>563.47</ele>
        <time>2015-04-24T15:50:26Z</time>
      </trkpt>
      <trkpt lat="45.88564" lon="2.8049">
        <ele>563.95</ele>
        <time>2015-04-24T15:50:43Z</time>
      </trkpt>
      <trkpt lat="45.8856" lon="2.80479">
        <ele>563.95</ele>
        <time>2015-04-24T15:51:13Z</time>
      </trkpt>
      <trkpt lat="45.88555" lon="2.80474">
        <ele>564.43</ele>
        <time>2015-04-24T15:51:31Z</time>
      </trkpt>
      <trkpt lat="45.88542" lon="2.80456">
        <ele>564.91</ele>
        <time>2015-04-24T15:51:50Z</time>
      </trkpt>
      <trkpt lat="45.88537" lon="2.80451">
        <ele>565.39</ele>
        <time>2015-04-24T15:52:06Z</time>
      </trkpt>
      <trkpt lat="45.88528" lon="2.80431">
        <ele>566.35</ele>
        <time>2015-04-24T15:52:23Z</time>
      </trkpt>
      <trkpt lat="45.88518" lon="2.80409">
        <ele>566.83</ele>
        <time>2015-04-24T15:52:40Z</time>
      </trkpt>
      <trkpt lat="45.88507" lon="2.80392">
        <ele>566.35</ele>
        <time>2015-04-24T15:52:57Z</time>
      </trkpt>
      <trkpt lat="45.88478" lon="2.80374">
        <ele>566.35</ele>
        <time>2015-04-24T15:53:13Z</time>
      </trkpt>
      <trkpt lat="45.88473" lon="2.80354">
        <ele>566.35</ele>
        <time>2015-04-24T15:53:32Z</time>
      </trkpt>
      <trkpt lat="45.88472" lon="2.80352">
        <ele>566.35</ele>
        <time>2015-04-24T15:53:48Z</time>
      </trkpt>
      <trkpt lat="45.88474" lon="2.80351">
        <ele>566.83</ele>
        <time>2015-04-24T15:54:15Z</time>
      </trkpt>
      <trkpt lat="45.88462" lon="2.80352">
        <ele>568.28</ele>
        <time>2015-04-24T15:54:29Z</time>
      </trkpt>
      <trkpt lat="45.88442" lon="2.80345">
        <ele>569.24</ele>
        <time>2015-04-24T15:54:46Z</time>
      </trkpt>
      <trkpt lat="45.88437" lon="2.80342">
        <ele>568.76</ele>
        <time>2015-04-24T15:55:01Z</time>
      </trkpt>
      <trkpt lat="45.88427" lon="2.80323">
        <ele>568.28</ele>
        <time>2015-04-24T15:55:16Z</time>
      </trkpt>
      <trkpt lat="45.88419" lon="2.80308">
        <ele>567.8</ele>
        <time>2015-04-24T15:55:36Z</time>
      </trkpt>
      <trkpt lat="45.88404" lon="2.80306">
        <ele>568.76</ele>
        <time>2015-04-24T15:56:00Z</time>
      </trkpt>
      <trkpt lat="45.88382" lon="2.80303">
        <ele>567.8</ele>
        <time>2015-04-24T15:56:18Z</time>
      </trkpt>
      <trkpt lat="45.8837" lon="2.80314">
        <ele>566.83</ele>
        <time>2015-04-24T15:56:32Z</time>
      </trkpt>
      <trkpt lat="45.88363" lon="2.80331">
        <ele>567.32</ele>
        <time>2015-04-24T15:56:49Z</time>
      </trkpt>
      <trkpt lat="45.88364" lon="2.8034">
        <ele>566.83</ele>
        <time>2015-04-24T15:56:55Z</time>
      </trkpt>
      <trkpt lat="45.88361" lon="2.80353">
        <ele>566.83</ele>
        <time>2015-04-24T15:57:08Z</time>
      </trkpt>
      <trkpt lat="45.8836" lon="2.80365">
        <ele>566.83</ele>
        <time>2015-04-24T15:57:25Z</time>
      </trkpt>
      <trkpt lat="45.88372" lon="2.80373">
        <ele>567.32</ele>
        <time>2015-04-24T15:57:47Z</time>
      </trkpt>
      <trkpt lat="45.88384" lon="2.80385">
        <ele>566.83</ele>
        <time>2015-04-24T15:58:01Z</time>
      </trkpt>
      <trkpt lat="45.88387" lon="2.80389">
        <ele>566.83</ele>
        <time>2015-04-24T15:58:06Z</time>
      </trkpt>
      <trkpt lat="45.88396" lon="2.80403">
        <ele>566.35</ele>
        <time>2015-04-24T15:58:18Z</time>
      </trkpt>
      <trkpt lat="45.88411" lon="2.80416">
        <ele>566.83</ele>
        <time>2015-04-24T15:58:34Z</time>
      </trkpt>
      <trkpt lat="45.88422" lon="2.80439">
        <ele>566.83</ele>
        <time>2015-04-24T15:58:51Z</time>
      </trkpt>
      <trkpt lat="45.88422" lon="2.80451">
        <ele>566.35</ele>
        <time>2015-04-24T15:59:05Z</time>
      </trkpt>
      <trkpt lat="45.88418" lon="2.80458">
        <ele>566.35</ele>
        <time>2015-04-24T15:59:35Z</time>
      </trkpt>
      <trkpt lat="45.8842" lon="2.80472">
        <ele>566.35</ele>
        <time>2015-04-24T16:00:10Z</time>
      </trkpt>
      <trkpt lat="45.88419" lon="2.80455">
        <ele>567.32</ele>
        <time>2015-04-24T16:00:34Z</time>
      </trkpt>
      <trkpt lat="45.88432" lon="2.80466">
        <ele>568.76</ele>
        <time>2015-04-24T16:00:49Z</time>
      </trkpt>
      <trkpt lat="45.88433" lon="2.80472">
        <ele>568.76</ele>
        <time>2015-04-24T16:01:09Z</time>
      </trkpt>
      <trkpt lat="45.88434" lon="2.80475">
        <ele>569.72</ele>
        <time>2015-04-24T16:01:12Z</time>
      </trkpt>
      <trkpt lat="45.88438" lon="2.80495">
        <ele>569.72</ele>
        <time>2015-04-24T16:01:28Z</time>
      </trkpt>
      <trkpt lat="45.88434" lon="2.80518">
        <ele>570.2</ele>
        <time>2015-04-24T16:01:43Z</time>
      </trkpt>
      <trkpt lat="45.88431" lon="2.80539">
        <ele>571.64</ele>
        <time>2015-04-24T16:02:00Z</time>
      </trkpt>
      <trkpt lat="45.88428" lon="2.8056">
        <ele>572.6</ele>
        <time>2015-04-24T16:02:17Z</time>
      </trkpt>
      <trkpt lat="45.88428" lon="2.80575">
        <ele>573.56</ele>
        <time>2015-04-24T16:02:43Z</time>
      </trkpt>
      <trkpt lat="45.88421" lon="2.80593">
        <ele>575.49</ele>
        <time>2015-04-24T16:02:59Z</time>
      </trkpt>
      <trkpt lat="45.88412" lon="2.80612">
        <ele>577.41</ele>
        <time>2015-04-24T16:03:17Z</time>
      </trkpt>
      <trkpt lat="45.88408" lon="2.80632">
        <ele>576.93</ele>
        <time>2015-04-24T16:03:33Z</time>
      </trkpt>
      <trkpt lat="45.88402" lon="2.80645">
        <ele>576.93</ele>
        <time>2015-04-24T16:03:59Z</time>
      </trkpt>
      <trkpt lat="45.88391" lon="2.80672">
        <ele>577.89</ele>
        <time>2015-04-24T16:04:17Z</time>
      </trkpt>
      <trkpt lat="45.88373" lon="2.80682">
        <ele>577.41</ele>
        <time>2015-04-24T16:04:33Z</time>
      </trkpt>
      <trkpt lat="45.88372" lon="2.80682">
        <ele>577.41</ele>
        <time>2015-04-24T16:04:34Z</time>
      </trkpt>
      <trkpt lat="45.88364" lon="2.80685">
        <ele>575.97</ele>
        <time>2015-04-24T16:04:48Z</time>
      </trkpt>
      <trkpt lat="45.88348" lon="2.80694">
        <ele>574.53</ele>
        <time>2015-04-24T16:05:02Z</time>
      </trkpt>
      <trkpt lat="45.88331" lon="2.807">
        <ele>572.6</ele>
        <time>2015-04-24T16:05:18Z</time>
      </trkpt>
      <trkpt lat="45.88316" lon="2.8071">
        <ele>571.16</ele>
        <time>2015-04-24T16:05:33Z</time>
      </trkpt>
      <trkpt lat="45.88309" lon="2.80719">
        <ele>568.28</ele>
        <time>2015-04-24T16:05:47Z</time>
      </trkpt>
      <trkpt lat="45.88307" lon="2.80725">
        <ele>567.32</ele>
        <time>2015-04-24T16:06:05Z</time>
      </trkpt>
      <trkpt lat="45.88308" lon="2.80738">
        <ele>567.8</ele>
        <time>2015-04-24T16:06:33Z</time>
      </trkpt>
      <trkpt lat="45.88313" lon="2.80751">
        <ele>568.28</ele>
        <time>2015-04-24T16:06:42Z</time>
      </trkpt>
      <trkpt lat="45.88318" lon="2.80775">
        <ele>567.32</ele>
        <time>2015-04-24T16:06:56Z</time>
      </trkpt>
      <trkpt lat="45.88316" lon="2.8079">
        <ele>567.32</ele>
        <time>2015-04-24T16:07:10Z</time>
      </trkpt>
      <trkpt lat="45.8831" lon="2.80796">
        <ele>566.83</ele>
        <time>2015-04-24T16:07:32Z</time>
      </trkpt>
      <trkpt lat="45.88307" lon="2.80802">
        <ele>566.83</ele>
        <time>2015-04-24T16:07:47Z</time>
      </trkpt>
      <trkpt lat="45.88297" lon="2.80822">
        <ele>567.32</ele>
        <time>2015-04-24T16:08:02Z</time>
      </trkpt>
      <trkpt lat="45.88288" lon="2.8083">
        <ele>568.28</ele>
        <time>2015-04-24T16:08:16Z</time>
      </trkpt>
      <trkpt lat="45.88283" lon="2.80831">
        <ele>569.24</ele>
        <time>2015-04-24T16:08:22Z</time>
      </trkpt>
      <trkpt lat="45.88264" lon="2.80828">
        <ele>573.08</ele>
        <time>2015-04-24T16:08:40Z</time>
      </trkpt>
      <trkpt lat="45.88258" lon="2.80825">
        <ele>573.56</ele>
        <time>2015-04-24T16:08:47Z</time>
      </trkpt>
      <trkpt lat="45.88251" lon="2.80809">
        <ele>573.56</ele>
        <time>2015-04-24T16:09:02Z</time>
      </trkpt>
      <trkpt lat="45.88251" lon="2.80802">
        <ele>573.56</ele>
        <time>2015-04-24T16:09:15Z</time>
      </trkpt>
      <trkpt lat="45.8825" lon="2.80803">
        <ele>573.56</ele>
        <time>2015-04-24T16:09:36Z</time>
      </trkpt>
      <trkpt lat="45.88249" lon="2.80804">
        <ele>573.56</ele>
        <time>2015-04-24T16:09:37Z</time>
      </trkpt>
      <trkpt lat="45.88248" lon="2.80802">
        <ele>573.08</ele>
        <time>2015-04-24T16:09:54Z</time>
      </trkpt>
      <trkpt lat="45.88251" lon="2.80796">
        <ele>573.08</ele>
        <time>2015-04-24T16:10:13Z</time>
      </trkpt>
      <trkpt lat="45.88249" lon="2.80797">
        <ele>573.08</ele>
        <time>2015-04-24T16:10:16Z</time>
      </trkpt>
      <trkpt lat="45.88244" lon="2.80794">
        <ele>572.6</ele>
        <time>2015-04-24T16:10:21Z</time>
      </trkpt>
      <trkpt lat="45.88234" lon="2.80785">
        <ele>573.56</ele>
        <time>2015-04-24T16:10:32Z</time>
      </trkpt>
      <trkpt lat="45.88233" lon="2.80777">
        <ele>574.53</ele>
        <time>2015-04-24T16:10:37Z</time>
      </trkpt>
      <trkpt lat="45.88227" lon="2.80764">
        <ele>575.01</ele>
        <time>2015-04-24T16:10:46Z</time>
      </trkpt>
      <trkpt lat="45.88224" lon="2.80755">
        <ele>574.53</ele>
        <time>2015-04-24T16:10:52Z</time>
      </trkpt>
      <trkpt lat="45.88221" lon="2.80749">
        <ele>574.04</ele>
        <time>2015-04-24T16:10:56Z</time>
      </trkpt>
      <trkpt lat="45.88219" lon="2.80746">
        <ele>574.53</ele>
        <time>2015-04-24T16:10:59Z</time>
      </trkpt>
      <trkpt lat="45.88207" lon="2.80737">
        <ele>573.08</ele>
        <time>2015-04-24T16:11:12Z</time>
      </trkpt>
      <trkpt lat="45.882" lon="2.80734">
        <ele>572.6</ele>
        <time>2015-04-24T16:11:20Z</time>
      </trkpt>
      <trkpt lat="45.88196" lon="2.80733">
        <ele>573.08</ele>
        <time>2015-04-24T16:11:23Z</time>
      </trkpt>
      <trkpt lat="45.88178" lon="2.80727">
        <ele>571.64</ele>
        <time>2015-04-24T16:11:38Z</time>
      </trkpt>
      <trkpt lat="45.88174" lon="2.80725">
        <ele>572.12</ele>
        <time>2015-04-24T16:11:41Z</time>
      </trkpt>
      <trkpt lat="45.88167" lon="2.80721">
        <ele>572.12</ele>
        <time>2015-04-24T16:11:46Z</time>
      </trkpt>
      <trkpt lat="45.88154" lon="2.80714">
        <ele>572.12</ele>
        <time>2015-04-24T16:11:57Z</time>
      </trkpt>
      <trkpt lat="45.88137" lon="2.80714">
        <ele>572.6</ele>
        <time>2015-04-24T16:12:12Z</time>
      </trkpt>
      <trkpt lat="45.88123" lon="2.80724">
        <ele>573.56</ele>
        <time>2015-04-24T16:12:27Z</time>
      </trkpt>
      <trkpt lat="45.88108" lon="2.80734">
        <ele>573.56</ele>
        <time>2015-04-24T16:12:43Z</time>
      </trkpt>
      <trkpt lat="45.881" lon="2.80738">
        <ele>574.53</ele>
        <time>2015-04-24T16:12:51Z</time>
      </trkpt>
      <trkpt lat="45.8809" lon="2.80744">
        <ele>574.53</ele>
        <time>2015-04-24T16:13:00Z</time>
      </trkpt>
      <trkpt lat="45.88073" lon="2.80751">
        <ele>576.45</ele>
        <time>2015-04-24T16:13:14Z</time>
      </trkpt>
      <trkpt lat="45.8807" lon="2.80749">
        <ele>576.93</ele>
        <time>2015-04-24T16:13:23Z</time>
      </trkpt>
      <trkpt lat="45.88058" lon="2.80758">
        <ele>577.89</ele>
        <time>2015-04-24T16:13:37Z</time>
      </trkpt>
      <trkpt lat="45.88047" lon="2.80772">
        <ele>579.81</ele>
        <time>2015-04-24T16:13:54Z</time>
      </trkpt>
      <trkpt lat="45.88049" lon="2.80793">
        <ele>580.29</ele>
        <time>2015-04-24T16:14:09Z</time>
      </trkpt>
      <trkpt lat="45.88039" lon="2.8081">
        <ele>577.41</ele>
        <time>2015-04-24T16:14:21Z</time>
      </trkpt>
      <trkpt lat="45.88025" lon="2.80828">
        <ele>575.01</ele>
        <time>2015-04-24T16:14:36Z</time>
      </trkpt>
      <trkpt lat="45.88024" lon="2.8083">
        <ele>574.04</ele>
        <time>2015-04-24T16:14:38Z</time>
      </trkpt>
      <trkpt lat="45.88017" lon="2.80844">
        <ele>572.12</ele>
        <time>2015-04-24T16:14:53Z</time>
      </trkpt>
      <trkpt lat="45.88016" lon="2.80837">
        <ele>571.64</ele>
        <time>2015-04-24T16:15:07Z</time>
      </trkpt>
      <trkpt lat="45.88015" lon="2.80834">
        <ele>570.68</ele>
        <time>2015-04-24T16:15:24Z</time>
      </trkpt>
      <trkpt lat="45.88012" lon="2.80841">
        <ele>570.2</ele>
        <time>2015-04-24T16:15:46Z</time>
      </trkpt>
      <trkpt lat="45.8801" lon="2.80839">
        <ele>570.68</ele>
        <time>2015-04-24T16:16:01Z</time>
      </trkpt>
      <trkpt lat="45.88013" lon="2.80842">
        <ele>570.2</ele>
        <time>2015-04-24T16:16:16Z</time>
      </trkpt>
      <trkpt lat="45.88012" lon="2.80849">
        <ele>571.16</ele>
        <time>2015-04-24T16:16:31Z</time>
      </trkpt>
      <trkpt lat="45.88013" lon="2.80852">
        <ele>571.16</ele>
        <time>2015-04-24T16:16:33Z</time>
      </trkpt>
      <trkpt lat="45.88013" lon="2.80855">
        <ele>570.68</ele>
        <time>2015-04-24T16:16:47Z</time>
      </trkpt>
      <trkpt lat="45.88024" lon="2.80868">
        <ele>571.16</ele>
        <time>2015-04-24T16:17:02Z</time>
      </trkpt>
      <trkpt lat="45.88027" lon="2.80881">
        <ele>570.2</ele>
        <time>2015-04-24T16:17:23Z</time>
      </trkpt>
      <trkpt lat="45.88033" lon="2.80888">
        <ele>569.72</ele>
        <time>2015-04-24T16:17:37Z</time>
      </trkpt>
      <trkpt lat="45.88039" lon="2.80901">
        <ele>570.2</ele>
        <time>2015-04-24T16:17:48Z</time>
      </trkpt>
      <trkpt lat="45.88031" lon="2.80921">
        <ele>571.16</ele>
        <time>2015-04-24T16:17:59Z</time>
      </trkpt>
      <trkpt lat="45.88022" lon="2.80942">
        <ele>575.01</ele>
        <time>2015-04-24T16:18:14Z</time>
      </trkpt>
      <trkpt lat="45.88014" lon="2.80954">
        <ele>575.97</ele>
        <time>2015-04-24T16:18:28Z</time>
      </trkpt>
      <trkpt lat="45.88002" lon="2.80971">
        <ele>575.49</ele>
        <time>2015-04-24T16:18:43Z</time>
      </trkpt>
      <trkpt lat="45.87999" lon="2.80973">
        <ele>574.04</ele>
        <time>2015-04-24T16:18:46Z</time>
      </trkpt>
      <trkpt lat="45.87996" lon="2.80969">
        <ele>573.08</ele>
        <time>2015-04-24T16:18:50Z</time>
      </trkpt>
      <trkpt lat="45.87999" lon="2.80963">
        <ele>573.08</ele>
        <time>2015-04-24T16:18:54Z</time>
      </trkpt>
      <trkpt lat="45.88007" lon="2.80956">
        <ele>572.6</ele>
        <time>2015-04-24T16:19:08Z</time>
      </trkpt>
      <trkpt lat="45.88006" lon="2.80956">
        <ele>572.6</ele>
        <time>2015-04-24T16:19:23Z</time>
      </trkpt>
      <trkpt lat="45.88008" lon="2.80957">
        <ele>573.08</ele>
        <time>2015-04-24T16:19:39Z</time>
      </trkpt>
      <trkpt lat="45.88008" lon="2.80959">
        <ele>572.6</ele>
        <time>2015-04-24T16:20:06Z</time>
      </trkpt>
    </trkseg>
  </trk>
</gpx>